GFSSGP_925_thetae_000.txt.gz
Theta_e
344 346 355 356 362 347 352 357 349 354 354 353 351 354 355 354 353 355 348 348 348 348 349 350 351 352 352 348 347 346 348 346 349 345 340 341 343 343 343 345 345 345 344 346 345 343 343 342 343
343 351 355 357 359 345 344 351 356 350 351 351 354 354 355 357 349 348 351 347 347 348 348 350 349 347 347 349 349 349 349 343 341 340 339 339 339 341 342 341 341 339 341 343 343 344 344 343 341
346 351 356 361 349 343 352 352 353 348 349 352 355 352 354 357 351 351 350 348 348 347 347 348 348 347 348 349 350 349 343 341 340 338 337 337 339 340 342 342 340 341 342 343 343 343 344 343 343
348 346 349 355 337 338 351 353 352 350 350 354 356 359 353 352 352 351 352 352 347 347 348 348 349 350 350 350 345 343 344 343 343 343 342 339 340 341 345 344 343 343 345 345 345 343 343 342 341
346 344 348 338 338 339 350 351 351 356 357 357 355 360 357 352 352 353 353 351 347 346 346 349 350 352 351 349 343 342 342 342 343 344 344 344 345 345 344 343 342 343 345 345 345 344 342 342 343
340 340 351 352 344 335 346 348 352 360 360 358 358 358 356 353 355 355 353 351 347 347 347 350 350 353 352 351 349 344 343 342 343 344 345 344 343 343 342 342 345 347 348 345 344 344 344 345 346
342 348 351 348 349 348 350 348 355 361 360 360 355 360 353 353 354 355 354 350 347 349 352 352 353 352 350 348 345 346 344 341 340 341 342 342 342 338 339 342 342 343 344 346 346 346 346 347 346
342 342 348 348 348 339 348 343 350 356 356 355 353 361 359 352 354 354 354 352 352 353 354 354 353 354 352 348 345 343 342 341 340 341 340 341 342 342 343 344 343 348 351 348 343 343 343 342 342
341 347 349 347 345 345 337 346 348 348 357 352 351 353 354 352 353 355 355 355 355 350 350 352 353 354 351 351 348 343 342 341 339 339 341 343 344 345 340 345 345 346 347 346 343 341 346 344 344
342 345 346 343 344 344 340 343 346 352 354 354 354 352 354 354 355 355 356 356 356 355 353 350 351 354 353 352 351 346 345 342 339 340 341 343 349 349 348 346 345 344 347 347 347 346 346 347 346
339 343 343 342 344 345 347 349 348 352 356 353 353 352 355 355 355 355 356 356 357 356 355 355 355 353 351 350 349 346 343 341 340 340 348 353 352 350 348 348 347 348 349 347 348 348 349 348 349
343 341 343 342 346 343 346 343 341 349 351 350 349 351 353 353 354 356 355 355 356 357 357 356 355 353 354 349 348 346 346 343 349 348 351 352 353 349 346 348 351 350 349 347 347 348 348 349 348
339 342 342 343 340 341 342 342 347 351 349 347 347 349 350 352 353 353 352 354 355 355 354 355 356 355 354 355 353 353 353 352 353 353 352 353 352 349 350 347 348 349 348 349 349 348 348 347 346
340 343 343 342 341 342 341 342 342 352 349 348 348 348 347 348 349 349 348 352 354 354 356 357 356 352 356 356 356 356 356 354 354 354 352 352 353 350 350 349 348 345 346 348 347 348 346 344 345
339 342 339 343 343 347 348 351 349 349 349 350 349 348 348 347 347 348 350 351 353 354 356 357 357 356 356 357 355 352 354 354 352 352 352 351 350 349 351 350 349 346 345 344 344 344 342 342 342
333 333 336 340 344 345 346 356 348 349 349 350 350 349 349 347 346 347 350 350 349 350 356 355 355 355 354 354 353 352 351 351 350 349 351 351 348 348 348 350 348 346 346 346 345 344 345 344 343
329 333 338 339 340 345 347 353 348 344 346 348 349 349 348 346 345 346 349 350 349 350 354 355 355 354 354 353 353 353 353 351 350 353 351 350 348 348 349 348 347 347 346 347 347 345 344 342 342
332 336 338 339 337 341 349 350 349 347 346 347 347 347 347 347 346 346 347 348 348 348 350 351 354 355 355 356 355 355 354 353 354 352 349 350 350 350 351 347 346 347 347 345 345 345 344 343 343
330 336 339 338 334 349 350 351 351 349 349 350 349 349 349 347 346 346 347 347 348 347 350 350 351 354 357 356 355 357 357 355 353 350 350 351 351 349 347 345 343 345 344 344 343 342 344 344 342
328 333 339 339 335 337 350 353 350 350 351 351 351 351 351 351 347 347 349 349 349 349 349 351 352 354 355 354 355 353 354 353 352 353 352 352 349 348 344 343 344 344 342 343 342 341 342 342 342
327 336 336 339 339 339 349 351 349 350 349 348 349 351 349 352 350 348 349 350 351 350 351 352 354 354 355 355 355 354 356 354 353 351 354 351 350 347 336 338 341 340 342 340 340 341 342 342 342
325 327 337 340 341 344 342 353 346 348 346 344 347 348 349 350 351 350 350 349 351 352 352 355 355 356 356 358 354 354 349 349 345 348 352 346 335 334 335 339 341 342 340 338 339 340 340 340 340
326 325 326 341 340 338 344 346 348 341 340 340 345 348 348 347 352 352 351 350 352 353 354 355 356 356 355 356 354 356 347 339 341 345 339 335 337 336 336 339 342 340 334 337 337 337 338 339 339
327 327 323 326 327 336 340 338 342 345 343 340 340 348 347 347 351 352 353 350 353 355 356 356 357 356 354 357 355 353 333 336 341 339 338 336 336 333 337 340 335 332 333 335 336 337 336 336 337
326 321 323 325 325 326 323 341 339 343 342 338 339 347 346 346 347 350 348 349 355 357 357 358 358 355 355 352 340 331 330 332 334 336 334 338 334 338 337 333 331 330 332 334 336 335 334 334 336
322 321 324 329 333 329 326 329 329 341 341 338 339 345 346 345 345 346 345 348 354 356 356 356 357 355 355 342 332 333 334 335 334 335 336 334 333 334 333 333 332 331 334 336 336 336 333 333 336
324 325 324 327 328 330 329 331 337 338 340 339 338 340 343 344 345 345 345 348 351 354 355 355 355 356 351 346 336 336 335 336 336 338 339 333 330 335 334 333 333 332 334 333 334 335 335 334 334
324 324 327 323 329 331 330 334 335 344 342 341 339 337 338 342 345 345 345 347 351 352 355 355 354 353 351 344 339 336 336 332 338 338 336 330 335 333 333 334 335 335 333 332 332 334 335 333 333
328 327 324 323 325 328 329 330 331 342 343 343 341 340 335 340 342 345 344 346 351 352 354 355 353 352 349 342 340 337 340 340 336 334 333 330 332 333 335 336 335 333 332 333 334 334 335 334 333
326 325 324 325 327 325 326 331 334 335 336 341 341 341 337 336 340 342 343 344 349 351 353 355 353 352 350 343 341 339 342 343 340 337 336 335 335 334 333 332 331 330 331 333 333 333 334 335 333

GFSSGP_925_thetae_003.txt.gz
Theta_e
349 347 355 356 360 346 357 355 350 353 355 353 352 353 354 351 351 354 346 347 346 348 349 350 348 350 352 352 351 350 350 348 348 343 339 340 339 338 338 340 341 339 337 338 339 340 342 342 344
344 351 355 356 344 351 351 351 354 351 353 353 354 353 355 356 348 350 350 348 347 348 349 349 350 352 349 350 351 350 353 352 346 343 341 340 340 341 341 341 338 336 337 340 343 342 340 341 342
345 352 355 363 343 351 354 351 351 352 354 354 355 352 353 354 350 350 348 350 350 351 350 352 350 347 348 347 348 348 349 348 342 340 339 339 340 340 340 339 336 337 340 343 342 340 340 341 341
349 346 348 352 338 339 352 349 348 352 351 354 354 358 353 351 350 350 347 349 348 351 351 349 348 351 349 349 347 340 339 338 337 336 338 338 338 341 340 338 339 342 342 341 341 341 341 342 343
347 342 344 338 339 352 351 348 348 351 356 357 355 359 356 351 351 349 351 348 348 350 349 348 349 349 351 350 343 341 342 343 341 343 341 338 338 342 342 343 345 342 340 340 342 343 344 344 345
340 337 343 348 348 353 351 348 349 358 358 356 356 357 356 352 351 352 351 346 347 349 349 352 353 351 349 348 346 345 345 344 344 342 341 341 343 345 346 346 342 340 343 348 347 348 346 345 347
340 342 347 344 346 353 351 350 358 358 356 357 353 359 356 353 352 352 350 347 347 349 350 351 352 353 349 348 343 342 341 342 341 341 340 341 343 342 340 339 341 343 345 349 351 352 345 345 346
340 338 345 345 347 350 349 348 355 355 358 352 351 357 357 354 354 352 351 348 349 349 352 351 354 354 352 352 344 342 341 339 340 339 340 341 341 342 341 343 343 347 351 350 345 345 342 341 342
339 343 343 345 344 343 346 352 355 354 356 351 352 352 350 354 354 354 353 353 351 351 352 351 351 352 348 345 349 349 343 340 338 339 342 345 344 346 344 343 344 344 346 347 343 343 345 344 344
341 341 343 342 341 345 343 351 353 356 355 356 355 351 352 354 355 354 354 355 355 355 353 352 352 352 351 346 346 345 345 344 341 341 343 344 345 347 346 345 343 341 346 344 346 344 345 344 346
339 345 343 341 341 339 343 347 348 355 356 354 357 354 352 353 354 354 355 355 352 350 352 352 353 352 351 351 347 347 345 343 341 341 343 346 347 348 348 346 344 344 347 346 346 346 347 346 347
332 340 341 339 344 341 344 344 352 352 352 350 354 353 352 353 354 354 355 355 354 353 351 349 350 353 352 349 347 346 345 344 342 340 343 350 350 349 347 346 348 348 348 347 346 346 346 347 346
330 340 339 340 339 341 340 346 350 351 350 350 353 354 354 354 355 355 355 355 355 354 354 354 354 353 350 350 347 346 345 345 345 346 348 350 350 349 347 347 345 344 346 347 346 346 346 345 343
337 340 340 337 338 340 348 351 352 351 349 350 355 355 354 354 355 355 355 354 355 355 355 355 355 354 353 354 352 350 351 351 350 351 352 352 351 350 349 347 347 346 344 345 346 346 344 341 340
339 339 339 340 341 342 344 349 356 350 349 352 355 353 354 353 354 353 353 354 355 355 355 355 354 352 354 356 354 351 353 352 350 352 351 351 351 351 350 350 346 346 345 344 344 343 342 343 342
339 335 344 341 344 344 345 354 355 349 349 350 350 351 352 351 351 349 350 352 354 354 354 355 357 356 355 357 356 355 354 353 352 351 351 352 350 348 347 347 347 346 346 345 345 345 343 341 340
329 343 340 342 341 344 347 351 354 350 349 350 349 349 349 348 347 348 349 351 353 353 354 356 358 357 356 357 358 353 352 352 350 350 349 351 350 348 348 347 346 345 346 346 345 344 343 341 340
340 334 342 345 345 342 348 348 353 351 350 350 349 349 348 348 346 347 349 350 351 352 354 357 357 357 355 355 354 352 353 354 351 351 350 350 348 348 347 349 347 346 346 344 344 344 343 342 341
329 332 342 343 338 346 347 349 352 351 349 350 350 349 348 348 346 345 348 349 348 348 351 355 356 356 355 355 356 355 355 354 353 352 352 351 350 350 348 347 343 343 344 344 343 342 342 342 342
326 325 332 336 340 345 347 350 347 347 348 347 347 347 347 346 345 344 346 347 348 348 350 353 354 354 355 355 355 354 355 355 353 351 350 351 350 348 346 343 342 343 343 340 341 341 341 341 342
326 328 329 336 340 345 349 351 350 348 347 346 346 345 346 346 346 344 345 345 347 348 348 350 352 351 352 356 356 355 353 354 353 353 354 349 350 348 345 338 339 341 339 340 339 341 341 341 341
330 325 329 335 340 346 347 355 347 349 350 349 349 348 348 348 346 344 345 347 348 347 347 349 350 351 352 354 355 354 353 354 349 349 349 352 351 343 335 337 339 340 341 338 338 340 340 339 339
329 325 325 332 336 341 345 346 347 347 350 350 349 348 349 349 347 346 346 347 348 347 348 349 351 352 354 355 355 354 353 349 344 344 351 352 338 335 335 337 339 341 338 335 336 336 337 337 338
327 325 321 324 330 341 346 341 341 350 350 349 345 347 350 348 349 346 347 347 348 350 350 350 352 354 355 356 357 355 355 348 339 346 347 338 336 334 333 335 340 336 334 335 335 336 334 336 337
323 320 322 330 337 341 332 340 338 342 346 346 345 344 348 348 350 349 349 348 349 351 352 352 353 356 355 357 358 355 358 342 337 342 339 335 335 334 335 338 332 329 332 333 335 335 333 333 335
321 320 322 324 329 333 328 343 342 337 341 343 342 341 345 347 347 350 350 349 349 352 354 354 355 355 356 357 356 358 352 332 334 339 338 335 334 331 334 332 330 329 331 334 335 334 334 333 334
324 321 320 321 325 326 325 327 328 336 337 341 339 338 343 346 345 350 350 349 350 352 354 355 356 356 356 355 356 349 331 332 329 332 334 334 331 331 332 332 332 331 331 333 332 333 333 334 333
323 321 324 320 326 330 327 330 329 336 339 340 339 336 341 345 344 347 349 347 351 352 354 355 355 355 355 354 352 341 332 333 333 335 336 336 331 330 332 332 332 332 332 332 331 330 333 333 333
326 323 321 321 322 326 327 327 326 332 338 339 338 338 339 343 344 345 346 346 348 352 354 354 354 354 353 352 350 337 335 334 335 335 336 336 330 332 331 332 334 334 333 330 330 332 333 333 334
321 323 323 325 325 322 324 326 327 331 337 338 337 336 335 338 342 343 344 345 345 348 351 353 353 352 351 351 349 340 336 336 334 334 333 330 326 328 330 332 332 332 330 328 330 331 331 332 332

GFSSGP_925_thetae_006.txt.gz
Theta_e
349 350 354 356 354 347 355 354 350 354 355 352 351 352 353 351 351 351 344 346 347 349 349 347 351 348 347 347 347 346 346 350 348 346 342 339 338 337 336 339 341 338 337 339 340 339 341 344 345
346 353 354 354 345 353 352 350 352 352 353 352 352 352 354 354 349 348 347 346 347 349 350 348 348 349 347 349 348 346 349 346 339 339 339 338 338 337 340 342 340 338 339 340 341 343 344 343 343
351 351 354 358 339 350 353 351 353 355 353 354 354 352 353 353 349 348 346 347 348 348 349 349 349 352 352 352 350 349 345 342 341 341 341 343 342 345 342 340 337 339 340 340 342 343 344 344 345
349 345 344 338 338 342 350 349 354 356 355 353 353 358 352 349 349 348 346 347 348 348 349 348 349 353 354 352 351 352 351 344 342 344 345 343 345 343 343 340 341 342 340 341 343 343 345 346 346
345 338 337 340 344 353 349 347 350 353 357 355 354 358 355 350 349 345 348 349 349 350 350 350 351 352 352 352 352 352 352 344 341 340 342 343 344 344 342 340 341 339 341 343 345 346 348 350 347
337 335 339 343 347 352 348 345 350 358 357 355 355 355 355 350 347 348 348 348 349 350 350 351 352 353 352 353 347 341 340 339 337 338 340 340 342 341 340 339 340 341 343 348 348 351 351 349 347
345 339 344 343 353 354 351 350 357 357 356 356 352 355 354 350 350 349 348 348 350 350 351 352 353 353 353 344 341 341 342 342 342 341 342 341 340 341 340 339 342 343 344 349 352 350 346 345 344
337 335 346 342 351 353 348 353 353 352 357 351 349 355 355 351 352 349 347 348 350 350 351 353 353 352 348 343 344 345 344 343 342 342 341 340 340 339 342 342 343 345 350 354 353 341 344 344 342
338 340 342 343 344 345 346 357 353 352 354 352 351 350 350 352 352 352 350 350 349 350 351 352 352 349 345 345 344 344 343 342 344 342 339 340 341 343 345 345 345 344 344 346 346 344 344 345 344
339 341 342 339 339 348 347 355 355 355 354 355 353 351 353 353 353 352 351 352 352 351 351 350 352 351 350 347 346 346 344 341 340 339 339 341 344 345 346 345 344 343 342 344 345 344 344 345 346
338 341 339 340 338 346 346 354 349 352 355 354 354 354 354 353 353 353 351 351 351 349 352 350 350 351 349 346 345 346 344 342 339 339 341 343 344 348 347 346 344 340 346 346 345 345 346 345 345
336 337 339 339 342 345 347 346 353 350 350 350 350 351 353 354 353 353 352 352 352 352 352 352 352 352 350 347 344 344 344 344 342 341 342 343 349 348 347 345 346 346 346 347 345 346 346 346 345
328 330 337 340 337 341 343 348 353 349 349 350 350 352 353 352 353 353 352 353 352 351 350 350 352 352 351 349 349 347 346 345 345 343 342 344 349 347 347 346 345 344 344 346 346 345 346 344 340
327 338 339 337 338 340 347 350 350 350 352 353 351 352 352 352 353 353 354 354 353 350 346 346 347 349 351 349 349 347 345 345 345 345 348 348 349 348 348 347 347 346 346 343 344 345 343 342 342
337 339 338 339 340 348 345 351 352 350 352 356 355 354 353 352 354 353 354 354 353 352 349 350 351 352 351 350 350 349 348 350 350 349 350 350 350 349 348 348 348 346 346 345 344 344 343 343 340
337 337 342 340 341 345 342 350 353 350 352 356 357 355 355 354 354 354 354 354 353 353 353 352 352 353 351 352 353 351 352 352 351 351 350 351 350 350 350 347 345 346 345 345 345 344 342 341 339
333 342 341 344 341 345 346 350 352 349 351 356 357 355 355 354 352 353 353 353 353 353 353 353 353 353 353 352 353 353 354 353 353 352 350 350 351 350 348 347 347 346 345 346 345 343 342 339 339
339 342 339 346 341 344 346 348 353 349 349 352 352 351 353 352 351 351 350 351 352 353 353 352 352 354 355 353 353 354 353 352 352 351 350 349 350 349 347 347 347 347 345 344 342 342 341 341 341
332 339 343 342 340 343 346 348 355 350 349 350 349 349 350 349 347 348 348 349 350 352 352 353 354 355 355 355 355 356 354 352 352 352 350 350 349 349 348 347 346 343 343 342 342 341 341 340 341
334 333 338 335 339 343 347 349 353 352 350 349 348 348 347 347 344 344 346 348 348 349 351 352 354 356 355 355 354 354 354 354 354 353 352 351 349 349 348 344 342 342 342 341 339 340 340 340 340
326 325 326 337 342 345 348 351 350 351 349 348 347 346 346 346 345 344 344 347 348 348 349 350 352 354 355 354 355 355 354 354 352 352 350 349 349 349 347 344 337 337 338 338 338 338 340 341 340
327 324 326 336 343 344 343 346 348 348 350 347 346 346 346 345 345 344 343 344 346 347 348 348 349 352 354 353 355 355 354 353 350 349 350 350 348 348 344 334 336 337 338 339 336 339 340 340 338
327 325 327 335 338 342 349 342 340 347 349 348 346 344 344 344 344 344 343 344 345 347 347 347 348 349 351 352 352 356 354 352 349 346 347 350 349 348 335 335 336 337 340 338 336 335 337 337 337
323 320 321 323 330 339 340 344 338 349 350 347 346 346 346 345 344 344 343 344 345 346 346 346 347 347 350 350 352 354 354 352 349 343 343 350 350 337 334 335 336 338 339 334 334 335 334 335 336
320 321 324 327 335 337 333 344 341 338 345 345 345 346 347 346 346 345 344 344 345 347 347 346 347 348 349 350 353 354 354 352 350 340 342 349 340 335 333 333 336 337 331 333 334 334 334 333 334
321 321 323 326 328 336 335 346 343 338 337 341 341 344 344 346 347 346 344 345 346 347 347 348 348 349 349 352 353 354 355 354 354 339 341 343 336 335 332 336 335 329 328 332 335 334 334 333 332
321 321 320 319 321 324 328 327 328 330 332 338 341 342 343 346 347 348 346 345 346 347 348 348 350 350 350 352 354 354 356 354 353 334 339 338 336 334 333 333 331 330 329 331 333 331 332 333 334
321 318 323 318 325 329 326 327 330 330 333 333 339 341 341 343 347 347 348 347 347 347 348 349 350 351 351 351 353 353 354 356 342 328 334 335 334 331 332 331 331 331 330 330 332 331 329 331 332
321 321 318 318 319 323 324 325 323 327 330 333 336 339 339 340 344 345 348 349 348 348 348 350 351 353 353 352 353 353 354 351 330 329 327 331 333 332 328 331 331 331 332 332 331 329 330 332 332
320 319 319 323 321 319 321 324 324 326 327 334 335 337 333 338 342 343 347 348 349 348 348 350 351 353 353 352 351 351 352 345 332 332 331 335 335 334 330 331 331 332 334 333 330 328 330 330 331

GFSSGP_925_thetae_009.txt.gz
Theta_e
355 357 354 356 355 351 357 356 352 356 355 353 348 349 353 352 352 357 346 349 349 349 349 349 347 346 346 344 346 346 346 344 344 341 340 338 337 338 341 341 342 342 344 344 341 342 342 342 344
349 354 355 357 351 352 356 352 356 353 354 352 352 353 353 354 349 348 349 350 350 350 349 349 345 345 345 345 346 346 349 349 347 344 340 340 339 340 343 341 339 340 344 343 344 345 344 341 342
352 351 359 352 349 350 355 351 355 355 353 352 354 351 351 353 347 348 349 350 351 352 350 351 347 347 347 347 346 349 352 352 346 343 340 340 342 342 343 339 338 341 342 344 346 345 343 343 342
350 350 349 342 348 350 352 352 355 357 355 353 351 353 350 348 347 348 350 351 352 352 351 351 350 352 348 348 351 351 349 342 344 342 345 345 344 342 340 338 341 341 343 345 345 344 346 348 345
345 344 342 347 351 354 350 352 355 357 357 353 352 354 352 351 349 349 350 351 351 352 353 354 352 352 352 351 352 350 350 347 345 345 344 344 345 342 342 343 342 341 343 345 346 347 350 349 348
345 340 344 347 354 353 350 351 354 358 356 354 352 351 353 351 348 349 350 350 350 352 353 353 352 352 352 352 351 350 348 344 339 338 340 342 343 344 342 342 340 342 346 350 351 352 348 346 345
345 344 347 349 356 355 351 350 355 357 356 354 349 354 355 350 347 349 349 351 352 352 353 355 355 354 351 351 352 350 343 338 335 338 339 340 342 341 340 339 340 342 347 349 352 345 344 343 342
342 343 346 348 355 353 351 352 354 354 355 350 349 354 355 350 348 349 350 351 353 353 354 355 355 356 355 353 352 342 340 339 341 341 342 341 342 342 339 342 345 343 347 347 347 343 344 344 344
340 346 347 345 352 351 351 352 354 351 355 351 351 351 347 350 348 349 350 352 353 354 355 355 354 356 354 353 352 346 344 344 343 344 340 342 349 350 350 347 345 343 343 345 345 345 344 343 345
343 347 346 343 346 350 352 352 356 356 355 353 354 351 351 351 349 348 349 350 352 352 354 355 356 354 353 350 351 351 351 350 350 350 347 349 345 346 345 345 345 343 343 345 343 343 345 347 348
342 345 343 343 342 348 352 353 353 355 355 352 356 355 352 352 349 349 348 348 349 351 352 354 355 355 354 354 353 350 351 351 349 347 346 346 344 345 349 349 346 342 347 350 348 348 349 348 348
338 340 341 341 344 348 352 352 353 352 347 348 352 353 352 352 351 349 348 349 349 351 352 353 354 355 355 349 351 352 350 350 349 348 341 342 345 347 347 348 347 347 349 348 348 349 347 347 346
332 332 337 341 345 347 349 353 352 352 347 350 352 353 353 352 351 350 350 349 350 350 353 354 354 355 355 352 351 350 349 349 350 347 343 345 344 347 346 346 347 346 347 349 349 347 347 347 345
330 334 338 342 346 347 349 351 350 350 352 353 354 354 353 352 352 352 352 351 351 350 352 354 355 356 355 354 350 352 352 349 350 350 349 341 343 346 345 347 348 349 346 348 347 348 347 345 345
340 343 344 343 345 347 349 354 353 350 353 354 354 353 353 352 352 353 352 351 352 351 350 351 352 354 354 355 348 347 352 351 350 351 347 348 349 347 345 347 345 347 346 345 346 347 346 345 343
342 343 346 344 345 348 346 348 351 352 355 355 353 353 353 352 352 352 353 352 353 353 352 351 350 352 354 354 349 352 351 352 352 348 347 348 348 346 346 346 344 344 346 346 348 347 346 345 342
341 346 346 347 345 349 347 348 351 353 354 356 354 353 353 353 353 353 354 354 354 354 354 354 354 355 356 353 351 351 351 351 350 353 352 349 349 348 348 346 345 346 347 346 347 346 345 342 340
343 346 345 348 346 349 349 350 354 354 354 356 356 355 355 355 356 354 355 354 354 354 355 355 355 356 357 349 349 350 349 349 350 353 351 350 348 347 349 346 346 347 349 347 345 345 344 342 342
340 345 346 346 345 347 349 349 355 354 354 355 357 357 356 355 352 353 354 354 354 355 355 355 356 356 353 356 355 354 354 355 355 350 349 349 348 348 347 346 346 345 347 346 346 344 343 341 343
342 344 346 344 345 346 348 349 351 355 354 353 354 356 355 355 354 353 353 353 353 354 354 355 356 357 355 357 357 356 356 356 355 355 352 350 350 349 349 348 346 345 345 345 343 343 342 341 343
339 343 345 345 344 346 349 348 352 354 353 352 351 351 351 352 353 352 351 352 352 352 354 354 356 355 356 358 358 356 355 355 355 355 354 353 350 349 349 345 346 344 339 339 343 342 343 341 342
333 338 342 344 345 348 346 348 350 352 356 354 352 351 350 350 350 350 350 350 351 351 352 353 354 354 357 357 357 357 355 355 355 354 353 353 349 349 347 344 334 337 339 341 341 340 342 342 339
333 333 336 341 344 345 349 347 343 351 355 356 354 351 350 349 348 349 349 348 349 351 351 351 351 352 356 356 356 357 357 356 355 352 350 354 351 349 347 339 333 335 339 339 337 341 340 340 339
328 331 332 338 340 340 340 346 339 353 352 351 351 350 350 348 348 348 347 347 348 349 350 351 351 350 350 353 356 357 357 356 354 350 347 348 350 348 346 333 334 336 339 339 336 338 337 339 339
329 331 334 338 340 337 337 349 342 343 347 348 348 349 348 348 348 348 349 348 348 348 349 350 350 351 352 353 355 355 356 357 355 351 347 346 347 346 340 333 334 338 338 336 334 334 338 336 338
329 331 334 337 337 335 337 344 341 342 341 344 346 347 347 347 347 348 349 349 348 349 349 350 350 351 352 353 353 353 353 355 354 350 347 344 345 344 336 334 333 335 335 330 333 337 337 337 335
328 330 331 333 328 333 336 341 335 338 339 340 344 346 348 348 349 349 349 348 349 349 350 350 350 350 352 353 353 355 355 355 353 350 350 343 342 340 335 332 334 335 328 330 336 335 335 334 336
326 327 329 330 339 336 333 335 333 340 341 342 343 346 347 349 350 350 351 349 349 349 350 351 350 351 351 353 354 354 355 353 353 352 350 338 341 337 335 332 335 331 330 329 333 334 334 334 334
324 326 327 330 331 335 335 333 336 341 346 343 343 344 346 348 351 352 352 349 349 349 350 351 351 352 352 353 353 354 354 353 352 352 352 328 337 336 334 331 332 333 332 331 331 333 334 333 334
324 326 328 330 334 330 332 332 332 335 338 339 341 341 343 348 351 350 351 350 349 350 350 351 351 352 353 352 353 354 352 350 349 349 347 328 327 333 330 330 330 332 334 334 335 335 332 334 335

GFSSGP_925_thetae_012.txt.gz
Theta_e
354 358 360 362 365 354 358 356 352 355 356 353 347 349 353 354 357 364 349 351 350 350 350 350 348 346 347 347 349 346 343 342 342 342 342 340 342 344 345 347 345 343 345 344 350 349 345 349 349
358 358 357 359 349 353 357 353 355 355 353 351 351 351 353 356 351 351 351 350 350 349 349 350 347 345 345 347 349 347 346 349 342 340 339 339 339 340 345 345 344 345 345 351 351 346 347 350 350
354 353 357 344 341 351 355 354 355 353 350 351 354 351 352 354 350 350 350 351 350 350 349 349 345 345 345 346 347 349 350 347 344 340 340 339 340 344 345 344 345 344 345 346 345 342 343 350 351
350 352 354 342 342 346 351 354 355 355 352 351 350 355 351 348 349 350 351 352 352 351 351 348 345 346 346 346 347 349 350 347 346 341 340 342 344 345 343 343 343 342 341 341 343 348 351 351 351
351 349 343 341 344 345 348 352 354 355 353 352 350 352 354 351 350 351 352 353 353 352 353 350 347 347 347 347 347 350 352 349 341 340 343 345 347 344 343 342 342 342 343 345 348 351 351 351 346
351 346 343 343 345 346 348 351 353 354 355 353 350 354 355 349 351 352 352 353 353 352 353 353 352 350 349 349 350 349 348 346 344 345 344 344 344 344 342 341 343 346 350 351 353 351 349 346 342
348 345 343 345 345 346 347 348 352 354 355 353 348 355 354 349 351 352 351 351 351 352 353 353 354 354 353 353 353 350 350 346 344 342 342 340 344 342 342 341 342 345 349 353 349 344 344 344 341
347 345 344 344 347 346 345 348 350 351 355 349 346 354 357 348 349 350 351 351 352 352 354 353 353 353 353 353 352 354 347 344 342 342 343 343 342 340 339 340 350 344 345 347 346 344 345 344 343
346 347 345 345 347 349 347 348 349 349 353 351 349 348 348 347 348 349 351 352 352 352 353 353 353 354 353 350 350 350 348 347 343 342 342 342 349 351 350 350 343 345 342 345 345 344 343 344 348
344 347 345 342 342 349 347 347 351 352 353 352 352 349 348 347 349 350 351 352 353 354 353 352 353 354 352 350 352 352 350 348 348 348 349 348 350 351 350 348 345 344 343 345 343 343 346 349 348
338 344 344 343 341 346 348 348 349 348 352 350 353 353 350 348 349 350 350 351 351 352 352 352 352 353 352 351 352 351 350 349 350 352 349 349 351 351 352 351 350 348 347 351 350 350 349 349 348
336 336 337 339 342 346 348 348 349 347 346 347 349 351 350 351 349 348 349 350 350 351 351 352 352 352 352 353 352 351 350 349 348 348 351 352 349 351 352 350 350 351 350 350 350 349 350 349 349
332 333 333 336 340 345 348 349 349 348 347 347 349 351 351 351 348 348 347 348 349 351 352 352 353 354 354 354 351 350 350 349 348 349 350 349 350 351 350 351 351 350 351 350 350 350 350 350 347
333 333 334 337 342 346 349 350 350 348 347 350 352 353 351 350 349 348 348 348 349 350 351 352 353 354 354 354 352 351 351 350 350 349 349 351 350 351 351 350 350 350 351 350 350 350 349 349 348
334 338 342 342 347 348 348 353 352 349 350 354 353 353 351 350 349 350 349 350 349 350 350 353 354 354 355 355 355 354 352 351 350 349 352 353 352 352 351 350 350 350 350 351 351 350 349 348 346
337 338 343 346 347 349 349 350 350 351 352 354 353 353 351 351 349 350 350 350 350 350 350 352 352 353 355 354 355 353 351 352 352 352 353 352 353 352 351 351 350 349 350 350 349 349 348 344 341
338 340 341 349 347 350 350 347 350 351 353 355 353 351 351 352 351 351 351 350 350 352 352 352 351 351 353 355 355 354 354 354 354 352 353 352 352 352 352 351 350 351 350 349 350 346 344 339 336
339 340 340 343 349 350 350 349 351 352 352 353 354 352 351 351 351 350 351 352 352 353 354 354 353 353 355 356 356 355 354 353 352 352 353 355 353 352 351 351 350 350 350 350 346 345 341 339 337
337 339 341 341 347 349 347 347 351 354 353 353 355 354 352 350 348 350 352 353 353 354 355 356 356 356 357 353 353 353 353 352 353 352 354 354 354 352 353 351 350 351 349 347 345 341 337 335 338
335 338 339 341 347 348 347 348 348 351 354 353 354 355 355 351 350 351 352 352 352 354 356 357 358 358 358 355 354 353 353 352 353 353 354 354 354 354 352 352 351 350 345 345 341 339 337 336 339
336 337 339 344 347 347 346 349 348 347 351 352 352 352 354 353 352 351 351 352 352 353 356 357 358 359 359 356 356 357 356 356 355 353 353 354 354 354 354 352 349 348 342 336 340 340 339 337 340
336 335 337 342 346 349 347 349 344 346 350 352 353 352 351 353 352 352 351 351 352 352 354 357 358 359 360 360 357 357 354 351 348 348 348 348 351 351 351 350 348 342 337 338 340 339 339 340 336
333 334 337 339 344 345 348 350 343 344 348 350 353 353 350 348 350 352 351 349 351 352 353 355 358 359 359 360 359 358 357 350 349 349 349 347 349 348 346 349 343 340 338 341 341 339 340 338 336
331 334 336 338 339 345 345 347 342 342 347 344 348 351 352 347 347 348 348 348 350 351 352 353 356 359 360 360 360 360 356 353 349 351 348 345 345 347 347 348 342 340 338 341 340 339 339 338 338
330 335 341 343 342 343 342 344 343 338 339 341 340 347 351 348 347 347 348 349 350 350 351 352 355 358 359 360 359 360 359 357 355 354 348 343 343 343 345 348 341 339 342 341 339 339 338 338 337
329 334 339 343 340 340 340 343 340 339 338 337 340 342 349 349 346 347 348 348 349 350 351 352 353 357 358 358 358 359 360 358 356 354 345 343 340 340 342 346 340 339 341 341 337 336 336 337 336
329 335 334 337 337 338 337 339 338 337 339 340 340 344 347 350 346 346 348 347 348 350 351 353 356 357 357 357 358 359 359 358 353 352 352 346 342 340 343 342 340 338 341 338 336 335 337 337 336
329 331 335 336 344 341 337 338 340 339 336 336 341 344 346 349 349 346 348 348 348 350 350 352 354 356 356 356 357 357 358 359 357 356 354 346 344 343 342 342 337 339 338 336 337 335 336 336 333
326 330 333 334 335 338 340 338 336 336 336 335 336 343 343 348 350 349 347 347 348 349 349 352 354 355 356 356 356 356 356 356 358 357 355 352 348 344 343 343 338 339 337 336 337 336 333 335 334
327 329 333 335 339 336 336 336 334 336 335 334 335 335 339 345 349 351 350 348 349 350 349 350 351 353 354 355 357 356 356 355 356 358 355 353 348 343 344 342 339 338 337 336 337 335 331 332 332

GFSSGP_925_thetae_015.txt.gz
Theta_e
351 355 358 360 367 360 358 356 354 356 356 350 350 354 359 357 357 362 347 350 352 350 349 349 346 347 345 346 346 345 344 347 346 345 346 351 348 350 349 350 353 353 353 350 349 351 351 351 350
357 359 362 367 358 366 357 354 356 355 353 350 350 352 354 358 351 353 351 351 350 348 350 349 346 348 351 350 350 346 348 350 345 343 343 340 347 353 348 351 352 351 351 348 348 350 350 351 351
360 359 362 358 351 355 357 353 354 352 351 351 352 351 354 355 351 350 350 349 349 349 350 349 346 347 350 352 350 346 347 347 343 341 340 341 352 353 351 352 351 348 346 345 346 350 351 351 352
357 356 355 341 344 349 353 352 351 351 351 350 352 355 352 350 351 350 350 350 349 349 350 347 345 345 350 352 351 348 350 348 342 340 341 351 354 352 351 352 350 347 349 348 350 351 351 352 352
352 354 354 339 341 346 351 350 350 351 351 350 351 356 355 351 351 351 352 351 351 352 350 349 346 346 349 350 353 354 352 346 342 341 345 350 353 352 353 351 349 343 346 349 352 352 352 351 352
355 347 347 342 340 342 348 350 350 351 351 350 353 355 356 351 351 351 352 352 352 352 351 351 348 349 351 353 354 348 346 344 344 345 346 348 351 349 348 345 347 348 350 352 353 349 344 345 347
353 349 345 341 342 341 343 346 348 349 351 350 351 357 354 353 352 352 352 352 352 351 352 353 353 353 353 354 348 348 352 349 347 346 348 345 344 342 338 340 343 345 352 353 352 345 344 343 341
350 345 342 347 343 341 341 344 344 347 351 347 349 357 358 353 351 351 351 351 351 353 351 352 352 352 352 352 350 354 350 344 343 347 342 341 339 337 341 344 350 345 344 347 346 344 342 342 343
345 349 348 343 349 343 340 342 344 346 349 347 348 351 351 351 350 349 349 351 351 352 351 351 350 351 353 353 355 353 352 348 349 344 342 341 351 352 353 353 345 345 343 344 343 342 342 345 349
343 354 348 342 345 344 342 340 344 346 348 349 349 350 349 350 350 350 350 350 350 352 351 351 352 351 350 348 352 350 348 348 348 348 352 348 350 351 350 350 345 344 343 344 343 345 347 349 350
339 350 346 342 341 345 344 342 342 345 346 348 350 351 350 350 350 350 350 349 349 351 352 351 351 354 350 350 350 350 350 350 349 351 351 349 351 350 351 352 352 352 349 351 351 350 351 350 347
337 339 338 339 341 342 344 344 342 341 344 345 348 349 349 351 351 350 349 350 350 351 350 349 352 352 350 350 350 349 348 347 348 350 352 352 351 350 351 352 350 350 350 350 349 350 350 348 348
335 337 336 336 339 341 344 344 343 341 342 344 348 348 349 350 350 349 348 348 349 350 350 349 351 353 352 354 349 350 348 348 348 348 351 351 349 350 351 350 351 352 349 350 349 348 350 348 348
336 336 336 337 339 341 344 344 345 342 343 346 350 349 349 349 348 348 348 348 349 349 350 350 352 354 354 353 355 351 350 349 348 349 349 352 351 351 353 351 350 350 350 350 350 351 351 350 348
335 336 339 338 339 342 343 345 345 343 346 348 350 350 348 348 347 348 348 348 349 350 350 351 352 354 355 355 355 353 351 349 350 348 350 352 354 353 354 350 351 349 350 353 352 350 351 350 348
334 337 341 339 340 343 345 348 344 345 347 348 349 350 349 348 347 347 347 348 348 349 350 351 351 352 354 354 355 353 351 351 350 349 351 353 354 355 354 351 350 349 350 350 351 350 348 344 339
336 338 339 340 340 346 346 354 346 346 346 346 348 348 349 349 348 348 348 348 348 349 350 352 352 352 353 355 355 354 353 352 353 353 350 354 354 354 353 350 351 353 351 351 351 349 345 340 337
339 339 340 346 341 346 345 350 348 349 347 345 347 347 348 349 349 348 348 349 349 350 351 353 353 352 353 354 356 354 354 354 353 351 352 355 354 354 354 351 353 352 351 351 348 346 342 340 338
337 339 338 341 341 344 346 346 347 350 349 348 348 347 347 347 348 347 349 349 349 350 353 354 354 354 354 355 356 355 354 353 351 350 353 357 355 355 354 354 351 353 350 349 345 343 337 337 339
335 338 339 340 340 343 345 346 347 351 350 350 349 349 348 347 347 348 349 349 351 351 353 355 356 357 357 357 355 354 351 350 350 349 351 354 354 356 354 353 350 351 348 348 344 340 338 336 340
335 337 338 340 346 345 345 347 346 346 350 350 349 350 349 347 346 348 349 350 351 351 353 357 359 359 359 357 355 356 357 355 354 350 353 353 353 353 354 354 353 352 347 338 342 341 340 338 338
335 335 337 338 344 349 342 348 348 345 346 350 352 350 351 348 347 346 350 351 350 351 354 356 359 360 360 359 356 356 354 350 347 347 346 349 351 350 351 352 348 348 341 338 340 339 341 336 337
332 335 337 337 342 349 342 344 343 344 345 346 349 351 351 349 348 347 348 349 350 351 353 356 360 361 361 361 356 356 355 348 348 347 350 350 350 348 348 347 348 345 337 340 343 340 341 341 337
330 333 336 337 338 344 346 345 347 346 345 344 345 349 351 351 348 349 347 348 349 350 352 355 361 363 362 362 360 359 358 351 349 349 350 346 346 348 347 347 347 341 339 342 341 340 340 339 340
329 332 337 340 340 341 342 344 350 344 342 342 341 344 348 351 349 347 351 349 350 351 352 355 360 365 364 362 361 360 359 358 354 354 349 345 345 345 346 347 347 340 342 342 341 341 340 339 339
328 331 335 342 341 340 339 343 342 343 340 340 339 339 342 349 350 347 347 350 351 350 354 355 359 364 364 362 362 361 361 357 354 353 350 345 344 344 347 349 346 341 342 342 342 339 338 338 337
327 330 332 336 338 340 340 339 340 341 341 340 339 338 339 347 350 348 346 346 348 350 354 355 358 362 363 360 364 363 362 360 353 351 351 350 343 342 343 349 345 342 340 342 340 337 339 339 338
325 328 332 338 345 345 339 340 341 341 341 339 339 338 339 344 349 348 347 346 347 348 351 354 357 361 361 360 362 362 362 363 360 357 356 350 346 342 344 346 344 341 340 342 339 337 338 338 337
325 327 331 333 337 340 342 341 338 342 341 339 339 337 338 341 348 349 347 345 346 347 348 352 354 357 359 359 359 359 360 360 362 360 357 355 349 347 344 346 343 339 341 340 339 338 338 338 337
327 326 328 336 341 337 340 339 338 337 338 337 337 337 338 339 345 348 348 347 346 347 346 348 351 352 356 356 359 360 359 359 359 361 359 358 353 349 346 346 343 340 340 339 339 339 337 335 335

GFSSGP_925_thetae_018.txt.gz
Theta_e
347 353 356 349 362 361 364 360 356 357 353 353 354 356 357 357 354 362 348 350 351 350 350 349 345 347 346 346 347 344 347 347 343 347 348 351 351 350 351 352 353 352 353 352 351 351 352 351 351
354 356 356 349 364 367 366 357 362 357 351 354 355 355 355 356 350 350 351 351 351 349 349 349 344 343 344 344 346 346 348 347 346 346 346 351 351 349 351 352 351 351 352 351 351 352 352 352 352
356 357 364 370 358 366 361 355 356 353 352 352 355 353 353 355 351 351 351 351 348 349 350 350 346 348 345 345 346 348 350 349 346 344 349 352 351 349 351 351 348 348 349 351 352 352 352 352 352
360 359 366 369 355 354 353 350 351 350 352 351 353 357 352 350 350 350 351 348 350 351 350 348 348 353 351 349 350 351 349 346 345 347 351 350 350 350 351 350 350 350 350 352 353 352 352 352 351
361 359 364 356 346 353 350 349 351 350 351 354 353 359 357 349 350 349 349 349 350 351 350 351 349 351 351 352 351 353 350 347 345 346 347 352 350 350 347 345 349 349 351 352 352 351 350 348 345
363 358 364 342 341 347 348 351 351 350 351 352 353 356 356 352 351 351 350 349 350 350 349 351 348 350 351 352 352 353 352 348 342 342 348 345 349 347 347 348 345 346 350 353 350 345 344 343 340
357 358 350 344 340 343 345 348 350 348 349 352 353 357 354 353 353 352 351 352 350 350 352 352 353 354 354 352 353 353 350 343 341 343 341 341 342 340 338 344 346 343 347 346 345 343 341 342 341
352 354 357 349 341 341 341 344 346 347 351 348 349 354 357 353 353 352 352 352 352 352 352 353 353 354 354 353 352 346 343 344 342 339 338 338 341 340 342 347 350 344 341 344 341 340 341 344 345
349 348 351 350 344 340 341 340 345 348 347 347 351 350 350 349 353 351 352 352 353 352 351 353 353 354 353 352 348 348 346 341 339 340 339 339 348 351 353 353 349 343 343 342 340 341 345 347 350
346 356 348 348 345 342 341 340 342 344 345 347 352 350 349 348 352 352 351 351 351 352 351 350 351 353 352 351 351 352 350 346 346 349 349 345 351 351 352 350 349 344 342 346 345 346 349 349 353
344 347 345 344 344 343 343 341 340 344 345 347 353 352 350 348 348 351 351 350 351 349 350 351 350 351 350 352 346 350 349 349 349 349 352 351 350 350 351 352 350 351 349 350 350 353 348 352 348
343 343 342 343 343 346 344 340 340 343 343 345 351 351 351 349 348 347 349 348 350 350 352 352 351 349 351 348 346 351 351 351 351 351 350 347 354 350 351 352 350 351 349 350 351 351 351 349 348
336 336 341 337 337 340 344 342 340 341 343 345 348 349 351 350 348 346 347 348 351 348 353 354 351 352 355 351 350 350 351 348 350 351 350 348 351 351 352 351 350 351 351 351 349 349 350 349 348
335 335 337 336 337 338 344 343 341 340 342 344 347 348 349 350 348 347 348 349 351 349 351 356 354 352 355 350 354 353 347 350 347 348 353 349 350 351 353 351 350 350 349 350 351 350 349 347 349
334 335 336 337 337 339 343 344 343 341 341 345 347 347 348 349 348 348 347 348 349 349 349 353 353 353 352 351 354 355 352 350 349 351 351 351 352 353 352 353 351 349 350 350 352 349 349 350 350
332 333 336 338 338 340 341 348 342 342 341 344 347 347 347 348 347 348 347 348 348 349 350 353 352 355 350 356 356 351 350 351 351 353 349 353 353 351 353 352 352 351 351 351 350 349 349 345 344
332 335 336 339 339 341 342 350 347 343 343 344 346 347 346 349 348 348 347 348 348 350 353 352 351 354 356 354 355 354 354 353 351 351 352 352 353 354 351 350 352 352 352 352 351 349 346 344 339
333 335 336 341 341 341 351 352 344 344 344 344 344 346 348 347 348 348 347 347 349 350 353 352 353 354 355 353 355 357 355 353 351 353 350 352 355 354 353 352 353 352 349 350 348 346 343 339 336
333 337 337 341 342 340 352 352 348 347 346 344 345 345 347 348 348 348 348 348 348 351 354 354 354 353 359 358 356 355 356 355 353 352 353 354 353 351 353 351 353 350 349 350 346 343 340 337 339
333 335 338 341 344 345 345 355 350 350 347 345 345 344 344 344 347 349 349 348 349 352 353 355 355 356 353 357 356 356 355 353 353 351 353 354 352 351 352 350 352 351 351 349 345 341 339 338 340
333 335 337 339 342 342 342 343 347 347 347 347 346 346 344 345 345 350 351 349 350 352 355 358 358 358 357 357 356 355 354 355 355 352 350 354 355 355 355 355 352 353 348 347 341 341 341 338 342
333 334 335 337 342 346 343 348 351 347 351 349 348 348 348 346 346 348 351 352 351 353 356 358 359 359 361 354 359 358 356 357 351 352 350 356 353 350 352 351 352 349 345 343 340 340 338 339 339
333 334 335 335 339 347 349 348 349 349 351 352 349 348 348 350 347 347 350 351 351 353 356 359 362 362 362 361 357 358 356 354 350 348 351 355 354 350 352 352 348 349 341 341 344 341 336 342 336
331 333 334 335 337 342 345 347 348 349 348 345 348 349 350 349 350 348 348 349 351 352 356 357 364 363 361 363 359 358 356 352 354 351 351 351 351 349 350 347 349 346 337 342 342 340 341 338 341
327 329 336 338 340 341 341 349 349 347 347 345 345 347 350 351 351 350 350 352 352 353 355 359 364 365 364 363 364 355 361 354 355 354 353 350 344 350 349 347 348 344 339 343 341 343 341 340 339
327 328 335 340 340 339 340 342 347 348 346 344 346 346 347 351 350 351 351 351 353 352 355 358 364 365 366 363 366 363 358 362 357 355 353 349 347 347 347 346 348 344 340 343 343 342 338 339 338
327 327 329 332 335 338 339 339 338 342 347 343 342 343 342 349 351 351 352 351 353 353 353 357 364 366 367 366 364 366 361 361 361 355 354 350 346 348 349 346 350 345 344 342 343 339 338 339 339
327 328 327 329 337 342 340 343 344 344 349 346 344 342 341 341 351 352 351 352 352 353 353 356 360 366 367 366 365 365 365 361 358 356 354 350 351 344 348 349 348 345 340 343 342 338 340 339 337
327 327 327 328 331 337 342 342 343 348 350 348 345 342 341 341 349 350 351 349 352 353 354 356 358 364 367 366 365 366 365 365 361 362 356 357 350 347 349 350 348 344 342 342 342 339 338 338 338
328 328 326 328 336 332 336 341 339 343 343 345 343 343 341 342 345 349 351 350 349 351 352 355 358 361 365 366 364 365 366 365 365 362 363 358 355 352 344 347 346 344 342 342 341 338 339 339 340

GFSSGP_925_thetae_021.txt.gz
Theta_e
348 351 354 350 363 359 366 364 359 358 358 353 350 353 356 354 355 357 346 349 345 347 348 346 348 351 351 350 347 348 346 345 344 347 349 344 346 346 347 350 353 352 352 351 351 350 351 351 351
351 354 352 348 365 368 367 355 359 358 354 352 353 352 353 355 348 348 349 349 350 347 346 345 346 347 347 346 347 349 349 347 343 348 346 344 343 345 349 350 351 350 351 351 352 352 352 352 350
355 351 359 361 362 367 364 356 357 357 355 354 355 351 352 355 350 350 350 350 349 349 345 345 343 343 343 345 345 348 348 343 343 343 347 347 345 347 348 347 347 346 351 352 352 352 352 352 349
355 356 360 368 361 358 356 355 354 357 354 353 353 356 352 350 350 350 351 349 348 350 344 345 342 345 344 343 346 345 345 343 343 345 348 346 344 349 342 342 343 347 352 353 353 352 347 346 345
355 357 365 365 358 352 350 351 353 356 355 355 352 357 354 351 350 351 349 349 350 348 346 347 348 345 342 344 345 346 346 343 345 348 349 347 346 344 339 344 344 347 351 353 349 346 342 338 340
360 358 365 363 352 350 350 349 352 355 357 356 355 355 353 351 350 349 350 351 350 346 346 349 350 349 345 346 349 349 345 342 345 347 346 345 340 336 339 344 344 346 349 351 346 343 342 339 340
350 353 358 354 344 348 352 349 354 354 356 356 354 357 352 349 349 349 350 350 349 348 348 348 352 352 351 349 351 350 345 343 344 343 341 339 338 338 340 345 345 342 342 343 342 342 341 342 342
351 352 359 352 351 342 350 347 350 352 355 351 354 360 357 350 350 349 349 350 348 349 348 348 350 351 351 351 352 351 347 344 340 339 338 337 342 343 344 349 350 343 342 341 341 342 343 347 348
347 354 357 350 349 340 342 348 349 350 353 353 351 354 353 351 351 351 352 350 352 352 351 352 351 349 351 346 352 351 344 340 338 336 336 338 345 350 351 352 350 343 343 342 341 344 346 349 349
349 354 347 345 346 342 344 349 348 350 352 353 353 352 353 352 352 352 351 352 352 352 353 352 351 350 350 347 348 341 336 334 335 339 342 344 349 349 350 351 348 347 344 346 347 348 348 349 347
345 345 346 346 344 342 339 340 341 344 354 352 354 354 353 353 352 351 351 352 353 352 353 353 352 351 351 351 342 339 337 337 343 348 349 351 350 347 347 350 348 349 350 350 350 349 350 350 348
343 341 340 340 345 339 339 336 342 342 349 350 349 347 353 352 351 351 351 351 352 351 352 352 352 350 351 352 346 337 344 346 347 349 350 354 353 349 348 351 350 349 349 349 350 351 349 350 347
338 340 340 339 341 340 340 341 343 345 350 350 349 348 350 351 351 350 350 350 350 351 351 349 350 350 352 352 345 348 349 349 350 350 352 348 350 350 349 350 351 350 348 351 350 351 349 346 347
336 336 334 337 340 341 341 341 341 346 351 352 351 349 348 346 348 350 349 350 350 351 351 351 350 348 350 349 350 352 352 352 351 352 351 347 351 350 351 352 350 347 351 350 349 349 346 344 345
333 334 332 334 334 340 344 347 342 344 348 352 351 350 349 347 346 346 351 350 349 352 352 353 350 349 352 350 352 353 349 349 348 351 351 350 349 349 349 351 349 352 350 350 350 349 347 348 344
330 328 329 332 334 337 342 349 344 340 347 350 349 350 350 348 346 346 350 350 347 349 353 353 351 354 354 350 352 352 353 352 350 352 351 350 351 350 350 349 352 351 350 350 350 346 346 347 342
326 328 329 331 335 338 342 346 341 338 345 346 348 347 348 348 346 347 347 350 350 353 354 354 355 350 350 351 351 354 350 349 351 350 351 354 353 353 351 348 350 351 352 351 349 348 345 341 338
326 328 328 331 336 342 344 343 343 341 339 345 346 346 346 347 346 347 346 348 348 350 354 353 354 354 351 348 350 351 348 350 353 351 352 350 351 353 351 349 353 351 351 349 347 345 342 336 338
327 328 330 331 338 347 347 345 343 339 340 340 345 345 345 346 344 347 347 348 350 350 351 353 352 355 354 353 355 355 356 353 353 351 348 352 353 353 354 351 350 351 347 348 345 343 341 335 338
326 328 329 331 339 345 349 347 344 339 339 340 343 344 345 345 344 346 347 347 350 352 352 350 352 356 356 354 354 355 355 354 354 352 354 354 354 352 349 349 350 349 351 349 345 338 338 338 340
326 327 329 332 339 343 350 351 347 339 342 342 342 343 344 344 344 346 346 347 348 352 353 352 350 353 359 356 355 355 353 352 354 355 354 352 352 349 350 349 348 352 351 349 343 338 339 338 340
327 328 330 331 335 343 347 355 349 342 345 345 343 341 342 344 344 345 346 347 347 352 354 353 351 351 355 358 355 356 353 355 353 354 354 352 354 354 354 351 351 351 342 344 340 342 339 338 336
326 329 330 331 332 342 342 342 349 347 348 347 343 342 341 341 342 345 347 347 348 352 354 355 353 353 353 355 356 354 353 352 353 354 353 355 356 349 352 350 350 349 342 342 341 340 336 342 341
324 327 329 330 331 337 340 342 345 348 348 346 345 345 343 341 341 344 346 348 348 352 355 358 357 356 356 356 355 357 356 356 354 352 352 354 353 350 352 351 352 348 345 341 342 341 336 339 341
323 321 327 330 332 333 336 341 346 344 343 347 347 345 345 344 342 341 346 347 348 353 357 359 359 359 359 358 355 356 358 356 353 355 354 354 354 350 349 351 347 347 338 342 340 340 338 337 339
322 321 324 329 332 332 332 341 343 342 341 346 346 343 345 345 344 342 345 346 349 351 356 360 361 360 361 360 359 355 355 358 354 353 351 351 351 350 348 348 347 347 338 345 341 342 340 340 335
323 321 322 321 326 330 332 332 332 342 341 343 341 341 343 341 347 345 343 345 348 350 356 357 363 362 362 363 362 359 357 357 359 353 356 351 346 344 348 347 347 347 340 341 342 341 339 340 338
323 324 321 322 323 328 330 332 336 336 343 342 341 341 341 340 345 346 344 345 349 350 355 357 363 363 363 360 363 362 359 356 358 361 353 355 348 348 349 347 347 346 342 337 343 343 338 338 339
324 323 321 320 322 325 330 331 331 337 344 343 341 340 337 342 343 347 346 346 349 350 353 357 362 363 364 363 361 363 364 361 357 359 357 353 353 346 348 348 347 347 343 340 341 343 339 339 338
325 324 321 323 323 325 323 326 329 330 340 342 341 339 337 337 346 347 346 346 350 351 351 356 363 363 364 365 363 362 364 364 361 358 359 354 352 352 347 348 347 347 345 340 343 343 339 338 341

GFSSGP_925_thetae_027.txt.gz
Theta_e
350 352 350 350 361 358 365 364 359 357 356 351 351 353 353 351 354 356 345 345 345 345 344 346 349 351 351 351 349 350 343 343 341 339 345 348 343 348 351 350 349 350 349 351 352 351 351 350 349
349 352 351 350 362 363 362 356 360 355 352 350 351 352 352 354 347 347 346 345 345 345 345 347 348 350 351 350 350 345 351 346 339 342 350 351 351 351 352 351 351 351 351 352 351 351 351 349 349
354 351 353 357 360 363 360 357 356 353 351 352 352 350 350 351 347 346 345 345 345 345 346 348 349 350 350 351 351 347 352 345 339 346 345 350 350 351 351 351 351 350 352 351 349 348 350 351 349
348 350 356 364 367 359 358 357 355 356 352 350 351 354 350 347 347 346 345 345 345 346 346 349 350 351 351 351 351 347 347 342 345 342 342 343 347 349 351 349 349 349 350 349 345 344 348 351 348
351 353 361 364 362 356 357 353 355 356 355 353 351 355 352 348 347 344 346 346 345 346 349 350 349 349 351 351 346 344 342 343 343 341 341 346 346 350 349 346 349 348 348 346 345 345 345 346 344
355 353 362 361 356 356 356 354 354 355 354 353 353 353 352 348 347 348 346 345 344 346 348 348 349 350 351 352 344 344 343 341 340 341 342 344 344 346 345 346 347 348 348 345 344 344 343 342 343
350 351 355 356 355 359 358 353 354 355 354 353 349 354 351 349 349 348 346 344 344 345 347 348 349 350 351 351 348 345 340 340 339 342 343 342 343 342 345 347 346 344 345 344 343 343 344 343 343
349 343 353 354 358 357 355 354 351 353 355 348 347 354 354 349 349 348 347 346 344 345 346 348 349 350 350 350 351 344 338 338 338 341 341 341 341 344 348 348 348 345 342 342 344 346 347 346 345
344 346 351 351 351 353 353 356 351 350 352 349 350 348 347 349 348 348 349 349 348 348 347 347 349 350 347 346 348 344 339 337 337 341 339 340 343 348 349 349 347 343 342 343 345 347 348 344 346
347 345 345 342 343 351 354 354 353 354 352 354 351 348 349 349 348 348 349 348 350 350 350 349 348 348 345 348 347 343 341 338 336 339 337 340 345 349 348 348 346 345 345 347 347 347 345 347 347
346 351 345 344 346 349 353 354 352 354 354 354 352 350 349 348 349 348 348 347 348 348 350 350 348 347 345 351 346 343 341 336 336 337 338 340 347 349 348 348 346 348 348 347 347 347 346 348 347
351 347 347 345 343 344 352 351 354 352 351 350 347 348 348 348 348 348 347 348 347 348 348 348 347 347 348 349 344 339 338 336 335 336 340 346 348 348 347 348 347 347 348 348 347 346 347 346 348
351 347 342 344 344 342 349 352 354 353 349 349 348 348 348 347 348 348 347 348 348 348 347 346 346 345 347 345 337 336 336 336 334 338 345 349 350 350 346 348 348 347 346 348 347 346 348 344 343
327 334 333 333 335 342 351 352 351 353 350 352 351 349 348 348 348 349 348 349 349 350 349 347 346 343 344 339 335 335 335 335 335 340 347 348 350 350 347 348 349 348 348 347 348 348 346 344 343
327 329 329 328 329 338 346 351 354 349 351 354 353 351 350 348 348 349 349 350 350 350 350 349 346 343 340 336 335 336 335 337 341 346 347 348 350 349 348 348 349 350 346 349 349 348 345 347 340
325 325 327 329 336 335 341 346 350 349 352 355 354 353 352 350 349 349 349 349 350 350 351 350 348 346 343 343 343 345 344 341 348 349 349 349 350 350 349 348 349 349 350 349 349 347 344 341 338
320 327 326 326 336 340 338 342 352 350 352 355 355 354 353 351 349 348 348 350 350 349 350 351 351 350 348 346 349 350 351 352 349 349 350 350 351 350 349 349 349 350 349 350 349 346 343 338 334
324 324 324 325 329 340 340 342 353 351 352 355 354 354 354 352 351 349 348 349 349 349 349 351 351 350 349 348 349 350 354 351 350 350 350 350 351 349 350 350 348 349 350 350 349 345 342 335 336
324 324 324 325 329 340 340 340 354 351 350 350 354 354 354 353 349 349 348 348 348 348 349 350 350 350 350 351 350 350 352 351 350 351 350 350 350 350 351 351 347 349 350 349 346 345 341 335 337
322 322 323 323 328 337 338 341 342 352 352 350 350 351 352 352 349 345 348 347 348 348 349 349 350 350 349 350 350 350 352 350 350 348 351 350 350 351 351 352 350 350 350 346 345 343 339 335 339
320 321 323 323 324 337 340 342 341 352 352 351 350 348 348 348 346 343 345 348 347 346 348 349 350 350 349 349 349 352 352 350 349 348 350 352 351 350 350 352 351 350 350 349 348 344 330 338 336
321 320 322 323 324 324 338 346 342 348 354 352 350 349 348 347 346 344 345 348 347 347 348 350 350 350 350 349 352 352 351 349 349 350 350 351 351 351 351 352 352 350 349 349 348 344 333 337 337
324 323 322 323 323 324 328 339 336 342 348 345 346 347 347 347 346 345 343 347 348 348 349 350 351 351 351 349 351 352 350 348 347 348 352 352 352 351 353 352 351 347 347 350 347 342 335 338 337
323 323 320 322 320 323 325 327 328 343 342 341 338 343 345 345 345 344 344 344 347 348 350 350 350 351 351 350 350 351 351 351 350 352 352 351 352 353 353 353 350 348 348 349 347 343 338 337 336
321 317 321 319 321 324 321 326 327 332 340 340 339 338 342 343 343 343 342 343 344 347 350 351 351 352 352 351 351 352 352 352 351 351 351 350 351 353 354 352 352 350 348 346 343 338 337 336 336
319 319 317 319 320 323 322 327 327 331 335 339 339 338 338 341 342 342 342 342 344 346 349 350 350 352 353 353 353 352 353 352 351 352 352 349 351 353 352 352 352 350 349 346 342 339 338 337 336
320 319 318 316 319 318 322 323 325 329 333 335 338 337 338 339 341 341 342 341 343 344 347 349 350 351 354 354 353 353 353 352 352 352 352 347 349 352 351 353 351 350 350 347 344 340 339 339 336
321 315 319 310 321 321 318 321 323 328 329 332 339 338 339 339 340 341 341 341 342 343 345 349 350 350 352 354 354 353 353 353 353 353 351 349 351 352 351 353 350 350 350 348 345 341 338 339 338
322 319 316 314 313 320 319 320 319 324 327 330 334 339 340 339 339 339 340 341 342 343 344 348 350 350 350 352 353 353 353 353 353 352 351 349 353 353 353 352 349 350 351 348 345 341 338 339 338
322 323 316 317 317 315 320 320 322 322 324 325 327 334 337 340 339 339 338 339 341 343 344 348 350 351 350 352 352 352 353 353 354 353 352 350 354 353 353 352 350 349 350 347 345 342 338 339 339

GFSSGP_925_thetae_030.txt.gz
Theta_e
352 350 350 351 362 359 365 362 357 356 356 351 349 349 352 351 353 353 345 346 345 344 343 344 347 351 350 348 347 347 342 340 340 348 345 350 351 350 347 349 350 350 347 349 350 351 351 347 342
352 350 351 348 358 361 361 356 358 354 352 350 350 350 351 353 347 345 346 344 343 343 343 344 348 349 350 348 347 344 346 347 346 345 349 350 350 351 351 348 349 348 348 351 351 351 350 345 343
351 353 351 355 357 363 358 356 355 353 350 351 352 349 349 352 346 345 345 344 344 345 345 346 348 349 351 351 347 350 350 350 347 351 351 348 351 351 345 346 350 349 349 349 351 350 350 348 342
350 350 355 364 365 359 357 355 353 354 351 350 349 353 348 346 346 346 344 345 344 345 345 349 350 351 351 351 351 352 350 344 342 348 343 346 350 349 345 349 351 351 350 351 350 350 346 343 342
349 352 360 364 363 356 355 354 354 355 353 352 351 353 350 347 347 345 345 345 345 346 347 349 349 349 350 351 352 351 349 343 342 343 343 345 347 346 347 348 349 350 353 351 348 343 342 342 342
352 352 359 359 356 355 356 352 354 355 353 351 351 351 352 345 345 346 345 345 345 346 347 349 350 348 350 351 351 345 343 341 343 344 342 344 346 347 347 347 348 351 352 350 343 341 341 343 343
349 350 352 355 354 359 358 351 354 353 353 352 348 354 351 345 347 346 346 345 345 347 347 347 349 351 351 351 350 341 340 339 343 341 340 342 344 346 347 347 346 347 345 343 343 344 343 343 343
346 341 349 352 357 356 355 353 351 351 353 346 347 353 353 346 347 346 345 345 345 347 346 347 347 349 350 351 350 340 339 339 343 342 342 341 344 347 348 347 346 343 342 343 345 346 346 345 343
342 345 348 352 353 352 352 354 351 348 350 348 347 347 345 348 347 347 347 345 346 347 346 347 347 349 348 348 348 345 341 339 342 341 342 344 345 346 348 347 345 342 342 344 346 347 345 342 345
346 345 347 342 343 350 354 353 352 352 350 353 349 347 347 348 347 347 346 346 348 348 347 347 347 347 346 345 345 346 343 341 339 340 340 340 342 347 348 347 346 344 344 345 345 346 343 347 345
347 353 345 344 347 347 353 354 351 352 352 352 351 349 348 348 347 348 347 346 347 347 348 347 346 346 345 343 343 347 341 338 337 338 338 342 347 348 348 346 346 346 347 347 346 346 346 347 347
351 347 347 346 342 350 353 351 353 348 348 347 347 347 349 347 348 348 348 347 346 347 346 347 345 345 344 343 344 344 341 337 336 337 338 341 345 346 347 347 347 346 346 346 344 346 348 346 347
352 346 344 344 343 342 349 353 353 352 348 347 346 348 349 348 348 348 348 347 346 347 346 346 346 345 344 344 348 344 340 336 335 337 338 344 348 348 346 347 347 346 344 345 347 347 347 343 342
333 342 341 338 332 339 347 352 351 352 348 347 348 349 348 348 348 347 347 347 346 346 346 346 347 345 345 344 346 342 337 334 336 336 338 346 348 348 347 347 348 348 347 348 345 347 346 342 345
323 325 326 327 327 333 344 353 354 350 350 349 348 348 348 347 348 347 347 347 347 346 345 346 345 345 344 345 344 339 335 335 334 334 338 345 348 348 348 347 348 348 348 345 347 347 345 344 340
323 324 326 326 328 328 347 351 352 349 351 352 350 349 348 347 347 347 347 347 348 347 347 345 345 345 344 343 341 335 335 335 336 338 342 345 347 348 349 348 347 349 347 347 348 347 345 341 337
320 325 324 326 327 338 344 341 347 349 352 353 352 350 349 348 347 347 348 348 348 348 348 349 347 345 344 341 338 335 335 337 338 341 346 348 348 348 349 349 349 349 349 349 349 346 344 339 335
322 322 323 325 329 337 339 339 346 350 353 354 353 351 351 349 348 347 348 348 349 349 349 349 348 347 343 341 339 339 343 348 349 350 348 349 349 349 349 349 349 349 349 349 349 345 342 334 336
322 323 325 324 326 338 338 339 352 351 352 354 353 353 352 351 348 348 347 348 349 349 349 350 350 348 347 346 346 346 349 350 352 349 348 349 349 350 350 349 350 347 349 350 348 344 342 334 337
321 322 322 322 323 334 334 337 350 352 353 352 354 353 353 351 349 349 348 347 348 348 348 349 350 349 349 347 347 347 348 349 352 350 350 349 349 350 350 350 351 348 348 349 347 344 342 338 337
320 322 322 324 323 330 336 337 342 352 350 350 352 351 351 351 351 349 348 347 347 347 348 348 349 350 350 349 348 348 349 349 351 351 349 350 350 349 350 350 351 350 349 349 346 344 342 332 338
319 319 322 322 321 323 332 334 339 344 353 350 348 351 352 351 350 349 348 348 347 347 347 348 348 349 349 349 349 349 350 350 350 350 349 348 350 350 350 352 351 351 350 349 348 347 341 333 337
324 320 320 320 320 321 325 331 333 338 354 353 350 348 347 347 348 349 345 346 348 347 347 347 348 349 349 349 349 349 349 350 349 350 349 347 348 350 351 350 350 351 351 348 348 347 342 334 337
321 321 317 317 317 322 321 327 323 343 344 351 351 350 349 347 346 345 344 343 345 347 346 347 348 348 348 349 349 349 349 349 350 349 348 349 352 351 351 351 352 352 350 346 347 347 342 336 336
320 318 321 321 321 324 319 323 326 329 340 344 347 347 347 347 346 345 344 342 345 346 346 346 348 348 348 349 349 349 349 349 349 348 347 347 350 352 351 352 352 352 349 347 348 347 344 337 336
318 317 319 322 321 323 318 323 323 323 333 338 340 342 341 344 345 345 345 344 343 346 346 347 348 349 349 349 349 349 350 349 350 349 348 348 347 348 349 351 353 353 350 348 347 346 342 337 335
317 320 316 316 316 316 318 319 322 324 325 334 337 337 338 337 342 343 344 344 343 344 346 348 349 349 349 349 349 349 350 350 350 350 350 349 349 349 347 349 352 352 351 349 347 344 340 338 337
317 315 320 311 321 320 318 318 324 326 327 327 334 336 337 337 337 341 342 342 343 343 345 347 349 349 349 350 350 350 350 350 350 350 351 351 350 351 347 351 351 352 352 350 348 344 342 339 338
318 317 314 316 314 319 318 320 316 322 325 326 328 335 336 335 336 337 340 341 342 342 343 346 348 349 349 351 351 351 351 351 351 351 351 351 351 351 347 350 351 351 352 351 349 346 343 340 338
322 321 314 318 317 312 315 320 318 318 323 325 326 328 334 335 336 336 338 339 341 341 342 344 347 348 349 351 352 352 351 351 351 351 351 351 351 351 348 348 351 351 352 350 350 348 344 341 338

GFSSGP_925_thetae_033.txt.gz
Theta_e
350 352 351 352 364 361 365 363 358 358 357 352 350 351 352 353 353 358 346 346 347 346 347 347 348 350 351 351 349 348 346 345 341 341 346 347 347 349 351 351 347 346 348 347 346 350 348 345 347
352 351 351 351 364 367 364 358 360 356 354 350 350 350 352 355 348 348 348 348 346 347 347 348 348 349 351 350 345 346 350 346 339 346 346 343 346 349 351 351 346 346 344 346 350 351 347 343 343
351 352 355 359 361 365 361 357 357 354 351 351 353 349 350 353 347 347 347 347 346 345 347 350 347 348 350 350 347 349 351 346 350 349 350 349 349 351 351 351 346 345 345 347 347 351 348 343 342
353 351 355 365 362 359 357 357 355 355 352 350 351 355 349 347 346 347 347 346 345 346 347 350 350 351 350 350 351 351 350 351 351 351 348 348 350 351 351 351 347 348 350 350 347 348 345 342 342
348 352 363 363 360 356 356 354 354 356 354 352 350 353 352 348 347 346 347 346 346 347 349 349 350 351 351 351 351 351 350 347 346 347 346 352 351 350 350 351 349 349 352 349 344 342 343 343 344
358 354 358 357 356 356 356 353 355 356 354 351 351 351 352 348 346 346 346 346 347 347 348 349 349 350 350 352 352 351 345 342 344 345 349 350 350 348 348 349 352 352 351 344 342 342 343 343 343
352 352 352 353 355 358 358 353 357 355 353 351 349 354 351 347 346 347 346 347 347 348 348 348 348 351 352 351 351 347 343 346 343 343 344 345 346 347 347 346 347 349 347 344 345 344 344 344 344
349 346 350 351 356 357 357 354 353 353 353 347 347 354 352 348 346 347 346 348 348 348 348 349 347 348 349 349 351 347 344 346 343 342 341 344 345 348 348 347 344 343 343 345 346 345 343 344 344
344 350 355 350 354 352 356 357 351 349 351 348 349 348 346 347 347 347 347 348 348 348 348 348 348 350 351 350 350 349 344 344 343 343 341 345 351 351 352 348 343 343 343 345 346 345 342 345 345
348 355 353 346 348 346 355 355 354 353 351 350 351 347 346 347 347 347 347 347 347 348 348 348 348 349 349 349 350 351 349 348 349 350 345 351 348 347 348 349 344 344 345 345 345 344 343 347 349
356 357 352 345 346 349 355 355 353 354 353 350 353 350 348 347 347 347 346 345 346 346 347 348 348 349 349 348 349 350 348 348 347 344 343 346 348 348 350 348 349 347 348 350 348 350 348 347 347
356 353 351 348 347 352 355 354 355 353 348 346 349 348 348 348 347 346 345 345 346 347 347 348 348 349 349 348 348 349 348 347 346 346 338 341 346 346 347 348 347 346 350 347 347 349 347 348 348
359 352 346 347 345 343 352 354 355 354 348 348 349 348 349 348 347 346 345 346 346 347 347 348 348 349 350 350 348 348 349 347 346 342 339 342 346 348 346 347 346 346 345 346 344 348 346 345 347
341 347 342 333 336 338 345 347 353 353 349 351 350 349 348 348 347 347 347 347 346 346 347 348 349 349 350 349 350 350 350 348 346 344 341 341 346 348 348 346 347 347 348 350 345 347 345 345 343
328 327 328 328 330 332 336 343 354 351 351 352 351 349 348 348 347 348 348 348 346 346 347 348 349 349 349 349 348 350 350 347 345 344 335 340 345 347 347 348 349 349 348 346 347 347 346 343 339
326 327 330 329 329 330 336 336 344 351 353 353 351 350 350 349 348 348 348 349 348 346 347 348 348 349 350 350 349 349 349 346 344 343 336 338 344 347 347 349 351 349 348 344 347 348 348 344 337
324 327 329 330 329 335 339 337 341 351 353 354 352 351 350 350 349 349 349 349 349 348 348 348 349 349 350 350 349 348 346 341 344 344 343 340 343 346 347 350 351 348 350 347 350 350 346 342 339
324 325 326 329 331 337 339 341 344 352 354 355 353 351 351 351 350 348 348 349 349 350 350 349 349 349 350 349 349 348 347 343 343 343 341 342 347 348 348 350 349 349 352 350 350 348 345 339 340
322 324 328 328 328 337 339 341 343 352 354 355 355 353 352 351 348 347 348 349 349 350 351 351 351 350 350 349 347 346 344 344 347 349 350 350 348 349 349 352 349 350 350 352 350 348 346 339 338
322 323 326 327 326 329 333 339 341 351 355 355 356 355 353 351 350 348 348 349 350 351 351 352 352 352 350 349 347 345 345 346 350 353 350 348 348 349 349 350 351 352 352 348 349 345 345 342 339
324 322 323 326 327 328 333 333 339 348 352 353 354 353 353 352 352 351 349 349 350 351 352 352 351 352 351 349 349 349 349 350 352 353 353 350 349 349 349 350 351 351 351 352 349 346 344 340 341
323 323 322 324 326 330 332 336 339 341 353 354 353 355 354 353 352 351 351 350 349 351 351 351 351 352 352 350 350 350 348 348 349 351 353 353 349 350 349 349 350 350 353 352 350 347 345 336 340
323 323 323 323 326 328 329 333 335 342 351 354 353 353 353 352 352 353 352 351 350 350 351 351 351 351 351 351 351 351 351 350 350 352 353 351 351 349 350 350 350 351 352 352 351 348 346 341 339
325 324 325 325 326 328 329 330 334 335 341 347 351 351 352 353 352 352 351 351 351 350 350 350 351 351 351 350 351 351 352 351 351 352 352 352 352 352 350 352 351 350 352 352 351 347 347 342 338
325 325 327 327 327 328 330 330 333 333 336 336 346 351 351 351 353 353 353 352 352 352 350 350 350 351 351 350 351 351 351 352 352 352 352 352 352 352 354 351 351 352 351 352 349 346 348 344 340
326 325 324 326 326 326 328 330 331 330 331 336 338 344 349 351 350 350 353 353 351 350 351 350 350 351 351 351 351 351 351 352 352 352 351 352 351 351 354 350 350 351 351 351 349 347 347 344 341
324 327 324 323 322 324 326 328 328 329 331 334 339 340 345 349 350 350 351 350 349 349 350 350 350 351 351 351 351 351 351 352 352 351 351 352 352 352 353 351 350 350 352 352 350 348 347 344 339
323 324 323 325 324 325 326 327 328 333 332 332 335 338 341 343 346 348 350 350 349 348 349 350 350 350 351 351 351 351 351 351 351 352 352 351 351 351 352 349 350 349 352 352 350 348 346 344 341
322 324 324 324 324 324 324 324 328 332 337 336 334 336 338 340 342 343 348 349 349 348 348 350 350 351 351 351 351 351 351 352 352 352 352 351 351 350 351 350 350 350 352 352 351 349 347 344 342
324 324 325 325 328 325 324 324 326 328 329 333 333 335 336 340 343 342 342 345 346 348 348 348 350 351 351 351 352 352 352 352 352 353 352 351 351 350 351 351 351 353 353 351 351 351 347 346 345

GFSSGP_925_thetae_036.txt.gz
Theta_e
348 350 352 353 367 364 363 363 357 359 359 354 351 353 353 354 356 362 348 348 348 342 343 348 349 351 351 351 351 349 345 342 346 351 344 351 351 351 352 347 349 350 351 350 351 350 349 350 350
352 353 352 354 368 365 363 359 360 358 355 353 352 353 354 358 351 350 350 348 347 346 350 350 348 351 352 352 352 348 349 346 347 346 351 351 351 351 351 346 345 345 350 352 351 351 349 349 347
353 353 358 362 362 362 361 358 359 357 353 354 355 352 354 355 351 350 348 348 348 348 349 350 349 350 352 352 346 346 351 350 345 351 351 351 352 352 349 346 348 346 347 350 349 344 348 346 342
352 354 355 368 359 358 357 358 357 356 354 352 353 357 351 349 350 350 349 346 349 349 349 348 349 352 352 350 346 351 351 351 352 352 351 352 351 351 348 349 351 350 345 350 350 343 342 344 343
350 353 364 364 357 356 356 356 355 357 356 354 352 356 353 349 349 350 348 348 349 348 349 349 350 349 350 351 352 352 352 352 352 351 352 352 351 351 351 351 353 352 346 345 345 345 343 343 345
360 355 360 355 354 357 356 355 355 356 355 353 354 356 356 349 349 349 348 347 347 347 346 347 347 349 349 352 352 352 351 351 350 352 353 352 351 351 351 350 352 352 350 345 344 343 343 342 343
361 354 354 352 354 356 357 355 356 355 354 353 351 359 354 349 349 348 347 347 347 345 344 345 347 350 352 353 352 351 351 351 351 350 348 347 347 347 347 345 347 349 350 346 346 345 345 344 342
358 350 353 353 354 358 356 356 354 352 354 349 350 357 357 349 349 348 347 347 347 345 344 345 346 347 348 348 352 351 351 350 346 344 343 344 346 347 345 345 342 343 345 346 346 345 345 345 345
351 354 353 351 353 353 356 357 353 350 352 350 350 351 350 348 348 349 348 348 348 345 344 344 345 347 348 347 348 349 349 349 341 341 343 347 352 351 351 346 342 343 344 346 345 343 345 347 344
355 354 350 348 346 348 354 355 355 353 352 351 352 349 348 348 348 349 349 349 349 346 344 344 344 346 347 346 348 348 346 346 347 350 351 352 352 352 351 347 343 344 344 344 343 342 344 348 347
352 352 350 345 346 351 353 355 353 353 352 351 354 352 350 348 349 349 349 349 348 346 344 344 345 347 347 345 347 347 346 346 349 352 352 353 353 353 352 352 350 351 348 350 349 349 348 349 346
356 351 350 346 346 348 354 354 355 353 349 348 351 350 351 351 351 349 349 348 347 347 346 346 346 347 347 346 347 347 345 345 345 346 351 353 352 352 353 352 351 351 350 348 347 346 347 349 347
354 350 346 345 346 344 345 351 350 354 349 348 350 350 351 351 350 348 348 347 347 347 347 347 348 349 349 348 346 345 346 344 344 346 349 351 351 353 353 352 351 351 350 347 348 348 346 347 344
345 348 345 340 339 338 341 345 347 349 350 351 351 351 351 350 349 348 347 347 347 347 347 347 348 349 349 349 348 347 347 345 345 345 346 351 351 354 352 352 350 350 351 351 345 347 346 347 347
343 336 334 335 334 334 336 339 342 346 352 354 353 352 350 350 348 348 347 346 347 347 347 347 349 349 350 350 350 349 347 346 345 345 348 350 351 353 350 351 351 350 350 350 349 346 348 346 343
335 331 335 335 334 333 334 340 340 345 352 356 354 353 351 350 348 348 347 347 347 347 348 348 348 348 350 350 350 348 348 346 344 344 347 350 351 354 352 353 352 353 350 349 349 351 348 345 342
330 336 338 337 334 335 335 340 342 344 352 355 355 353 351 351 348 347 347 347 346 347 348 349 349 348 349 351 350 350 348 348 344 344 347 349 351 353 355 353 352 354 353 350 350 350 347 342 341
335 333 335 339 336 335 339 340 339 346 351 353 355 354 353 351 350 348 348 347 348 348 348 350 350 350 351 351 352 349 347 346 344 345 347 349 351 352 355 353 352 353 353 351 351 351 347 341 339
332 333 334 335 335 334 336 339 338 346 350 352 355 355 354 353 350 348 348 348 348 349 350 351 351 351 352 351 350 348 346 344 343 346 348 352 354 355 357 354 353 352 352 353 353 349 349 342 339
328 329 332 334 333 332 336 338 339 344 351 352 354 354 355 354 352 350 349 349 349 350 351 353 353 353 354 352 349 346 344 342 343 347 350 355 357 357 358 356 355 355 354 356 354 352 346 343 339
327 329 330 332 332 331 333 336 337 339 346 349 352 353 353 354 353 352 349 349 348 349 351 353 355 355 355 352 351 349 346 345 345 348 353 356 357 357 359 354 352 356 353 353 355 353 350 343 339
327 326 327 328 330 334 335 339 339 338 342 345 347 353 353 354 354 352 350 349 349 350 351 353 355 357 357 355 350 350 346 346 346 348 351 352 357 357 357 358 358 357 355 355 355 353 351 348 339
325 325 326 327 328 331 333 336 337 338 339 342 345 349 353 354 354 353 351 348 348 350 351 353 356 357 357 357 351 351 351 346 347 348 351 354 355 357 356 358 359 358 356 356 357 355 353 348 341
323 325 324 326 327 330 333 335 337 338 340 340 343 347 351 353 353 353 351 349 348 349 351 353 356 359 358 357 357 354 354 352 349 351 352 353 353 354 356 356 358 359 356 357 357 357 354 351 346
325 327 328 327 327 329 331 334 336 336 337 338 339 343 350 353 353 353 354 353 349 349 351 353 355 358 359 358 357 357 356 356 355 355 354 353 352 351 352 357 357 357 359 358 358 357 353 353 349
326 326 326 328 327 328 329 333 335 334 335 335 337 337 345 351 353 353 354 354 353 351 353 353 355 359 359 358 358 358 358 356 355 355 354 354 352 351 352 355 356 358 358 358 359 356 354 351 351
328 328 326 325 327 328 328 329 330 332 334 335 335 336 339 349 352 353 353 353 354 354 355 355 356 358 358 358 359 359 358 357 355 354 356 355 354 353 354 354 358 358 357 359 358 355 353 350 351
327 327 326 326 329 329 327 329 331 332 333 334 335 337 338 343 349 350 352 352 353 354 355 356 357 358 358 357 358 358 358 358 357 357 357 356 355 355 353 356 357 357 357 358 358 355 354 351 349
326 327 327 327 326 328 329 328 330 331 334 334 335 337 338 341 346 349 350 349 350 352 354 355 357 358 358 357 358 358 358 358 358 358 358 357 356 357 356 356 357 356 356 358 359 356 354 353 350
326 327 327 327 330 327 329 328 327 328 330 333 334 335 337 339 341 344 346 347 349 351 351 352 354 356 356 357 359 358 358 358 358 359 358 358 357 357 358 357 358 357 356 357 359 357 353 353 352

GFSSGP_925_thetae_039.txt.gz
Theta_e
347 348 352 355 370 367 363 358 358 359 358 353 351 353 357 355 359 365 344 345 343 346 348 350 352 353 353 351 351 351 346 348 352 352 352 349 351 352 351 351 352 352 352 352 351 350 350 350 351
351 353 354 359 370 373 361 358 359 358 356 353 353 352 357 359 352 350 345 348 341 341 347 350 351 351 352 352 352 348 352 352 352 351 349 351 352 351 350 352 352 351 353 352 351 350 349 349 349
353 353 360 367 365 369 360 359 357 356 354 354 355 353 356 358 351 347 346 345 338 345 350 352 351 352 353 353 353 350 352 352 352 352 350 351 352 351 353 351 352 351 351 351 350 350 349 349 348
355 356 359 368 368 356 356 356 355 355 354 353 354 358 353 352 351 350 350 346 344 351 350 349 352 353 353 353 352 352 352 351 352 352 353 352 352 353 353 353 352 351 351 350 350 349 349 349 348
354 357 366 369 357 353 354 354 355 357 356 354 355 358 357 350 351 351 348 348 350 351 351 351 352 352 352 352 352 352 353 352 352 353 352 352 352 352 353 354 353 351 351 350 350 350 350 349 348
362 358 367 364 354 352 352 353 353 355 355 355 357 358 357 351 351 350 349 349 350 350 349 351 353 352 352 353 353 352 353 352 353 353 352 352 352 351 351 353 352 352 350 348 345 344 348 345 344
362 363 363 359 352 355 353 351 352 354 354 356 354 360 355 353 351 348 349 349 349 349 349 349 350 351 353 353 352 352 353 352 353 353 352 352 350 346 344 345 350 351 351 350 347 345 345 343 342
361 357 353 353 351 352 350 351 349 352 355 352 353 360 359 353 351 349 348 348 348 347 345 344 346 348 349 349 352 352 352 351 353 353 350 345 344 342 344 343 342 344 347 348 345 344 345 345 343
355 360 356 349 352 351 349 349 349 350 352 352 352 354 352 350 350 348 348 348 348 345 342 342 344 347 349 349 350 351 351 352 350 345 344 349 353 353 353 350 343 344 345 345 344 343 344 345 342
355 360 356 347 347 349 350 347 348 350 351 352 354 352 351 350 349 349 349 348 348 345 342 342 343 345 346 345 348 348 347 346 348 350 347 351 352 351 352 346 342 344 343 342 341 344 347 347 345
351 356 355 345 347 347 347 349 346 348 351 352 356 355 351 351 350 350 350 348 347 345 343 343 344 345 345 344 346 346 345 346 348 353 352 352 352 350 349 350 348 350 348 347 349 346 350 345 346
351 349 350 346 346 349 349 348 348 347 346 349 351 352 351 352 352 351 351 349 348 345 343 342 344 346 345 346 345 345 344 346 347 349 353 354 353 352 352 351 351 351 349 348 347 347 347 346 344
349 349 349 348 346 346 349 350 354 349 345 348 350 351 352 351 350 349 349 348 347 345 344 343 345 347 347 348 345 345 344 344 344 348 351 353 351 352 351 350 350 350 348 347 347 348 347 345 344
346 347 349 345 345 343 345 346 347 351 348 351 351 353 352 351 350 349 348 347 346 345 345 344 346 349 350 348 348 346 345 345 345 345 348 352 352 351 353 352 349 350 350 348 347 350 346 349 346
346 346 348 347 344 340 341 344 347 350 351 353 353 352 352 352 350 349 348 347 346 346 346 346 347 349 350 350 351 349 346 346 345 345 349 352 352 353 355 351 350 349 351 352 350 350 351 346 343
346 345 346 342 341 339 338 343 341 345 354 354 353 352 352 351 350 348 348 347 346 346 347 347 347 348 350 350 350 349 346 345 345 345 348 352 353 355 354 352 352 353 351 348 349 347 347 349 341
338 345 346 341 339 339 338 341 341 343 351 355 355 354 352 351 350 348 347 347 346 347 347 348 348 348 350 351 350 349 347 347 345 345 346 353 353 355 356 354 354 355 352 348 348 347 344 339 340
336 341 341 341 340 339 339 340 342 342 348 352 356 355 354 351 350 348 348 347 347 347 349 350 349 349 350 351 352 350 347 348 346 345 346 352 354 355 356 353 355 353 353 350 350 350 342 340 337
335 339 339 342 339 340 340 341 341 342 347 351 355 356 355 353 349 347 348 347 347 347 349 351 351 351 352 352 351 349 347 347 346 345 346 350 353 354 357 356 355 354 350 353 349 350 346 341 338
339 338 340 339 338 339 340 340 339 341 348 350 353 355 355 354 352 348 348 347 346 347 349 352 353 354 354 352 351 348 347 345 345 344 347 351 355 357 358 357 354 354 353 355 351 350 347 342 338
336 337 337 338 338 338 338 340 341 340 345 350 351 352 353 354 354 352 349 348 347 348 351 353 355 355 355 353 352 351 348 346 344 344 347 352 355 357 359 357 355 354 355 354 355 351 348 345 337
331 332 333 334 337 341 337 340 340 339 343 347 351 352 352 353 354 353 351 349 348 349 351 354 357 357 357 355 352 351 348 345 344 344 345 351 355 357 358 355 355 357 355 354 355 352 352 343 341
328 328 331 332 334 336 338 340 339 339 340 344 345 350 351 352 353 354 353 349 347 348 350 353 358 359 357 358 354 352 351 345 345 345 346 350 356 357 356 358 358 358 356 353 355 355 354 349 345
327 327 328 330 331 336 336 337 339 338 340 341 342 343 348 351 352 353 352 349 347 347 349 352 358 360 360 360 357 357 352 349 347 347 348 351 352 357 356 356 358 357 357 355 355 356 356 354 346
326 327 327 328 332 333 334 336 338 337 337 339 340 342 344 349 353 353 354 352 349 348 350 352 358 362 362 362 360 359 356 354 357 353 350 351 351 350 354 355 356 358 358 357 355 359 357 355 352
326 326 327 330 329 329 331 336 336 336 337 337 339 341 343 346 351 353 354 353 352 350 352 352 358 363 364 363 362 361 359 357 355 354 352 353 351 349 349 357 357 357 358 359 358 358 357 354 354
329 329 327 328 329 329 329 331 332 334 336 337 338 340 341 344 350 352 353 353 354 352 353 354 357 362 364 364 363 363 363 360 356 356 356 357 354 351 352 354 358 358 357 357 358 356 358 354 354
329 329 327 328 333 332 330 332 332 334 335 336 337 338 339 342 349 352 353 353 354 353 353 355 357 363 365 363 364 364 365 363 360 359 359 357 357 356 355 354 356 358 358 358 358 355 356 356 352
328 330 329 328 329 330 333 332 332 335 335 335 337 338 338 339 346 351 352 352 354 354 354 355 357 361 364 365 364 364 365 364 364 361 361 360 359 360 355 358 357 359 359 358 358 356 355 357 354
329 329 331 330 333 329 331 332 331 332 333 335 335 337 338 339 343 349 350 352 352 354 355 356 357 357 362 362 364 364 364 363 364 364 362 362 362 360 362 361 359 360 359 359 360 359 353 357 357

GFSSGP_925_thetae_045.txt.gz
Theta_e
339 344 349 352 365 365 371 368 362 362 361 357 352 355 358 357 357 359 346 346 347 347 349 349 347 347 347 344 346 345 352 344 347 348 347 349 351 351 352 352 352 352 352 351 351 351 351 350 343
341 349 352 357 374 373 370 361 364 360 354 352 354 355 357 358 349 348 346 346 347 347 352 349 348 347 351 348 345 351 348 347 345 350 345 350 351 352 352 353 352 351 352 351 350 350 350 348 343
349 351 357 364 366 372 369 360 358 355 354 356 357 354 356 354 349 346 345 347 347 351 350 352 349 348 350 346 347 348 346 347 348 345 351 352 351 353 352 352 352 351 351 351 351 350 350 349 345
354 354 358 369 371 364 362 359 356 357 356 354 355 359 349 347 347 346 345 346 347 351 349 350 351 352 348 348 349 348 349 348 350 347 353 353 353 353 353 352 352 351 351 351 351 350 350 349 345
355 356 359 361 361 362 358 356 355 358 357 357 356 355 350 346 347 345 345 346 351 350 346 351 352 352 348 348 351 350 352 350 347 350 353 353 353 354 353 352 352 352 351 351 349 348 347 347 341
360 354 364 365 361 356 355 355 356 357 358 355 354 356 352 346 345 343 343 347 352 350 346 352 352 349 349 352 351 350 351 349 350 349 348 348 348 351 351 351 350 350 351 346 343 343 343 343 341
359 353 355 362 363 360 357 354 357 358 358 357 353 358 351 345 343 340 342 348 352 351 349 351 352 352 351 350 352 351 348 352 351 347 348 346 346 345 347 348 348 347 345 345 345 345 344 342 340
357 348 353 361 365 360 352 353 355 357 358 353 352 358 356 347 339 337 344 348 351 351 350 351 352 350 349 350 352 351 347 351 347 345 346 347 350 347 342 345 347 349 344 342 343 344 342 341 339
354 363 366 363 353 352 350 356 355 353 355 354 352 353 350 341 338 347 348 350 350 352 350 352 350 348 346 345 350 350 346 346 344 343 344 346 349 350 348 347 344 346 344 342 340 343 343 339 342
353 360 361 353 352 350 347 350 357 358 359 358 355 351 347 345 348 349 349 350 350 351 351 350 348 348 348 344 341 340 336 339 347 349 346 347 349 350 349 343 345 345 344 345 341 343 345 340 339
351 360 353 352 350 350 348 348 347 358 362 358 357 353 349 350 349 349 349 349 349 348 348 348 349 348 348 347 338 341 339 346 350 349 344 343 349 349 351 341 342 340 338 344 344 345 347 346 348
352 353 349 348 347 350 350 347 348 357 359 354 353 351 349 350 348 349 349 348 348 346 345 345 348 348 348 346 337 344 346 347 346 346 344 341 334 347 347 345 346 346 344 347 350 349 348 346 343
347 349 348 347 346 350 347 346 350 357 356 353 351 351 350 349 349 348 349 347 347 345 342 345 346 347 346 347 340 346 347 347 348 350 350 348 349 349 349 349 349 348 348 348 349 348 346 343 338
345 347 348 346 347 348 344 347 346 356 353 354 353 351 350 349 349 348 348 347 346 345 342 346 345 346 346 346 343 345 348 347 349 352 348 349 343 350 349 351 350 350 348 345 350 346 346 343 341
344 346 350 350 350 352 348 349 348 354 353 354 354 352 350 349 348 348 348 348 346 345 344 346 344 345 347 346 350 346 347 345 348 348 349 349 350 351 351 351 350 349 348 347 349 348 346 344 344
342 344 345 347 347 348 350 353 350 350 354 355 354 353 352 349 349 348 348 347 347 346 348 346 346 345 346 345 348 346 348 347 346 346 348 350 350 354 350 351 351 350 352 350 349 348 346 345 340
339 345 344 347 344 347 349 350 350 346 352 355 354 353 351 350 350 349 348 347 347 347 348 348 347 344 345 344 347 347 347 348 348 350 347 347 345 353 351 348 348 349 353 349 350 346 346 347 341
340 343 342 346 346 346 342 340 349 348 348 352 353 351 350 352 351 350 350 349 349 344 348 348 348 347 345 346 346 345 345 347 347 348 350 348 347 350 349 349 348 350 349 351 350 342 341 338 340
340 343 343 341 344 343 342 339 351 347 352 356 356 351 350 349 346 350 350 348 345 345 347 345 349 349 348 349 350 350 346 348 348 347 350 351 350 352 352 349 352 351 352 350 346 337 343 338 340
337 342 343 340 339 341 339 339 340 348 355 354 355 352 350 349 347 347 346 347 346 349 347 348 350 350 350 349 350 351 352 348 347 346 348 351 351 353 354 353 353 352 353 350 349 348 347 339 339
334 338 340 340 336 336 340 341 340 348 351 347 352 353 349 349 349 347 345 346 348 351 349 349 347 351 350 350 350 349 352 352 349 347 346 354 352 351 352 354 351 352 354 352 349 347 347 339 340
335 336 339 340 338 342 341 344 339 341 351 353 356 356 350 349 348 347 346 346 347 351 350 348 348 348 352 351 353 352 351 351 351 349 346 345 349 349 352 355 352 352 353 354 350 346 347 340 338
335 334 336 338 339 338 342 342 341 337 340 353 356 353 349 350 348 348 347 347 346 350 353 351 349 350 354 353 353 353 352 352 349 350 347 345 347 348 351 357 353 352 353 353 350 352 352 343 341
333 333 331 336 338 340 335 342 342 340 339 354 354 352 351 352 350 347 348 348 347 351 353 354 352 353 353 354 353 352 354 352 351 348 347 346 348 349 351 357 357 354 354 352 353 354 348 350 346
332 330 330 330 334 337 330 333 333 337 337 340 348 351 349 351 350 349 348 347 348 351 352 355 355 354 355 355 353 356 353 352 349 349 346 347 348 354 352 355 358 356 353 353 355 355 353 345 351
331 330 327 332 333 333 328 331 332 331 333 337 345 349 351 350 351 349 348 348 348 349 352 355 356 355 355 357 356 352 358 353 351 349 347 345 350 351 354 354 358 357 355 352 352 354 355 353 347
327 326 323 323 326 326 327 327 327 329 330 331 335 348 349 349 351 350 349 348 348 349 353 354 357 355 357 357 358 355 352 360 355 349 350 356 348 353 352 353 355 358 355 352 353 357 355 356 355
324 323 323 322 324 326 326 328 329 327 328 330 331 340 346 349 351 352 350 349 348 349 352 354 357 357 357 358 359 359 355 353 361 356 349 348 356 348 355 355 357 354 356 354 352 355 358 356 357
324 324 323 321 322 325 329 329 327 328 329 329 331 332 340 347 351 353 352 350 349 349 351 353 356 359 359 359 358 360 360 357 354 361 355 347 353 356 349 351 358 355 356 355 354 353 358 358 358
327 324 323 324 324 323 323 326 330 331 330 330 331 332 337 344 349 353 352 351 350 349 350 352 355 359 360 361 361 360 362 361 357 357 360 350 352 352 357 357 356 358 358 356 356 358 358 358 356

GFSSGP_925_thetae_048.txt.gz
Theta_e
341 342 347 351 361 364 368 366 361 363 361 358 351 352 357 354 358 358 345 344 344 347 346 350 348 351 349 345 344 349 345 347 351 348 350 350 351 352 352 350 349 350 351 351 350 351 351 349 347
341 348 351 357 371 371 368 361 364 360 357 354 354 355 357 357 350 345 345 344 345 349 348 348 343 343 346 343 350 344 351 348 348 346 350 351 350 352 353 351 351 351 351 351 351 351 345 348 346
349 351 357 362 363 371 369 360 360 357 354 356 357 353 354 354 347 345 346 345 349 349 347 350 346 344 344 344 351 349 345 351 346 350 349 350 352 352 352 352 351 351 351 351 351 350 347 344 340
349 353 356 365 365 364 363 360 356 356 356 354 354 355 348 348 344 345 347 346 351 349 350 348 351 348 345 352 346 351 348 351 349 349 350 350 352 352 352 352 352 352 351 351 351 351 348 346 342
354 354 357 362 362 359 357 357 355 358 357 356 353 353 352 346 346 346 347 350 350 350 350 350 349 345 347 348 351 350 351 348 348 350 351 353 353 353 353 353 352 352 352 351 351 349 345 341 341
357 353 362 365 362 358 357 358 358 358 354 351 351 352 350 346 345 346 346 350 348 349 351 351 350 347 347 351 351 351 349 344 350 352 352 350 352 353 352 352 352 352 351 346 343 342 342 341 339
352 354 358 356 361 361 361 350 359 357 356 355 351 353 348 344 345 345 350 350 347 348 351 352 351 352 351 351 352 349 345 346 351 349 347 347 347 346 347 347 349 348 351 347 343 342 341 339 340
349 350 357 360 360 361 355 357 355 356 357 351 348 353 352 343 344 344 351 351 347 349 350 351 351 350 349 350 351 343 345 350 350 346 343 344 344 344 344 345 346 344 344 345 343 342 341 340 342
344 359 360 362 360 357 353 358 354 352 355 353 351 348 344 342 343 341 348 351 350 350 349 352 350 347 348 350 350 342 345 347 346 347 344 346 348 344 347 344 344 343 345 345 343 344 340 341 343
360 360 358 353 351 351 353 356 356 356 357 355 352 347 342 342 339 340 349 350 351 352 350 350 347 345 344 344 343 337 343 343 343 343 346 349 349 350 348 344 345 344 343 341 341 343 344 340 342
358 358 355 351 350 350 349 356 356 358 360 355 354 345 339 338 339 347 348 350 351 351 350 348 344 344 341 337 335 335 339 345 345 340 339 347 349 348 350 342 344 342 341 344 343 345 346 346 347
353 352 351 348 347 349 350 346 359 358 356 352 349 341 337 337 347 348 347 349 350 351 350 346 344 346 344 332 332 333 341 348 345 347 342 347 346 349 348 342 343 341 341 347 347 348 346 345 344
350 351 351 349 347 348 345 348 356 358 353 350 347 343 342 346 348 348 348 348 349 349 349 346 346 346 345 338 334 340 344 346 346 346 342 346 342 345 346 344 347 347 347 348 347 347 343 341 341
345 348 347 349 345 347 349 347 351 357 353 351 349 350 349 348 348 348 348 348 347 346 347 345 347 346 346 345 339 345 346 346 347 348 348 345 345 349 349 350 348 348 347 346 347 348 345 346 342
335 342 346 348 347 349 348 349 363 356 354 353 351 350 350 348 347 348 348 347 347 344 345 345 347 346 346 347 344 345 347 348 347 348 348 347 346 349 349 348 348 348 347 347 350 345 345 343 342
336 338 347 350 349 350 347 351 360 355 354 355 352 350 350 348 347 348 347 346 346 344 342 344 346 346 345 347 348 348 348 346 348 350 348 349 349 348 350 351 349 349 350 350 350 348 345 343 339
331 337 341 349 349 351 349 349 359 355 354 355 352 351 351 348 347 348 347 346 345 344 342 344 345 346 346 348 349 346 347 348 348 350 349 348 349 352 349 348 349 349 349 349 349 347 347 345 342
331 339 339 342 349 350 352 347 356 355 355 355 353 352 351 349 348 347 347 346 347 345 343 344 345 346 347 346 347 345 346 346 348 349 349 348 349 349 348 350 348 346 352 348 349 348 345 343 342
330 335 338 340 342 350 348 350 350 356 355 356 355 353 352 350 348 347 347 346 346 347 346 345 345 346 348 346 347 346 345 346 346 347 350 349 347 345 346 348 349 350 350 350 348 340 340 338 340
325 329 336 339 339 342 347 349 349 355 355 355 355 354 353 351 349 349 348 347 346 347 347 346 346 345 346 344 344 345 344 345 345 347 347 350 349 348 348 347 350 348 351 349 349 342 345 338 340
325 327 329 339 338 337 343 345 351 349 353 353 353 352 351 349 350 349 349 348 348 346 347 347 347 345 345 345 345 344 342 343 344 347 347 349 350 351 351 351 347 351 352 350 349 348 346 338 342
326 326 328 334 338 340 339 347 343 349 353 353 353 352 351 349 348 349 349 349 348 345 347 347 348 347 347 347 346 346 348 350 346 346 347 347 351 352 353 351 351 350 352 352 350 347 348 339 340
327 327 328 332 336 337 338 342 342 348 358 353 349 346 345 349 348 346 348 348 346 346 347 347 349 349 348 348 348 348 349 350 351 348 348 347 351 352 352 350 352 351 352 351 351 348 346 341 338
329 330 331 331 332 338 337 339 340 353 357 353 348 347 346 349 348 346 346 345 346 347 347 348 351 350 349 349 349 348 348 348 350 350 350 348 347 351 350 350 353 352 350 352 352 351 350 346 342
330 329 334 333 334 335 333 333 336 348 352 351 349 350 349 349 348 347 346 344 346 349 348 348 349 353 351 351 350 349 349 349 347 349 349 349 347 348 348 349 353 356 353 351 351 352 353 350 345
330 329 331 337 332 331 327 334 334 330 335 350 349 350 351 345 346 347 346 345 345 348 350 349 349 351 353 351 351 351 351 350 349 349 350 347 346 346 346 348 350 356 356 353 352 353 353 350 346
330 330 324 322 322 325 327 327 326 326 326 348 351 352 352 348 346 347 346 346 346 348 351 351 350 349 352 352 352 352 352 351 351 351 349 348 347 345 346 348 351 354 357 355 352 353 354 355 351
328 325 327 318 328 324 323 324 330 326 325 325 350 353 352 348 349 346 346 347 346 347 350 352 351 350 351 353 352 352 353 354 352 351 351 348 346 348 345 350 351 353 354 356 353 352 353 355 353
325 327 325 324 318 325 322 325 321 324 324 324 335 350 350 348 350 346 347 347 346 347 349 352 352 352 352 352 354 353 352 351 355 356 352 349 348 350 350 351 352 353 354 355 355 352 352 356 355
332 321 321 323 320 318 320 325 325 323 324 324 325 346 348 348 348 346 348 347 347 347 349 351 353 353 352 353 354 355 355 353 351 355 358 355 350 347 351 353 353 355 355 356 356 354 352 353 357

GFSSGP_925_thetae_051.txt.gz
Theta_e
348 348 345 349 362 365 366 366 362 364 362 358 348 353 353 354 356 356 344 343 346 348 350 349 349 351 350 351 343 345 350 351 351 350 350 351 351 351 351 351 352 352 351 349 351 350 348 347 347
347 348 350 355 370 368 367 361 364 360 357 353 354 354 355 356 348 347 345 344 345 348 350 347 349 349 350 350 346 350 352 349 349 351 347 350 351 352 352 352 351 350 351 351 346 347 348 348 347
346 350 355 359 363 369 367 362 359 357 355 355 356 351 352 354 345 344 344 346 346 348 349 347 348 350 351 350 350 350 351 350 346 348 350 352 352 352 352 352 350 351 351 351 346 343 349 348 345
349 351 356 364 365 362 362 360 358 357 356 353 352 354 349 347 344 345 346 348 346 349 343 346 349 351 352 349 351 351 351 350 350 350 347 351 351 351 351 351 351 352 351 346 349 347 349 343 341
350 353 357 362 362 359 359 357 357 357 357 355 351 353 351 345 346 345 348 350 347 349 348 348 349 351 352 351 351 351 351 349 350 351 353 353 353 353 352 352 352 352 351 352 346 344 345 341 341
357 353 360 363 360 357 358 356 359 358 354 350 351 351 350 345 346 347 350 349 348 349 348 349 348 351 351 351 351 351 350 350 350 349 349 350 353 353 353 352 352 351 350 350 347 342 340 340 342
350 352 357 357 360 360 358 352 358 357 354 353 347 353 348 345 346 347 350 349 349 348 348 349 350 351 351 351 351 350 350 351 351 351 351 351 353 353 353 352 352 351 351 348 341 339 339 340 342
350 352 358 357 359 361 354 352 355 357 356 347 346 353 352 344 345 347 350 350 350 349 348 350 351 350 347 351 351 351 349 350 350 350 351 350 349 349 346 345 348 349 347 346 341 340 340 341 343
344 356 360 357 359 358 354 358 356 351 353 351 348 347 344 345 345 350 351 351 352 351 351 350 351 344 345 349 350 351 349 351 349 347 343 342 342 344 345 345 346 345 344 344 344 342 342 342 343
357 358 356 353 354 354 357 356 356 356 355 352 348 344 343 344 342 348 349 349 351 352 351 351 350 341 346 348 350 347 349 347 345 343 347 348 347 346 345 344 346 345 344 343 343 342 339 342 343
356 359 356 352 351 349 352 353 355 357 357 352 349 345 343 343 341 346 350 349 350 351 351 350 347 340 341 343 344 343 344 344 343 344 346 348 346 346 344 343 343 341 342 343 343 345 346 344 342
357 356 355 348 349 350 349 351 358 357 356 349 345 343 342 342 339 347 350 350 350 350 350 348 344 339 337 337 338 338 341 343 345 341 341 347 348 348 347 342 343 339 342 346 346 346 346 342 346
351 351 352 353 349 346 347 348 358 357 353 345 343 343 343 340 339 347 349 350 349 349 348 347 341 337 335 334 336 334 342 346 346 346 340 342 346 346 345 342 345 344 346 347 345 345 342 340 340
343 346 347 348 349 346 347 352 357 356 350 345 343 342 340 337 346 346 348 349 349 348 348 345 340 337 338 333 333 334 343 346 346 345 340 345 343 345 348 347 346 347 346 346 347 347 343 339 338
333 338 337 339 347 348 348 348 356 354 350 347 342 340 337 342 347 347 347 348 349 348 347 344 340 339 340 336 335 339 344 345 346 347 347 345 346 348 349 347 346 347 347 346 348 347 346 343 337
332 331 336 337 347 347 346 351 360 353 351 350 345 340 339 342 347 347 347 347 348 348 347 344 342 343 342 342 341 342 345 346 347 347 348 346 345 349 348 349 348 347 347 347 348 348 342 343 337
322 333 338 338 346 350 348 350 359 353 351 351 350 349 347 346 347 347 347 347 347 346 346 345 345 345 344 345 346 344 344 347 346 347 348 348 347 349 349 348 348 348 349 347 347 348 347 344 340
323 333 335 336 348 350 350 348 360 355 354 353 351 351 351 348 347 347 346 346 347 345 345 345 344 345 345 345 346 348 347 348 346 348 350 349 350 352 347 347 348 349 349 349 347 348 346 345 345
327 334 337 337 338 350 351 350 362 356 355 355 352 350 350 349 346 346 346 346 345 345 342 344 344 345 345 346 347 349 347 347 348 349 350 350 351 352 348 349 346 344 350 349 348 341 341 338 341
321 322 328 332 335 348 350 352 358 358 356 354 353 351 351 349 347 345 347 346 345 344 343 342 343 343 345 346 348 347 345 346 346 347 349 349 350 349 348 346 348 348 349 350 349 340 339 339 339
320 321 323 329 336 340 342 351 350 359 356 354 352 351 349 350 348 346 346 347 345 345 344 343 343 343 343 345 347 347 346 344 346 346 347 347 349 348 349 347 347 350 349 349 348 346 344 338 340
320 321 323 327 332 339 337 345 351 357 359 356 354 353 351 350 348 346 346 346 346 345 345 344 344 344 344 346 347 346 345 345 344 345 346 346 349 349 349 350 349 349 349 351 348 348 347 339 340
324 322 324 325 328 334 334 338 345 353 361 358 355 353 352 350 349 348 346 346 346 345 346 346 345 344 345 346 346 345 345 343 343 342 343 346 347 350 350 351 351 348 350 351 351 349 347 340 340
325 326 325 327 327 334 332 336 336 353 353 356 354 353 352 350 349 348 347 347 347 345 346 346 346 345 344 345 346 344 346 343 342 342 341 346 347 349 350 351 352 352 350 351 350 350 346 344 338
326 324 327 331 332 334 329 334 336 343 345 348 352 352 350 348 348 347 348 347 348 346 346 346 346 346 346 345 346 346 346 345 344 342 343 346 347 348 351 352 352 352 352 350 350 352 349 348 345
326 325 328 333 333 336 328 333 334 339 342 344 347 349 348 345 343 347 345 348 348 347 345 346 347 347 347 347 347 347 347 346 346 344 344 348 349 348 346 350 351 351 353 354 351 351 351 351 350
327 330 326 326 320 327 330 326 328 335 342 344 346 347 346 346 344 346 346 346 345 346 345 346 347 348 348 348 348 348 348 347 347 346 345 345 348 348 347 346 347 348 349 355 354 351 350 351 352
328 325 329 322 329 326 323 326 334 327 329 344 347 348 346 345 345 346 346 344 343 345 346 346 347 348 349 348 348 349 348 348 348 348 347 345 348 348 346 345 346 347 349 352 355 353 350 352 352
325 329 327 327 324 334 324 325 320 326 326 335 341 344 346 346 347 345 344 345 344 345 347 347 346 347 349 350 349 349 349 349 349 349 348 348 347 348 347 346 345 347 349 351 354 355 353 351 353
319 325 320 331 328 318 328 331 321 321 321 331 341 344 346 346 348 346 343 345 345 344 347 348 347 347 347 350 350 350 350 350 350 350 349 348 347 348 347 346 348 347 350 351 353 354 355 353 352

GFSSGP_925_thetae_054.txt.gz
Theta_e
348 347 346 348 363 363 364 364 361 363 360 354 347 352 353 354 355 355 343 344 344 343 346 348 348 350 350 350 349 351 351 351 349 351 351 351 351 350 350 351 350 349 350 351 348 347 348 346 346
347 346 348 356 367 365 363 360 363 360 357 350 352 353 354 356 346 345 344 346 345 345 345 348 347 349 350 350 349 351 351 351 351 350 349 350 350 351 348 351 351 351 349 348 350 348 348 348 348
347 348 355 361 362 369 368 362 359 357 353 352 354 350 352 353 345 344 344 347 346 348 345 348 347 349 349 351 351 348 351 351 351 349 350 348 351 351 352 352 350 347 345 346 348 348 347 346 342
348 350 354 362 364 362 362 359 357 357 355 352 351 354 348 346 344 344 347 347 348 348 347 349 350 351 350 351 351 346 351 351 352 351 351 352 351 351 351 351 352 345 343 343 347 349 346 346 344
348 353 355 360 362 360 358 357 357 358 357 353 350 353 350 344 344 346 347 347 349 348 349 349 349 353 348 350 352 346 351 350 350 348 349 351 350 351 352 351 351 352 346 344 347 349 342 343 343
359 350 357 359 359 356 356 355 359 357 353 351 349 349 350 345 346 348 347 348 347 343 347 349 349 352 351 351 351 350 350 351 350 348 348 349 350 351 352 351 351 351 350 349 341 339 340 342 342
355 350 355 356 359 359 358 353 359 356 353 352 347 353 349 345 346 349 348 349 346 346 347 349 349 350 351 350 351 350 350 349 347 348 348 349 350 351 352 352 352 350 348 345 343 341 339 342 342
351 349 356 359 361 360 355 354 354 356 354 346 345 351 353 344 347 347 348 347 347 348 348 348 350 349 349 349 351 350 350 350 351 350 349 352 353 352 347 345 349 349 342 341 345 339 340 342 344
343 352 356 357 359 358 353 355 355 350 350 349 347 346 345 345 347 348 349 348 347 348 348 348 349 347 348 349 350 350 350 351 351 351 351 348 347 347 346 344 346 348 348 343 341 341 340 341 342
355 353 353 351 353 356 357 358 355 355 353 350 348 345 344 345 349 346 347 348 349 349 349 348 349 344 348 348 351 349 350 350 350 346 341 342 343 344 344 344 345 345 343 343 342 341 342 342 342
357 358 354 352 351 351 354 355 354 356 356 350 349 347 344 346 348 345 345 345 347 349 350 349 348 343 346 346 349 348 348 347 345 346 347 347 345 345 343 343 344 343 343 342 343 343 341 342 343
357 355 356 349 349 348 352 353 357 355 354 347 344 344 344 345 348 344 345 346 347 347 350 349 348 342 344 343 344 345 344 344 343 344 343 346 346 345 342 342 342 338 344 345 344 345 344 344 344
355 352 351 353 352 347 347 355 358 356 349 345 343 344 344 343 346 346 346 347 348 349 350 347 346 340 340 340 340 342 343 342 343 342 343 347 347 346 344 343 344 344 345 345 344 343 340 340 342
341 347 347 346 346 348 346 349 356 353 345 345 343 344 344 343 343 348 349 348 349 349 347 346 344 338 337 336 336 338 341 344 346 345 340 340 345 345 343 343 345 346 346 345 345 343 342 339 338
332 333 334 336 341 347 345 349 358 349 345 345 345 344 344 343 344 348 349 348 347 346 345 345 342 337 335 333 334 335 340 345 346 345 342 345 345 346 346 346 346 347 346 345 344 346 343 340 338
327 330 338 337 340 346 346 352 358 348 345 346 345 345 344 341 343 346 348 348 348 347 345 344 342 337 336 335 333 334 339 344 345 346 346 345 344 348 348 347 347 346 345 346 345 346 343 340 337
319 336 338 341 340 348 348 350 357 350 345 345 345 344 342 340 345 346 347 348 348 347 345 344 342 337 336 336 336 337 343 345 346 346 346 347 346 345 348 348 347 346 347 347 345 346 344 341 338
325 327 335 339 339 347 349 351 357 352 347 344 343 342 340 340 345 346 346 347 348 348 347 345 342 338 338 338 343 344 342 342 345 346 347 346 347 347 349 346 347 347 346 346 345 347 346 345 341
324 330 334 334 335 349 349 352 360 354 351 349 345 342 340 339 341 345 346 346 347 347 347 347 344 340 343 343 344 346 346 346 347 345 347 348 348 349 350 347 348 348 347 347 346 342 343 340 343
321 322 328 330 334 347 347 350 360 356 353 351 350 349 347 345 343 345 346 346 346 345 345 346 345 341 343 343 344 345 347 347 347 347 348 349 348 349 349 347 347 344 347 347 347 343 337 339 340
319 320 321 329 330 337 346 348 358 358 354 352 350 349 349 349 347 345 345 346 345 346 343 344 345 342 343 343 344 345 347 346 346 347 348 349 349 349 349 347 348 347 348 348 348 339 343 339 339
316 320 323 322 327 332 339 344 345 360 359 356 353 351 349 348 347 345 345 345 345 344 344 344 344 344 342 343 343 345 347 346 345 345 346 347 349 349 348 348 347 347 349 348 347 346 345 337 339
317 319 320 321 326 327 328 336 334 352 363 358 355 352 350 348 348 347 345 345 345 345 344 343 344 343 343 342 343 344 346 346 345 344 345 346 346 348 349 349 350 349 349 349 349 348 346 345 338
321 323 321 323 322 329 326 332 335 352 356 358 355 353 351 349 347 347 345 344 345 345 344 344 343 343 343 343 344 344 344 345 345 343 343 344 345 345 347 349 349 350 349 349 348 350 349 346 338
321 321 323 326 329 330 327 328 332 332 346 352 355 354 352 350 348 348 346 344 345 345 344 344 344 343 343 343 344 344 344 344 345 343 342 342 342 344 346 348 350 350 351 351 349 350 350 346 343
322 321 322 327 328 331 326 331 332 330 336 347 348 351 350 350 349 348 347 346 345 345 345 345 345 344 344 343 344 344 345 344 343 343 342 339 339 340 344 346 348 350 351 352 351 348 350 350 347
323 324 321 324 322 326 331 327 328 329 333 339 342 345 350 350 349 348 348 347 346 346 345 344 345 344 345 344 344 345 345 344 344 344 344 341 338 340 344 346 346 347 350 350 353 352 349 350 350
321 322 326 322 332 327 326 326 334 331 333 337 341 343 346 348 348 347 347 347 347 347 346 344 345 345 345 345 345 345 345 345 344 344 345 345 342 342 345 347 348 346 348 349 351 354 353 351 350
320 322 325 324 324 328 328 328 323 330 331 332 339 342 344 346 347 344 343 345 346 347 347 344 345 345 345 345 346 346 346 345 345 346 346 345 345 343 344 346 346 346 346 346 348 350 354 353 351
319 321 322 330 329 324 324 328 322 325 326 328 329 340 343 345 344 344 343 343 344 346 347 345 345 345 346 346 346 347 346 346 346 346 346 346 346 345 343 346 347 346 344 345 347 349 352 354 354

GFSSGP_925_thetae_057.txt.gz
Theta_e
347 347 346 349 364 364 367 364 360 362 360 351 348 350 353 354 355 360 345 346 346 347 350 349 350 350 351 349 348 350 351 350 350 350 351 350 348 347 351 351 350 350 350 349 348 348 347 348 349
347 347 348 355 365 369 366 360 362 357 355 349 352 352 354 357 348 346 346 346 345 347 350 348 349 348 350 350 349 351 351 347 350 351 350 351 347 348 351 351 351 350 351 351 349 349 348 348 349
348 347 357 362 364 370 368 361 360 354 351 350 356 351 353 354 346 345 346 346 345 348 350 348 349 346 348 351 351 350 351 351 351 350 350 350 351 347 352 350 345 345 348 349 349 348 348 346 346
349 350 354 362 362 362 363 359 357 356 353 352 352 355 348 347 344 345 347 346 345 348 349 348 351 346 352 351 347 351 350 351 351 347 347 349 350 352 348 345 346 347 349 349 349 349 348 348 347
350 355 360 363 361 359 358 357 357 358 357 354 351 353 351 345 345 347 348 346 346 346 349 348 351 346 351 352 346 351 351 351 350 349 349 349 349 350 350 349 349 347 349 349 350 347 347 345 344
358 353 361 363 360 357 356 356 358 358 355 352 352 351 351 346 347 348 348 346 346 348 347 348 352 346 351 352 346 351 351 350 351 350 348 349 348 350 350 351 351 350 350 348 347 342 342 343 343
355 358 359 357 360 360 359 355 358 357 356 353 348 353 350 347 347 348 348 348 347 347 347 348 353 350 351 351 350 351 351 350 350 351 347 347 347 348 349 351 350 348 348 347 345 342 341 342 342
355 351 356 358 361 361 356 354 356 355 356 348 347 354 353 347 347 348 349 349 346 346 347 348 351 348 348 349 351 351 351 351 351 350 348 349 350 352 343 345 344 347 348 347 346 340 341 343 341
343 357 361 356 357 359 354 357 355 350 351 349 348 348 346 346 348 347 350 349 346 346 347 347 350 349 350 350 349 351 351 350 351 350 348 349 351 349 347 343 343 341 343 347 343 340 342 343 341
355 361 358 349 353 357 357 358 356 355 353 352 350 346 345 346 347 347 348 347 345 348 347 347 348 348 349 348 350 351 351 350 350 351 346 348 347 348 348 346 343 342 341 343 342 341 341 345 347
355 363 355 352 351 356 358 358 355 357 358 353 352 349 346 346 346 345 345 344 344 347 346 347 348 349 349 349 351 350 351 350 349 344 342 344 346 350 348 347 345 344 343 346 344 345 346 346 346
360 357 357 354 351 351 354 353 358 356 355 351 349 347 346 347 346 344 344 344 345 347 347 347 348 348 350 350 349 350 350 350 350 347 347 346 349 345 345 347 340 341 345 346 346 349 346 348 347
356 355 353 353 352 351 350 354 358 357 353 349 348 346 346 346 344 342 344 345 345 346 349 347 349 348 349 350 350 350 350 349 349 344 340 346 348 348 344 343 343 345 345 345 343 344 343 341 344
346 350 352 350 350 349 352 350 356 355 350 349 348 347 346 345 343 342 344 345 346 347 348 348 349 348 348 348 347 348 349 348 347 345 343 346 347 345 345 343 346 347 345 343 344 343 344 342 344
337 344 340 344 346 351 347 352 355 352 350 351 349 347 345 345 343 343 343 345 347 348 348 348 348 347 345 343 341 344 346 347 348 348 342 339 344 345 345 346 348 349 346 344 342 345 343 341 343
327 334 349 346 344 344 348 356 355 351 351 351 350 348 346 344 344 344 344 345 346 347 348 348 346 345 345 344 337 342 343 346 348 347 345 343 345 347 346 347 349 347 346 344 342 344 346 343 343
329 327 338 347 342 349 350 355 357 351 352 351 350 349 347 345 344 346 346 346 346 346 348 348 347 345 344 338 339 336 338 343 347 346 346 346 346 345 348 348 349 346 349 348 347 347 344 344 342
326 328 337 347 347 345 351 353 358 351 352 352 350 349 348 346 344 345 347 347 348 347 347 347 346 346 341 343 338 342 341 343 345 346 346 346 347 347 347 348 347 347 346 345 346 346 347 345 341
327 330 330 342 344 347 349 349 360 355 352 352 350 349 349 347 343 344 346 347 348 349 348 347 347 344 343 344 344 345 345 346 347 345 346 346 347 347 348 348 347 347 345 343 345 346 345 346 339
323 328 333 333 337 346 348 349 354 358 355 352 351 349 349 346 344 345 346 347 348 348 348 348 347 345 341 344 345 347 348 348 350 347 345 347 347 348 349 347 348 347 347 345 346 342 342 343 341
321 324 328 333 335 337 346 348 351 358 356 354 349 347 346 345 345 346 347 347 347 348 349 348 348 347 341 344 346 345 346 346 348 349 348 347 348 348 349 348 348 345 346 346 348 342 341 343 344
319 320 324 327 329 342 342 353 350 354 361 357 355 351 347 345 343 343 346 347 347 348 348 348 348 347 346 341 346 346 347 348 348 350 349 347 347 348 349 349 347 348 349 347 349 346 344 340 343
318 318 318 323 329 330 334 347 347 350 362 360 357 354 352 349 346 345 344 345 346 347 347 347 347 347 346 345 345 347 347 348 349 348 347 347 347 348 349 349 349 349 348 347 348 347 346 344 343
318 321 320 319 322 332 335 337 343 347 355 358 357 355 354 352 351 349 346 345 345 346 347 346 346 346 346 345 344 345 347 348 348 348 348 349 350 349 348 349 349 350 351 348 349 348 348 346 344
320 320 324 325 322 329 333 336 337 339 344 350 355 356 354 353 351 351 350 348 347 347 347 347 346 346 346 346 346 344 345 345 346 348 347 347 348 350 349 347 349 351 350 350 349 349 350 349 346
322 323 323 327 323 320 328 335 336 334 334 341 347 351 353 354 352 351 350 349 349 348 348 347 346 347 346 345 346 345 344 347 346 347 346 347 346 347 349 345 346 348 349 350 351 353 353 352 350
324 325 323 323 327 326 322 329 332 334 336 336 338 349 353 354 353 352 351 349 349 348 349 348 348 347 346 346 346 347 346 346 347 346 345 347 345 346 346 341 343 345 347 349 351 354 353 351 351
324 324 326 325 325 327 325 327 330 336 336 337 337 345 350 352 353 352 351 350 348 348 348 348 348 348 347 346 346 347 347 346 346 346 345 345 346 343 344 340 344 346 346 348 351 354 355 355 353
324 325 326 327 326 326 326 327 330 332 338 338 338 340 344 349 352 352 352 350 349 348 348 348 348 348 348 347 347 347 348 348 348 348 347 345 343 344 342 340 342 346 348 349 351 351 355 357 356
320 324 325 329 331 330 329 326 329 333 335 336 337 340 341 345 350 351 351 350 350 350 349 348 348 348 348 348 347 347 348 348 348 348 348 347 344 344 344 343 343 346 348 349 352 352 352 355 356

GFSSGP_925_thetae_060.txt.gz
Theta_e
346 345 349 350 364 366 368 365 359 362 357 353 350 351 353 355 359 366 349 350 349 349 348 349 347 350 350 348 351 351 350 350 350 350 350 351 351 351 350 351 344 349 349 349 349 348 350 349 348
347 348 349 357 367 373 370 363 363 357 354 351 352 351 354 358 350 350 350 349 349 349 347 350 347 348 351 351 351 352 352 350 350 351 350 349 351 351 350 351 351 347 349 350 350 348 348 349 349
348 350 357 364 369 371 370 363 360 355 352 353 356 353 355 357 349 349 349 348 348 346 345 351 348 348 351 351 351 351 352 352 352 351 351 352 352 351 347 350 349 350 350 350 350 349 348 348 349
349 352 358 368 366 364 362 361 357 357 352 352 354 358 352 349 348 348 348 348 347 345 344 349 348 348 353 351 352 352 352 352 349 351 350 351 348 348 350 350 350 350 350 350 350 350 346 346 347
352 357 366 366 363 359 361 358 357 358 355 355 354 358 353 347 347 348 347 347 346 344 345 351 347 352 352 348 351 351 352 352 348 350 349 348 350 350 348 349 349 350 350 350 347 348 347 345 346
359 359 364 364 361 359 359 358 359 358 357 355 356 356 353 346 347 348 347 345 343 343 343 350 348 352 352 350 352 352 352 352 352 351 350 348 350 349 351 352 352 350 349 350 347 346 344 343 341
360 361 364 359 360 362 361 358 359 360 358 356 353 359 353 348 347 347 345 343 343 342 344 349 347 351 353 350 351 351 352 353 352 350 347 348 350 352 351 351 350 349 349 347 348 343 342 341 341
359 355 360 359 363 364 358 359 357 358 359 352 351 358 357 349 348 346 344 343 343 342 344 348 346 347 352 347 352 352 352 352 351 348 347 349 349 344 342 341 347 349 348 347 346 342 341 341 342
352 360 362 357 358 362 357 361 357 354 356 353 352 352 350 348 348 345 345 343 344 343 344 347 345 346 348 349 350 349 351 352 351 349 346 348 347 347 347 342 347 349 349 345 341 342 341 340 341
357 362 359 352 355 357 357 360 359 358 357 356 353 350 348 348 348 346 345 344 343 342 343 345 344 346 348 346 349 349 348 348 349 349 350 348 349 349 347 344 340 346 347 345 341 341 345 347 345
355 361 355 353 355 356 357 359 357 358 360 356 357 353 349 348 349 347 344 343 342 342 342 344 345 347 347 347 348 348 348 348 349 351 349 349 349 347 348 346 347 346 347 345 346 348 347 347 345
353 353 356 354 352 356 358 357 358 357 357 354 353 351 349 350 348 346 344 343 341 341 342 344 346 347 348 348 348 348 347 347 347 348 352 351 350 349 348 346 347 348 348 350 347 346 349 349 349
348 352 354 353 352 352 352 355 358 358 356 352 351 350 350 350 346 345 344 342 341 342 342 344 346 348 349 349 348 347 347 348 348 350 349 350 350 350 348 348 349 348 349 347 347 346 346 347 349
339 341 348 352 354 352 354 353 356 357 354 354 352 351 350 349 345 344 344 341 342 342 341 343 346 347 349 350 350 349 349 350 350 349 348 353 351 351 349 350 349 348 349 347 346 345 343 344 345
334 342 342 346 353 354 352 355 355 356 354 355 353 351 349 348 345 344 344 342 343 342 343 343 346 347 349 350 351 350 349 348 349 349 350 349 352 353 351 350 350 349 350 350 349 348 346 339 342
328 331 339 345 350 351 351 356 354 355 356 356 354 352 350 348 345 344 344 342 343 343 344 344 343 345 348 348 350 347 348 348 348 350 350 349 352 353 351 349 350 351 350 347 346 340 342 340 341
325 329 333 353 350 351 352 355 357 354 356 357 355 352 350 349 346 343 343 343 343 345 345 345 344 344 345 347 347 347 348 350 350 351 351 352 353 354 353 351 351 348 350 346 346 345 344 341 342
326 328 332 348 351 351 354 355 357 355 356 357 356 353 351 351 349 344 343 343 344 346 347 346 344 344 345 345 346 346 347 349 350 351 351 353 353 353 354 353 352 350 347 347 347 347 345 344 344
326 328 330 341 348 352 353 353 359 356 356 357 357 355 352 351 348 346 345 344 343 345 347 347 345 345 346 345 344 345 347 349 350 350 352 354 353 354 355 352 352 351 348 347 350 350 349 341 338
323 329 332 332 343 351 352 352 351 358 355 356 357 356 353 351 349 347 347 345 344 345 346 347 347 347 347 343 343 344 347 348 349 351 353 354 354 355 354 354 353 350 349 350 351 349 345 345 342
322 324 329 332 335 342 350 353 352 353 356 354 354 354 353 352 351 348 348 346 345 345 347 348 348 347 348 342 344 348 350 351 353 353 351 354 355 355 355 355 354 350 349 350 350 348 345 344 345
322 321 322 329 334 341 345 356 352 351 358 357 355 355 354 352 350 349 348 347 346 346 348 349 349 349 349 345 343 349 349 347 347 349 348 351 355 355 356 356 355 353 350 352 349 348 346 346 343
321 321 321 322 330 334 340 350 348 349 355 359 357 354 353 352 350 349 348 348 347 346 348 350 351 351 349 348 344 347 348 344 346 348 351 353 356 356 355 357 357 353 351 352 352 351 349 343 342
322 321 321 321 321 330 335 342 347 349 350 352 356 354 353 351 350 349 347 348 348 347 347 349 352 353 352 352 348 347 347 346 346 350 350 350 350 353 356 357 357 357 353 352 352 352 353 350 348
322 323 326 325 322 320 328 336 340 342 346 347 351 354 354 354 352 350 349 347 349 348 348 349 352 354 353 352 351 347 348 349 350 351 349 348 348 349 351 356 358 356 357 356 353 353 354 353 351
324 325 326 328 326 323 322 329 335 337 339 344 347 352 354 355 354 353 351 348 347 349 349 349 350 353 353 352 352 350 350 349 350 351 349 349 347 347 349 355 355 356 356 357 356 354 353 354 353
327 327 325 326 327 327 324 323 328 334 337 339 342 347 350 352 353 354 354 352 350 348 349 350 351 353 352 351 353 353 351 350 348 349 350 349 349 347 348 351 355 354 354 356 356 354 356 356 354
326 327 327 327 329 331 329 327 324 333 337 338 340 340 346 349 352 353 354 353 352 350 349 350 350 352 352 351 352 352 352 352 350 350 351 351 349 351 348 350 351 351 352 355 357 355 356 358 356
325 327 328 327 327 329 330 328 327 328 331 337 338 340 341 348 352 353 353 352 352 351 349 350 351 351 352 351 351 351 351 351 352 352 353 353 353 351 353 351 350 349 353 355 356 356 354 357 358
323 326 327 330 331 328 330 329 327 328 329 333 337 339 340 342 348 352 352 352 352 352 350 350 350 351 351 351 353 352 352 351 351 353 352 354 354 353 354 353 352 349 350 353 356 356 352 355 356

GFSSGP_925_thetae_063.txt.gz
Theta_e
343 344 349 350 366 367 371 365 360 360 359 354 352 354 358 357 360 370 350 351 350 351 349 351 350 352 350 351 352 349 350 352 352 352 352 350 351 352 352 349 352 349 350 349 349 350 349 349 351
347 348 351 360 372 377 370 361 362 358 355 353 351 353 356 360 353 351 352 350 349 349 348 348 346 349 352 352 351 352 353 351 350 352 351 349 351 353 352 351 349 349 351 350 349 350 346 348 350
350 350 360 367 371 374 372 363 361 356 353 354 357 353 357 356 352 351 351 350 349 346 345 349 347 350 352 351 352 352 350 350 350 352 352 352 349 348 350 350 349 350 351 349 350 348 348 350 348
350 353 360 372 369 364 366 360 357 353 354 354 354 359 354 351 350 350 350 349 346 346 345 348 347 352 352 352 352 352 353 352 352 352 353 352 352 351 351 351 351 350 351 350 349 349 349 348 349
351 359 369 369 365 360 356 358 355 356 356 355 356 360 357 349 350 349 349 347 344 345 346 350 350 353 353 351 353 353 353 347 348 348 352 352 352 350 350 350 351 350 350 346 349 350 350 349 349
359 360 370 370 362 359 358 358 356 356 356 356 358 358 356 350 349 349 348 348 343 343 345 346 351 353 352 350 351 353 353 353 353 353 352 352 352 353 353 352 350 350 350 349 348 346 349 349 348
362 365 369 364 360 362 361 358 359 358 358 358 355 363 354 350 348 348 348 344 342 342 345 347 351 352 352 352 353 353 353 352 352 352 353 352 352 352 351 350 350 349 347 349 342 343 343 341 344
359 363 361 363 362 367 359 358 356 359 358 353 355 362 358 350 348 347 346 344 341 343 344 345 347 351 347 352 352 353 353 354 352 350 348 344 342 341 343 346 349 349 348 349 343 342 341 341 340
354 363 364 360 360 365 357 360 357 355 357 355 354 355 352 349 348 347 343 343 342 342 344 343 345 349 348 351 352 351 353 350 349 346 343 346 347 348 349 342 350 349 348 345 341 340 343 340 340
359 365 363 355 357 363 358 359 359 358 357 356 355 353 350 349 348 346 343 344 342 341 342 342 344 345 346 346 351 351 350 348 349 347 351 351 348 349 345 343 345 346 344 340 340 343 344 347 347
354 364 357 356 357 356 358 359 356 357 357 356 357 354 350 349 348 345 343 344 341 340 342 341 344 345 344 347 349 347 349 346 348 348 348 346 346 346 345 348 347 348 347 346 346 346 348 350 347
352 351 354 356 356 355 357 355 356 358 357 353 354 353 351 351 349 346 344 343 341 340 341 341 344 346 345 344 346 346 346 344 346 348 350 350 350 349 348 348 347 348 348 346 346 347 347 348 346
348 349 354 354 353 355 356 354 355 356 354 353 353 353 351 351 348 346 344 343 341 341 341 342 344 347 349 349 348 346 344 344 347 349 350 350 350 348 348 347 347 348 346 344 343 344 346 347 347
339 344 350 354 354 353 353 352 354 356 355 355 354 354 351 351 348 346 345 342 341 340 341 343 345 348 348 348 348 346 344 349 347 349 349 353 351 349 348 348 347 348 346 347 347 345 344 345 346
336 340 343 348 354 354 352 356 354 356 355 357 355 354 351 349 348 346 345 342 342 340 340 343 345 347 349 350 349 346 346 348 348 350 353 352 353 353 351 349 347 348 348 349 346 342 340 341 344
333 336 342 345 350 353 354 359 351 356 357 358 355 354 353 350 348 347 346 342 342 341 340 343 343 347 349 350 350 348 346 347 348 348 351 352 353 353 350 349 349 347 347 346 346 343 344 339 342
328 335 338 340 343 350 355 358 351 354 356 358 356 354 353 350 348 347 345 342 343 342 342 342 344 346 348 350 349 350 349 349 348 349 350 353 354 354 353 350 352 348 350 345 345 340 343 341 339
327 329 333 338 350 351 356 359 360 357 355 358 357 354 353 352 350 347 345 343 343 342 343 344 344 345 348 350 350 348 349 349 349 350 353 354 354 354 354 352 352 350 346 346 346 344 345 346 342
327 328 331 336 351 352 353 356 362 356 355 358 358 355 354 353 349 346 345 344 343 343 344 345 345 347 347 348 348 347 348 348 349 350 353 353 354 354 356 353 353 352 349 350 346 346 345 340 336
325 327 329 333 341 351 352 354 354 355 355 357 358 356 354 353 351 347 346 344 343 344 345 346 346 348 348 347 346 346 347 348 348 347 353 354 353 355 354 354 354 352 349 350 350 350 346 342 341
325 326 328 333 334 346 351 356 354 361 355 356 356 356 352 353 353 351 347 345 344 345 346 348 348 349 348 345 345 346 347 349 348 350 352 353 354 355 355 356 352 353 352 350 351 351 348 345 343
327 325 325 328 335 340 345 359 360 354 357 356 357 357 355 352 352 352 350 347 345 344 346 348 349 350 350 346 344 347 348 347 347 349 348 351 354 354 356 357 356 353 352 351 351 349 348 346 343
326 325 324 324 326 335 339 346 357 355 361 356 356 356 355 354 351 352 351 349 347 345 346 347 351 351 349 348 345 346 349 346 346 347 351 350 354 355 354 357 355 356 352 352 352 353 351 344 347
325 324 325 325 324 326 335 341 349 351 351 354 355 355 355 354 353 351 349 349 349 346 346 348 352 354 353 351 344 349 348 348 344 346 352 349 353 354 354 355 356 356 354 355 354 353 353 352 346
325 326 327 327 326 325 325 335 341 346 349 349 353 354 354 354 354 352 351 350 350 349 348 349 354 356 355 354 349 350 350 348 351 350 349 348 346 347 351 354 357 357 357 356 355 355 355 354 351
326 327 329 332 329 327 326 326 334 338 344 346 347 351 353 353 353 353 352 350 351 351 351 351 354 358 357 355 353 349 350 347 347 349 348 348 346 346 353 357 355 356 358 355 356 355 355 354 354
328 328 327 328 329 330 328 326 326 333 338 345 347 350 351 353 353 352 352 350 351 351 352 352 354 358 358 355 356 356 351 347 345 348 349 352 348 347 347 351 356 354 353 356 355 354 356 353 356
326 328 328 327 332 333 330 330 327 327 332 337 342 345 348 353 353 353 353 351 350 351 351 352 353 358 358 356 357 356 355 352 349 351 355 351 350 349 350 349 351 354 354 353 356 353 354 357 355
324 327 329 330 329 331 333 331 331 329 329 334 338 342 345 351 351 352 353 352 350 350 351 352 353 355 356 357 357 355 355 352 351 354 354 353 353 353 352 352 352 352 353 353 356 354 355 357 356
319 322 322 331 333 330 330 331 331 331 329 332 337 339 340 343 348 350 351 353 353 353 351 351 351 352 355 356 357 356 356 353 352 353 354 355 356 355 355 356 354 353 351 352 356 356 353 356 356

GFSSGP_925_thetae_066.txt.gz
Theta_e
341 344 348 352 364 367 371 366 357 359 358 353 354 356 359 359 360 367 349 348 350 351 352 351 349 351 350 351 349 348 349 351 352 352 353 352 350 349 350 352 350 352 348 350 351 350 351 352 352
345 345 350 360 371 377 370 363 364 358 355 352 354 355 357 360 352 350 351 350 350 351 351 352 348 349 349 351 350 349 352 352 352 352 351 348 349 352 352 351 347 352 350 349 351 350 349 351 351
351 350 359 367 372 373 373 365 364 355 352 354 358 356 356 357 351 351 351 349 349 348 349 349 347 347 349 350 351 352 352 351 352 352 350 349 351 351 350 350 351 348 350 350 350 350 351 349 347
353 353 358 372 373 366 369 363 360 356 355 356 355 360 353 351 351 350 349 348 345 345 348 348 348 353 351 350 352 353 352 352 349 353 350 351 352 352 352 351 350 351 351 348 350 349 349 349 343
351 359 368 372 369 360 362 358 354 358 356 357 357 359 356 351 350 349 347 347 344 347 349 350 350 352 352 353 350 353 352 352 352 351 352 352 351 351 351 351 351 351 346 349 350 350 349 349 340
359 360 372 373 361 356 358 356 355 356 357 358 357 356 355 351 350 349 347 346 346 346 347 352 352 352 351 353 354 353 351 352 349 353 353 352 352 352 351 351 351 351 350 349 350 349 349 345 334
359 366 370 367 364 364 361 356 357 359 358 359 354 360 354 350 349 348 346 345 344 344 346 351 352 352 351 352 353 353 353 353 353 350 352 351 351 352 352 351 349 349 349 348 348 347 343 340 334
358 363 368 368 369 366 357 359 356 358 361 355 355 360 357 351 349 348 346 343 343 344 347 351 350 350 352 353 353 353 353 354 352 352 349 339 344 347 346 347 349 348 349 348 348 347 338 333 335
352 367 370 364 369 366 357 359 356 355 356 355 356 354 351 349 349 347 345 342 345 343 345 347 348 348 350 352 354 353 349 346 345 349 342 348 350 350 349 346 348 348 348 348 347 345 342 337 338
354 367 365 359 359 355 357 359 357 357 357 358 358 353 350 349 349 348 344 341 344 343 342 344 349 348 352 350 351 351 349 349 349 351 348 349 347 346 347 343 342 339 345 345 340 335 341 347 347
350 357 363 360 357 355 354 358 355 357 359 358 359 354 350 349 348 346 344 342 341 342 341 344 348 346 346 346 351 352 350 351 350 348 349 349 349 345 344 342 344 342 344 344 343 345 344 347 346
349 350 352 354 356 359 362 358 361 357 356 355 355 351 351 350 349 345 344 343 341 342 342 345 344 345 347 345 349 348 350 351 347 348 350 349 346 344 348 348 350 346 347 349 347 345 345 343 346
346 348 349 354 356 356 350 359 361 351 347 354 353 351 351 350 347 345 344 342 340 341 342 345 342 348 346 347 345 347 348 345 348 346 350 349 351 349 348 346 347 346 348 346 344 349 348 347 347
343 343 348 352 355 358 355 359 357 357 355 356 354 352 350 350 347 346 345 343 341 340 343 344 343 347 346 348 349 347 343 348 350 349 352 348 352 349 350 345 348 345 347 343 347 341 347 343 345
334 339 341 345 355 356 353 357 358 357 355 355 356 353 351 350 347 347 346 343 341 341 344 344 344 348 347 347 351 344 347 350 347 351 351 353 350 351 350 348 347 345 350 342 343 343 344 344 346
331 334 340 340 346 354 354 362 355 356 356 356 357 353 352 350 348 347 345 343 342 341 346 344 343 347 348 349 349 347 348 349 350 352 352 353 351 353 349 349 345 348 348 346 344 346 345 345 342
330 332 337 339 344 349 356 362 358 356 359 356 355 354 353 352 349 347 346 343 342 342 345 344 344 347 347 348 346 348 350 350 348 350 353 352 352 354 350 348 351 344 350 350 343 339 344 343 344
329 331 333 337 340 346 351 360 358 353 355 356 355 355 353 351 351 348 346 343 343 343 343 343 348 348 347 351 348 349 349 348 350 348 352 353 353 352 349 351 350 350 346 346 348 343 347 343 341
329 328 330 332 335 344 347 357 354 351 351 350 355 357 354 352 351 349 347 343 345 344 344 344 347 350 348 350 352 350 349 348 349 350 352 353 354 354 348 352 347 352 348 346 348 348 345 339 338
330 330 328 329 332 346 357 356 351 349 348 349 354 354 355 352 350 350 347 344 345 345 345 347 346 350 348 352 350 348 349 348 349 350 355 352 354 355 354 353 352 350 351 350 351 342 345 340 340
327 327 327 328 331 343 346 359 355 348 350 354 354 351 352 354 353 352 349 346 345 346 347 348 347 351 349 350 348 348 348 351 349 354 353 354 353 354 354 354 353 350 352 350 352 352 346 344 344
327 327 326 327 328 334 337 356 358 356 359 351 348 353 351 353 353 352 350 348 345 347 349 348 350 353 348 348 347 348 349 349 348 354 353 351 354 354 355 355 355 352 352 349 348 348 350 342 347
326 327 327 326 326 328 333 338 355 358 354 355 349 353 350 352 353 352 350 349 346 348 350 350 351 353 350 347 349 348 348 349 351 347 352 354 353 354 356 357 355 351 352 351 352 350 348 350 347
325 325 327 327 326 327 327 333 339 359 353 348 349 353 352 350 352 353 350 349 348 348 349 352 352 352 352 346 349 348 347 351 348 347 352 356 354 354 355 355 355 355 353 352 353 353 349 350 349
326 325 327 329 328 328 326 326 334 342 350 347 349 354 354 353 352 354 354 352 350 348 349 351 354 354 353 352 346 353 346 347 351 350 353 351 356 353 354 356 354 352 354 354 354 352 354 351 354
326 326 328 331 329 328 329 328 328 330 350 351 351 352 352 355 354 353 354 353 352 350 349 350 355 355 355 356 349 348 352 347 349 352 348 351 347 351 352 351 355 354 354 356 354 353 354 352 351
327 329 326 327 328 330 329 329 328 329 331 352 348 350 349 352 354 354 354 352 354 352 350 351 354 356 357 355 355 349 353 352 349 349 350 348 349 349 354 351 356 357 356 354 354 353 352 354 353
323 325 328 328 332 334 330 333 331 331 331 335 350 353 352 351 347 352 355 353 354 353 353 351 354 357 358 356 357 355 349 352 349 345 350 350 350 346 356 356 355 352 356 355 356 355 353 353 352
323 325 327 328 330 331 332 332 333 337 332 333 350 349 346 348 347 351 345 353 353 353 354 353 354 358 360 359 357 356 354 350 347 349 344 352 349 355 348 353 353 356 353 356 356 353 355 355 353
319 324 325 330 333 332 331 331 331 333 333 332 333 347 345 348 346 344 343 349 354 354 354 355 355 357 360 361 359 358 358 355 352 347 353 356 356 351 357 352 354 353 355 355 355 356 354 356 354

GFSSGP_925_thetae_069.txt.gz
Theta_e
339 335 342 348 362 364 373 370 358 359 358 355 355 357 360 358 360 360 349 349 347 347 346 349 350 349 347 345 346 349 350 349 348 347 351 350 351 351 352 351 352 348 352 350 350 352 352 352 351
338 345 347 357 369 374 372 366 367 357 355 354 356 356 357 358 350 348 349 349 349 350 348 348 348 350 349 347 346 348 351 348 347 348 348 351 350 352 352 352 351 350 350 350 350 350 351 351 344
345 348 355 364 368 369 374 363 364 356 355 356 358 353 355 354 350 349 350 350 351 350 351 348 349 347 347 350 351 349 352 348 348 350 351 348 350 351 350 352 349 351 350 350 349 350 350 350 348
351 353 355 363 372 359 365 361 359 359 357 355 355 358 351 350 351 350 350 351 350 351 348 350 344 351 352 349 348 348 350 351 351 351 350 352 351 352 351 351 351 350 350 350 349 349 349 347 342
352 356 366 369 371 364 358 355 355 359 359 357 355 358 356 350 349 349 350 348 349 348 345 347 351 351 352 352 350 352 352 352 350 350 352 352 352 352 351 351 351 350 351 351 350 348 345 340 345
357 357 369 371 367 361 360 356 358 359 358 357 357 357 355 349 349 348 348 347 347 344 348 351 350 350 352 352 350 351 352 351 349 350 352 352 351 351 351 350 352 350 350 350 349 347 337 339 346
357 364 369 366 366 366 362 354 357 359 357 357 353 358 353 349 348 348 346 347 347 345 349 350 352 352 352 352 351 352 351 350 350 348 351 352 353 353 351 350 350 350 349 349 349 343 336 339 345
357 362 367 367 366 361 357 358 356 358 359 351 351 358 356 349 349 347 346 347 348 349 350 347 351 349 350 352 352 350 349 350 347 347 345 345 349 351 351 348 349 349 349 349 343 337 334 333 336
350 363 368 368 358 356 353 359 356 355 356 355 353 352 350 348 348 346 344 346 347 349 351 345 351 350 349 348 353 351 347 348 348 343 346 349 350 350 350 345 349 349 347 348 340 337 339 337 339
352 363 364 355 356 358 355 358 358 359 360 358 354 350 349 348 348 346 344 344 346 349 350 346 349 351 347 350 346 345 342 342 343 345 348 348 350 345 341 345 344 346 341 337 338 337 339 341 343
350 355 356 357 356 359 360 362 358 359 363 357 355 352 349 349 348 344 344 343 345 348 347 347 349 349 350 344 343 342 344 349 349 351 348 347 347 342 340 342 340 343 345 344 340 343 345 345 347
348 348 350 357 356 359 363 360 359 358 358 355 351 350 349 349 348 342 343 343 342 344 347 348 346 350 349 343 348 348 350 351 350 347 349 346 346 346 347 347 346 343 344 345 343 341 344 345 345
345 346 347 349 355 358 359 359 351 355 355 353 350 349 349 348 347 342 341 341 342 344 348 346 347 348 348 347 352 351 350 351 349 349 348 349 346 346 347 348 342 345 346 346 346 345 345 346 344
340 342 343 351 355 355 358 359 356 355 354 354 351 350 348 347 347 343 342 340 342 345 346 344 347 348 346 349 349 346 348 350 347 348 341 348 348 349 347 345 345 346 347 347 347 346 344 342 344
335 331 332 341 356 357 359 364 364 358 355 354 352 350 348 347 346 344 343 339 341 345 343 343 348 347 348 345 348 348 349 349 348 350 348 349 346 350 349 348 346 344 345 344 346 348 346 344 344
332 326 330 332 342 354 358 369 363 357 358 354 353 351 350 348 345 345 342 339 342 345 341 343 348 350 346 345 352 350 348 346 349 350 350 350 350 347 349 346 345 349 349 344 344 345 346 345 345
331 328 329 331 333 344 354 365 362 354 356 357 353 351 350 349 346 346 342 340 343 344 343 342 344 349 347 347 349 348 348 349 350 352 352 350 353 352 347 347 349 345 346 344 343 342 344 345 345
331 326 326 328 333 336 357 364 354 349 356 357 355 352 350 350 349 347 342 341 343 344 344 343 343 348 346 348 345 348 348 349 350 352 350 352 351 349 350 347 350 345 346 347 343 344 343 343 342
328 329 328 327 330 334 354 360 353 347 353 360 356 352 351 351 348 347 343 342 344 345 343 344 345 349 345 346 344 349 350 348 351 353 352 351 352 351 341 349 351 350 345 345 345 348 341 341 342
327 328 328 328 326 343 360 361 354 348 355 355 352 353 351 351 349 347 344 342 344 346 343 345 345 348 348 348 346 349 349 348 348 349 350 351 353 353 350 350 351 349 347 349 348 345 342 339 338
325 326 326 327 326 340 355 359 356 352 351 353 355 351 350 350 350 348 344 344 344 345 343 342 348 348 347 350 347 348 350 349 350 350 351 352 354 355 354 352 352 350 349 349 349 344 342 341 341
322 324 326 325 323 323 338 358 356 351 353 356 356 349 346 349 349 349 344 344 344 344 345 342 349 348 348 347 346 349 348 352 349 350 353 352 351 352 353 351 351 349 350 350 350 348 348 345 345
323 325 324 325 323 323 323 324 358 351 355 355 352 348 347 346 348 347 346 343 345 345 347 343 348 349 347 351 347 347 348 348 350 351 353 353 353 353 354 354 353 349 351 349 347 349 351 351 346
324 323 322 322 322 324 321 322 358 356 355 349 348 346 349 347 347 348 347 346 346 347 346 348 347 350 347 346 349 346 347 347 351 353 353 351 354 354 355 355 354 348 349 352 350 353 350 349 348
323 323 322 323 323 325 323 322 320 355 352 347 347 350 349 347 350 349 347 346 345 347 348 349 350 353 349 346 349 347 346 346 350 351 350 353 352 354 354 356 355 351 350 353 351 352 349 352 349
324 321 322 326 325 325 323 324 323 341 351 347 347 347 349 351 348 348 347 347 346 347 349 349 350 351 352 347 345 349 346 345 348 353 354 354 353 353 351 356 354 351 350 352 352 352 349 354 351
325 325 322 322 323 324 325 324 324 324 347 348 345 345 354 352 349 346 349 347 347 348 348 351 351 350 353 350 345 347 348 344 345 348 353 352 352 354 350 352 355 351 351 349 354 352 350 350 354
321 322 321 321 325 326 326 326 328 329 333 348 345 353 346 347 349 349 349 349 348 347 349 349 352 351 353 352 349 345 349 345 343 345 349 353 349 350 352 353 352 353 352 353 353 352 352 352 351
318 319 321 321 323 325 325 325 324 327 328 335 348 349 343 345 348 350 348 346 346 347 348 349 353 352 353 352 353 348 346 350 346 348 346 349 349 349 349 354 352 357 357 354 355 354 353 354 352
315 315 315 322 324 326 328 329 326 324 325 337 346 350 345 348 350 346 349 344 341 343 349 349 351 354 354 354 354 354 348 348 350 349 344 348 348 350 356 355 354 354 353 354 357 356 353 355 355

GFSSGP_925_thetae_072.txt.gz
Theta_e
347 336 342 347 359 363 369 368 360 360 358 351 351 355 358 356 358 353 347 345 343 340 344 348 349 351 347 345 346 347 347 347 345 350 351 351 351 350 351 349 351 350 351 351 350 351 351 346 347
339 343 346 355 370 371 373 366 363 359 358 354 354 355 356 357 349 348 348 345 341 341 347 349 349 349 348 346 350 349 349 347 349 349 350 351 351 350 352 350 348 350 350 348 351 351 350 344 344
338 347 354 363 367 367 368 363 359 358 356 356 356 353 353 353 348 348 348 345 342 346 347 348 349 350 351 347 346 347 348 349 346 351 352 351 351 351 349 350 351 350 349 350 350 350 350 350 345
347 351 355 362 368 361 363 360 359 358 355 353 352 354 350 348 348 348 349 347 346 348 347 349 350 351 351 352 351 351 351 351 351 351 351 351 351 351 352 351 351 350 350 350 348 350 349 348 345
351 355 365 367 367 356 355 357 358 359 358 355 353 357 355 349 349 349 351 349 349 348 348 349 349 350 351 351 352 352 352 351 350 351 352 352 351 351 351 350 350 351 350 349 348 348 347 345 345
357 357 368 371 362 358 357 356 357 358 357 355 355 355 352 349 349 350 349 351 349 347 348 349 350 351 351 352 352 351 352 351 351 351 352 352 351 351 350 351 350 350 350 350 349 347 346 346 347
357 363 367 366 366 361 360 356 359 358 357 356 353 357 349 348 349 348 350 350 345 344 349 350 350 352 352 351 352 352 352 352 351 352 352 351 350 351 351 351 351 350 349 348 348 340 344 345 345
356 360 367 362 367 360 354 358 355 356 358 351 351 356 352 347 348 347 348 347 345 344 348 350 351 351 351 350 352 352 352 351 347 349 347 351 351 351 349 349 350 349 349 349 345 339 339 343 341
351 361 368 366 357 356 354 359 356 354 355 353 353 350 347 347 346 347 347 349 349 349 348 348 348 350 348 349 353 353 352 342 343 348 348 349 349 347 345 348 350 349 349 349 341 334 335 338 344
355 357 363 357 355 360 356 357 358 358 357 355 354 348 346 347 346 346 346 349 350 350 347 347 347 347 346 350 352 347 345 339 345 348 349 349 348 345 343 348 350 348 341 339 337 337 339 341 342
351 358 354 356 356 358 360 362 358 360 360 356 355 350 348 347 345 346 345 347 349 347 343 347 346 345 345 346 347 342 343 345 346 347 348 348 344 340 340 344 344 346 340 338 340 342 344 345 345
346 347 350 350 357 360 362 357 357 359 360 353 350 348 347 347 344 345 344 346 349 348 344 347 347 345 343 341 342 342 346 348 349 348 346 347 343 340 342 341 340 343 343 341 342 343 344 345 344
342 344 345 345 356 360 357 353 357 357 355 352 350 348 347 347 345 344 343 345 348 347 346 347 347 346 344 340 343 346 349 350 349 348 346 344 346 346 346 345 343 343 345 344 344 344 345 344 344
340 340 338 338 360 360 359 356 352 355 354 353 351 349 347 347 345 343 342 343 346 346 347 347 347 348 345 346 347 349 350 352 348 347 346 346 346 346 346 346 342 344 344 344 344 345 344 344 345
337 333 329 353 358 357 355 361 361 355 355 354 351 349 348 346 346 342 342 341 343 346 347 346 348 349 345 349 350 350 350 350 349 347 344 347 348 345 344 346 344 345 343 345 345 345 343 344 345
329 327 326 337 357 357 356 368 360 356 357 354 351 350 348 346 346 343 339 341 345 347 346 346 348 349 347 348 347 348 348 349 348 346 347 345 347 349 346 347 344 345 344 344 347 346 345 343 345
325 331 330 327 351 359 358 366 357 356 357 356 352 349 349 346 345 344 338 344 344 344 346 347 348 348 346 350 349 348 349 348 349 348 349 348 350 348 347 344 347 347 345 343 341 345 344 344 345
329 329 324 325 326 354 359 364 359 360 358 357 354 351 348 348 345 344 340 344 343 343 348 348 348 346 346 349 348 349 347 349 350 351 351 351 349 348 346 346 346 344 347 345 344 345 343 344 343
326 326 326 327 327 326 357 363 361 356 354 358 355 352 349 348 347 344 340 344 343 342 346 348 348 347 345 348 347 349 350 351 352 350 349 351 350 347 349 347 347 346 345 344 344 344 343 344 343
327 326 325 324 327 350 361 364 355 356 357 357 357 354 351 348 347 346 340 344 343 342 341 342 346 346 344 347 345 347 349 350 348 351 350 351 351 347 346 347 346 347 344 347 346 343 340 340 342
327 325 325 325 342 352 355 359 354 349 355 356 356 354 351 349 348 346 341 345 343 343 343 342 342 343 345 346 343 348 349 349 352 352 350 351 352 352 350 347 346 350 345 347 346 343 339 339 337
326 322 323 324 321 321 342 362 356 352 357 358 357 352 352 350 348 347 341 343 344 343 344 343 344 345 344 344 343 347 349 350 349 349 349 351 353 353 352 350 350 349 348 347 347 345 343 340 342
326 325 322 323 321 320 322 323 338 351 355 358 357 352 352 349 348 348 342 341 344 343 343 345 344 346 346 345 343 346 348 351 348 349 350 350 353 354 351 350 351 349 349 350 349 350 349 347 344
323 322 319 317 318 320 320 320 335 352 352 352 357 355 352 347 347 347 346 342 342 344 343 347 347 346 346 346 346 343 347 347 349 350 351 351 351 352 352 351 350 348 349 348 346 349 349 350 347
321 317 319 321 320 320 318 320 320 345 348 347 353 354 351 346 347 347 345 343 342 344 344 345 348 348 347 347 345 343 345 347 349 350 351 352 353 353 354 354 353 347 347 350 349 352 351 348 348
323 317 319 323 322 321 319 322 322 330 344 344 344 349 349 347 345 346 345 342 344 343 345 345 348 348 348 347 347 344 345 346 347 350 352 352 352 351 353 355 355 352 345 349 351 351 350 348 348
322 323 318 319 318 320 320 321 322 322 337 346 343 346 350 350 348 348 348 344 345 345 344 346 347 347 348 347 346 347 345 345 346 350 352 351 351 350 351 354 356 354 350 349 351 351 351 350 350
312 314 319 315 323 324 322 323 323 323 333 341 346 345 347 351 349 348 349 348 346 345 346 346 347 348 348 347 347 345 345 345 345 345 349 354 352 350 351 352 355 354 350 348 350 350 349 350 349
312 312 311 315 318 322 322 321 325 329 337 339 344 345 344 351 349 349 349 348 348 346 346 347 347 347 349 349 348 346 345 347 346 346 345 349 354 353 353 353 350 355 352 349 350 350 351 351 351
313 312 309 312 314 318 322 324 324 329 331 340 345 342 344 348 349 348 349 349 348 346 346 347 349 348 348 350 349 347 345 344 347 347 344 345 348 352 351 349 352 353 352 351 352 351 352 352 353

GFSSGP_925_thetae_075.txt.gz
Theta_e
349 342 342 345 354 362 362 358 360 361 355 349 345 351 354 355 357 353 343 337 335 341 345 348 348 350 348 349 350 347 349 348 349 350 350 350 349 346 346 350 349 349 351 350 351 351 351 352 352
346 342 345 354 369 370 368 361 365 359 353 346 354 355 356 357 349 346 345 341 335 342 346 347 347 349 349 348 348 349 351 350 349 350 350 350 349 350 348 350 351 350 350 351 351 350 351 351 350
341 346 354 362 367 367 366 360 361 357 353 354 356 351 352 353 347 344 345 339 339 344 347 348 347 349 351 351 348 350 351 351 350 350 350 352 351 350 351 350 349 351 350 349 351 349 350 350 347
344 347 354 364 367 361 360 361 359 358 355 352 352 355 349 347 346 347 344 339 340 346 348 349 350 351 351 347 349 352 351 350 350 350 351 350 351 351 350 350 350 348 348 349 350 350 350 350 349
349 355 365 367 368 356 356 358 358 359 358 354 353 357 353 348 348 347 344 340 343 348 349 350 350 350 351 351 351 351 351 350 349 350 350 351 351 351 351 350 351 349 348 349 349 349 348 345 346
356 356 367 370 363 358 356 357 358 358 356 354 354 354 352 347 348 348 345 343 346 347 349 348 350 351 351 352 352 351 351 350 350 351 350 351 351 351 351 351 350 350 348 348 348 348 345 345 345
358 363 366 364 365 364 360 356 358 358 356 355 351 355 351 348 349 349 347 346 347 348 345 351 350 352 352 351 351 350 351 350 351 352 352 348 351 350 351 351 350 349 348 347 348 346 345 347 346
356 359 363 360 368 363 355 357 357 356 357 350 347 354 354 348 349 349 349 348 348 345 350 349 351 353 350 351 352 352 351 351 351 351 350 350 350 351 348 348 350 349 348 347 347 346 345 344 347
351 362 366 363 361 359 355 360 356 354 355 352 353 348 348 348 348 348 349 350 351 350 349 350 350 350 348 351 352 352 350 350 352 350 351 351 351 347 347 349 350 350 349 348 347 342 342 344 346
355 358 362 356 353 359 357 360 354 361 356 355 351 347 348 347 348 348 348 348 350 351 350 350 349 347 348 351 351 349 345 347 348 348 349 348 345 344 348 350 350 350 349 341 339 338 340 344 344
353 359 355 356 357 353 357 359 355 359 360 355 350 349 347 346 347 347 347 348 348 350 349 347 347 345 347 350 347 342 343 347 348 348 348 347 344 342 346 349 346 346 338 339 337 340 341 343 342
347 347 353 351 357 358 358 352 356 356 360 354 346 347 346 346 346 346 345 347 348 349 348 346 346 345 347 346 342 340 341 345 346 347 346 343 340 340 340 341 343 341 340 340 342 344 343 343 345
343 343 341 343 346 359 353 352 352 353 353 352 347 347 346 345 345 345 345 345 347 344 348 345 344 344 345 344 343 344 345 346 347 347 346 341 340 340 341 339 342 343 344 343 343 344 344 345 344
340 340 339 336 357 355 355 355 351 356 355 355 351 348 346 344 345 344 345 346 347 343 345 347 346 343 344 342 341 344 347 348 349 347 345 344 345 346 346 343 342 343 344 343 344 344 344 344 344
336 339 330 358 359 358 350 354 359 355 356 357 352 348 347 345 343 343 344 346 346 343 342 347 344 344 342 341 344 348 349 347 347 348 346 345 344 346 345 345 342 343 343 343 344 344 344 344 344
328 325 327 357 356 353 354 365 359 354 356 356 352 349 348 347 343 343 342 345 346 345 344 346 347 347 344 344 347 349 349 349 348 347 347 347 347 345 345 343 344 344 343 345 344 345 344 344 344
323 331 330 328 353 357 356 362 357 357 355 356 352 350 348 347 344 342 341 342 345 345 345 345 347 348 346 347 348 347 349 349 348 347 346 346 346 347 346 346 344 344 342 343 344 344 344 343 344
329 329 326 325 353 357 360 360 359 356 356 355 353 350 348 347 345 341 340 340 344 345 346 344 346 348 347 348 347 348 348 348 348 347 347 346 348 347 347 345 347 345 344 343 341 345 344 342 344
327 326 326 325 325 325 357 359 358 356 355 356 353 351 349 348 345 340 340 342 344 345 346 345 346 347 349 349 348 347 348 348 349 349 348 348 349 348 346 346 345 344 346 344 344 344 343 343 343
328 327 326 324 333 338 359 362 357 358 355 356 355 351 349 347 345 339 342 343 342 345 345 346 348 347 349 348 348 348 347 348 349 349 349 348 349 348 348 346 346 347 344 343 343 344 342 343 343
327 326 326 326 332 353 356 364 361 355 355 355 355 353 350 347 347 340 343 343 342 344 345 347 346 346 345 347 347 348 349 349 350 351 350 350 350 347 345 347 345 347 344 344 345 341 340 339 339
327 324 325 324 320 321 346 364 359 352 354 354 356 355 352 347 346 343 342 343 342 342 345 347 347 346 345 345 346 346 349 350 350 349 351 351 351 350 348 345 346 348 344 347 346 344 340 338 338
326 324 323 322 320 319 324 327 342 351 355 356 357 355 353 351 347 346 340 343 342 341 342 346 346 346 344 341 345 344 347 348 348 349 350 349 351 352 351 349 347 348 348 347 346 347 343 341 341
323 323 317 314 315 319 319 319 324 352 353 351 355 355 354 349 348 346 341 343 343 342 342 342 343 343 344 343 344 343 345 348 349 348 349 349 350 353 353 351 349 350 349 349 347 348 348 349 343
317 316 318 320 319 319 317 319 319 341 346 346 350 354 354 348 348 347 342 341 343 342 343 344 344 344 344 343 342 343 343 347 348 349 349 349 350 351 353 352 351 350 349 348 349 347 348 348 348
321 316 317 322 320 320 316 320 321 319 323 339 344 348 351 350 349 347 344 340 342 343 342 345 345 345 345 344 344 343 342 343 346 346 349 349 350 350 350 352 352 352 347 350 347 349 350 348 347
317 318 317 315 315 319 319 320 321 328 335 338 342 346 352 352 348 348 346 341 341 343 342 345 346 345 345 345 345 344 343 343 343 345 347 351 349 350 350 352 352 353 352 346 350 349 349 350 347
311 312 316 314 321 324 320 320 328 331 335 340 343 343 347 350 347 345 346 342 342 342 343 343 346 346 345 345 346 345 344 343 341 344 346 349 351 351 351 351 351 352 353 352 348 351 351 351 347
311 311 309 311 314 319 321 323 322 329 332 343 344 344 342 347 347 346 346 344 343 342 342 343 344 346 346 346 346 346 345 344 342 343 344 345 349 352 351 351 350 350 353 354 351 349 351 350 349
310 309 307 310 313 312 318 322 314 315 327 339 343 343 342 346 346 346 347 347 344 344 343 343 344 345 345 345 345 346 345 343 343 342 342 344 345 346 353 352 350 352 352 353 352 349 349 351 350

GFSSGP_925_thetae_078.txt.gz
Theta_e
347 344 342 344 355 362 364 358 357 361 356 348 344 348 349 351 354 351 341 336 337 342 346 347 348 350 347 350 351 343 341 336 346 346 347 348 349 347 348 348 349 350 350 351 351 352 353 351 352
345 343 345 354 367 369 368 360 362 359 350 344 353 353 354 356 348 342 341 336 338 342 345 346 347 348 348 350 349 347 342 346 348 347 349 349 350 349 351 351 350 350 350 351 351 351 351 352 352
340 346 353 362 366 364 366 360 360 354 348 355 355 351 351 352 344 340 341 338 340 342 344 345 346 347 350 350 346 347 345 349 350 348 349 349 350 351 349 348 350 349 350 351 350 351 351 347 348
343 345 351 363 364 360 359 359 358 356 354 352 353 355 348 346 341 344 340 338 340 343 346 348 347 351 351 350 350 350 349 349 347 350 350 350 350 351 351 350 350 349 349 351 350 350 351 347 347
348 354 364 366 366 359 355 358 358 359 357 354 353 354 351 346 347 343 339 340 342 345 348 347 349 351 349 348 350 351 349 348 346 351 351 349 351 351 350 350 350 349 349 350 349 347 346 347 346
357 355 367 369 363 357 358 357 358 358 355 353 352 352 351 347 345 343 340 341 344 345 348 349 349 349 351 351 350 349 350 347 347 346 348 351 350 349 350 350 349 347 348 348 348 348 345 345 345
358 362 365 360 365 364 359 356 359 358 355 354 350 353 351 347 346 345 342 343 346 347 348 347 350 351 351 350 351 351 350 349 351 350 349 349 351 349 347 347 349 347 346 348 349 345 346 347 346
355 358 362 359 365 365 357 359 356 357 356 348 347 352 352 348 348 345 344 346 347 348 349 351 351 351 351 351 351 351 350 348 350 351 349 351 350 345 347 345 348 348 347 348 349 346 346 346 346
350 360 365 362 361 361 355 362 357 352 354 351 350 347 347 348 348 348 349 349 350 347 350 349 352 352 350 350 352 351 350 348 349 347 349 349 346 347 347 347 349 348 348 349 344 344 343 346 345
355 359 360 355 355 358 358 354 356 353 356 351 351 348 348 348 348 347 346 346 346 351 350 350 349 349 349 349 350 349 350 350 348 349 348 348 344 346 348 349 350 348 348 343 343 341 344 345 344
355 360 355 355 355 356 357 353 355 358 360 352 353 350 348 348 348 346 346 345 345 349 349 351 348 347 349 350 347 344 347 347 347 347 346 343 341 345 347 350 349 343 338 338 339 340 343 343 342
352 348 352 352 355 355 357 355 357 357 357 352 349 347 348 347 347 347 346 346 347 348 350 349 347 347 348 349 341 343 346 347 348 347 345 340 338 342 345 346 343 338 338 338 339 341 342 343 343
344 346 342 344 347 355 351 354 354 357 354 348 348 347 347 346 347 346 346 346 347 348 347 346 347 344 347 346 339 342 344 346 346 346 345 339 337 338 341 342 343 343 342 342 342 343 343 344 344
339 340 338 336 347 353 352 351 353 350 354 349 348 347 347 345 346 344 345 346 346 346 344 346 347 343 345 343 342 343 344 346 347 346 344 340 340 342 342 340 340 342 344 344 344 343 344 344 344
334 338 336 357 356 356 351 355 357 353 356 352 349 347 346 345 345 344 344 345 345 343 343 345 345 344 342 342 343 345 346 347 347 346 345 343 344 345 345 344 342 343 344 343 344 344 343 344 344
326 325 328 359 355 354 351 360 361 355 358 355 350 348 346 344 345 344 344 343 344 339 342 343 345 344 341 339 341 344 347 347 346 347 345 344 345 345 344 343 342 343 342 344 344 344 344 343 343
323 331 329 334 354 355 354 359 356 355 358 356 351 349 347 344 343 343 343 343 342 339 339 344 345 343 342 341 343 346 348 347 347 347 346 346 346 346 344 344 344 343 343 343 344 344 343 343 343
330 328 325 326 356 356 356 357 356 358 354 356 353 349 348 347 342 343 342 343 343 341 342 343 344 344 342 342 345 348 348 348 348 348 346 346 346 345 345 345 344 343 341 342 341 344 343 343 344
327 325 326 325 324 326 349 356 359 358 355 356 354 350 348 347 344 341 341 343 344 344 344 344 345 345 346 345 346 348 347 348 348 348 345 347 346 345 346 344 345 345 343 342 341 343 343 343 342
328 327 327 326 333 336 357 359 357 355 354 355 354 351 349 347 344 340 341 340 343 344 345 344 345 346 347 346 347 348 347 347 347 348 348 349 348 347 346 345 346 343 345 344 343 344 342 342 343
327 326 326 327 327 352 354 358 360 357 353 352 353 351 348 347 345 340 339 339 342 344 344 345 344 345 347 347 348 347 346 347 348 348 348 349 348 348 346 346 345 346 345 343 343 342 341 341 342
328 323 326 326 319 320 344 346 356 355 355 354 353 353 350 346 345 339 340 341 342 343 344 345 344 345 346 348 347 347 347 348 348 345 348 349 349 350 346 347 346 346 346 344 344 343 339 338 339
326 323 324 323 319 318 325 332 341 349 352 351 352 352 353 349 345 340 341 342 342 342 343 344 345 345 346 347 347 347 347 348 348 348 348 350 351 351 348 348 346 346 347 345 346 345 343 341 339
322 318 313 312 313 318 319 321 319 350 351 349 348 349 353 351 347 343 340 342 341 342 343 344 345 346 346 346 346 346 346 347 347 348 349 349 348 350 351 349 349 348 346 347 345 345 345 345 342
316 316 317 318 318 319 314 318 323 320 326 338 341 349 352 352 350 345 339 342 342 341 342 343 345 345 345 345 345 346 344 345 346 346 347 348 348 349 351 352 352 349 348 348 348 347 347 347 346
317 316 317 321 319 319 316 319 326 329 333 339 340 343 350 352 349 348 342 340 342 341 340 342 344 345 345 345 343 342 344 343 344 346 347 348 347 348 349 350 351 351 350 349 348 348 346 348 348
318 315 313 314 314 317 317 324 322 322 330 340 343 341 347 351 351 347 346 340 342 341 341 341 342 343 344 344 343 343 344 343 343 346 347 347 348 348 349 349 350 351 350 349 348 347 347 349 349
311 311 317 314 321 323 319 324 322 316 317 326 341 342 342 342 349 347 346 341 341 342 341 342 342 342 342 342 342 342 342 343 342 344 346 346 346 349 349 349 351 350 350 350 350 347 350 350 350
309 309 308 310 312 319 324 322 315 314 320 321 339 341 343 342 348 347 346 343 340 341 341 341 343 344 343 343 344 343 343 343 343 341 344 344 345 346 350 350 351 350 349 347 350 351 348 350 350
307 308 306 312 314 310 316 316 311 323 329 334 339 342 342 343 344 344 344 343 341 340 342 341 342 344 344 344 344 344 343 343 344 343 340 341 343 344 346 351 352 351 350 350 350 351 351 348 349

GFSSGP_925_thetae_081.txt.gz
Theta_e
347 344 343 346 360 362 366 357 357 359 357 350 345 346 347 346 353 357 341 339 343 346 349 349 349 351 350 350 345 342 343 350 350 349 350 349 348 348 348 349 351 350 351 351 352 351 353 352 352
345 344 346 354 365 368 367 360 362 359 352 347 350 348 353 353 348 343 339 340 345 346 348 349 349 350 349 349 347 346 350 349 348 349 349 350 349 350 350 350 348 345 348 351 352 352 352 352 352
344 347 355 362 365 364 365 360 361 352 348 351 356 351 353 353 343 339 340 342 345 347 348 350 347 350 350 348 347 347 348 347 347 347 348 347 350 349 348 350 350 350 351 351 351 352 349 346 344
346 347 354 363 365 361 359 360 352 355 354 353 353 356 349 345 340 342 340 344 345 347 348 350 348 350 351 350 350 347 348 346 349 347 348 347 348 350 350 349 350 350 350 351 351 347 345 345 345
348 355 365 368 366 361 357 359 354 356 357 355 354 353 348 346 345 340 342 344 345 347 349 350 350 351 348 350 348 350 347 345 348 346 347 348 349 349 350 349 349 349 348 350 350 345 344 342 344
359 358 368 369 363 361 359 358 358 359 356 353 352 352 350 347 341 340 343 345 346 348 349 350 350 348 346 351 351 347 350 346 349 348 348 349 348 347 345 349 347 349 349 349 347 347 343 343 344
359 362 363 359 365 365 360 357 359 358 356 355 349 354 350 346 340 342 345 346 347 349 351 352 350 351 350 349 348 348 348 349 349 349 346 350 345 349 345 346 348 346 347 350 346 346 346 346 344
357 360 362 361 364 365 358 358 357 358 356 349 348 354 351 345 342 344 346 347 348 350 350 349 352 353 352 352 350 348 349 349 349 346 349 351 345 347 348 346 347 347 349 349 344 345 344 344 344
351 364 365 362 361 362 357 361 355 351 353 350 349 348 346 344 343 345 347 348 350 350 351 351 351 353 352 353 352 350 348 350 348 349 347 349 348 348 347 348 348 348 349 347 345 344 347 344 344
357 361 362 355 356 359 356 357 357 354 355 354 351 347 346 345 344 345 347 348 349 349 350 351 353 351 351 351 352 352 352 351 350 349 349 349 349 349 348 350 348 349 346 344 343 344 345 347 349
356 361 356 355 355 356 355 354 355 357 359 353 353 349 346 345 344 345 346 347 346 348 349 351 352 351 351 352 350 350 350 349 349 345 347 347 348 349 350 349 347 347 346 346 345 346 347 346 347
357 352 352 354 356 356 357 353 356 354 358 350 349 347 346 346 345 345 346 346 344 349 349 350 350 351 353 350 349 350 350 349 348 348 343 343 346 349 349 347 344 339 343 341 342 346 342 344 344
351 351 346 346 354 356 355 356 356 357 351 349 347 348 346 346 346 346 346 345 344 347 350 350 350 350 352 351 349 350 350 349 349 348 341 342 346 347 347 344 345 344 343 344 344 344 345 345 346
341 343 341 340 340 354 355 354 353 357 350 350 349 349 348 347 347 347 346 344 345 346 348 348 349 349 350 349 344 349 349 348 345 346 343 338 340 340 345 344 345 344 344 344 345 345 347 346 347
335 338 350 356 353 355 350 357 356 356 350 352 350 349 349 348 347 346 345 343 344 346 347 348 349 348 349 348 344 348 348 348 350 348 342 342 343 344 344 344 345 344 343 343 343 344 347 347 346
331 330 336 359 357 354 354 362 359 355 351 353 351 350 349 348 346 345 345 343 343 345 346 348 347 347 348 347 345 348 349 349 350 347 344 343 344 344 345 347 345 343 343 346 345 348 348 347 347
331 342 333 357 356 357 356 357 361 357 353 353 351 349 348 348 347 347 346 344 343 344 344 347 347 347 346 343 346 345 347 347 348 347 346 345 345 346 344 344 343 343 345 345 348 348 347 347 346
340 334 330 345 359 356 358 357 359 358 359 354 352 350 348 348 349 347 346 345 344 343 343 346 347 347 344 344 342 347 348 349 348 348 346 345 346 345 344 345 343 343 347 346 346 346 342 346 346
331 331 332 329 333 339 342 346 354 359 354 357 353 351 350 348 347 347 346 346 344 343 342 345 348 345 345 346 347 349 350 350 350 349 348 345 345 345 345 345 344 343 346 344 341 346 346 346 343
332 334 332 329 342 333 354 357 355 356 356 355 355 352 352 349 348 346 346 345 344 343 344 345 347 347 344 347 348 350 350 350 351 348 347 345 347 347 346 345 345 344 347 343 343 343 345 346 345
333 336 332 331 328 354 355 359 359 358 356 357 356 352 350 350 350 348 345 345 345 345 344 346 344 347 346 349 348 347 347 349 349 349 350 349 348 348 347 345 346 344 345 348 344 343 343 345 345
337 329 331 330 328 328 350 340 360 357 359 356 357 356 353 351 349 349 346 344 344 346 345 346 346 347 346 346 348 350 349 349 350 351 351 350 349 349 345 346 345 346 345 345 345 342 340 342 345
332 327 330 329 328 325 337 342 333 355 357 356 353 354 353 351 349 349 347 344 343 345 346 346 347 346 347 346 348 350 350 350 351 351 348 350 349 350 348 345 346 346 348 344 344 344 343 341 343
325 323 322 322 324 328 328 335 340 341 342 344 346 350 351 353 350 348 347 345 345 344 345 346 348 348 344 345 346 349 350 351 351 351 351 352 353 353 350 349 347 346 346 345 347 345 345 343 343
325 327 328 329 327 329 322 333 342 338 339 345 346 344 345 351 353 349 347 346 346 345 345 346 348 348 348 347 347 348 351 348 349 349 351 352 352 352 351 351 349 350 347 347 347 346 347 347 350
327 327 327 330 329 328 322 334 334 322 326 333 343 345 346 348 351 352 347 346 347 346 346 346 347 347 348 348 348 348 347 349 349 350 350 350 351 352 350 349 349 350 350 349 349 350 351 350 350
321 324 320 323 320 327 325 328 328 327 334 338 345 347 347 346 351 352 349 346 346 346 345 346 347 348 348 347 348 348 347 347 348 347 346 350 347 351 348 349 348 348 350 349 348 351 348 348 349
319 316 324 324 328 328 330 329 327 334 340 342 343 344 347 348 345 352 351 346 345 346 345 345 346 347 347 348 348 348 347 345 346 348 344 348 349 348 351 350 350 348 348 349 349 351 350 347 350
317 319 319 322 322 328 331 327 326 338 339 338 339 343 345 351 346 348 351 350 345 345 345 345 345 346 347 347 347 348 347 347 345 346 346 345 346 346 348 349 353 352 350 349 348 349 353 352 351
312 314 316 326 326 323 326 323 330 335 336 334 336 341 341 345 349 349 349 349 346 345 345 345 345 345 345 345 346 346 346 345 346 346 343 343 346 346 345 347 350 354 354 352 349 348 353 353 353

GFSSGP_925_thetae_084.txt.gz
Theta_e
344 343 345 348 363 363 368 361 359 359 359 352 348 347 348 347 354 362 343 343 347 348 348 349 348 351 349 350 346 347 350 347 350 348 349 348 349 348 349 350 347 352 352 353 353 352 353 351 351
343 344 349 354 365 368 369 362 363 359 355 350 348 347 350 358 350 345 343 345 347 349 347 348 347 350 350 350 350 350 350 350 349 349 351 351 351 351 348 349 350 350 352 352 352 352 350 347 351
346 349 357 364 364 367 369 364 359 354 351 353 355 352 354 356 346 341 342 346 347 348 348 350 349 350 350 350 351 350 350 351 350 351 350 350 351 350 350 351 349 348 351 352 350 345 347 343 346
349 352 357 369 368 361 364 360 355 354 355 354 353 358 349 347 341 341 344 345 347 348 348 348 351 352 351 350 351 351 351 351 350 348 351 351 349 351 350 348 351 351 351 348 345 349 342 345 344
350 358 368 368 368 361 362 356 356 358 358 357 355 356 352 343 343 341 344 345 346 347 348 350 350 351 350 351 351 350 348 349 347 349 351 349 351 350 348 346 349 350 351 350 349 345 338 344 348
359 359 369 370 366 362 361 360 356 358 357 354 354 354 353 345 341 343 344 345 345 346 347 349 350 350 350 351 351 351 346 347 350 347 346 347 349 349 349 349 350 350 350 350 347 340 343 346 346
360 364 365 365 366 366 362 358 360 360 358 356 351 356 350 342 341 343 344 345 346 347 347 350 350 348 352 352 352 349 349 350 345 346 349 350 350 349 347 348 348 349 350 345 344 344 344 343 342
358 362 363 363 365 369 361 359 357 359 358 349 351 355 351 342 342 344 345 346 347 347 349 349 348 351 350 350 347 351 348 346 349 348 351 348 348 346 346 346 348 350 350 344 344 343 343 343 342
353 366 365 362 363 364 359 360 354 352 355 352 351 350 344 341 343 345 346 346 347 348 347 347 351 352 352 351 349 350 351 348 344 347 345 349 346 346 347 344 349 350 349 346 344 344 343 342 344
359 364 360 354 357 361 360 357 354 356 356 355 354 347 343 341 344 345 346 346 347 347 346 348 350 351 351 348 351 351 350 349 346 346 348 348 347 349 345 346 350 349 347 344 343 344 347 349 347
358 361 355 354 354 356 357 356 352 355 359 356 355 350 344 343 344 345 345 345 345 346 346 349 350 350 349 347 348 349 346 347 348 348 348 347 347 347 343 345 346 347 348 346 348 349 347 348 344
360 355 352 354 353 353 355 354 355 355 359 353 351 347 344 345 345 344 345 346 345 345 347 348 349 349 347 347 347 346 345 344 345 347 348 348 346 345 343 345 348 347 346 347 348 347 350 350 349
357 352 348 345 351 352 355 356 357 356 353 350 349 346 345 345 344 343 344 344 344 346 347 347 349 351 348 349 347 347 346 344 345 346 348 346 345 346 344 345 345 346 346 347 348 349 350 349 348
347 348 344 343 341 353 357 356 355 356 351 350 348 347 345 345 344 344 344 343 343 345 347 348 349 350 349 350 351 351 348 347 345 345 347 349 346 347 347 348 348 348 348 348 349 350 349 347 347
343 345 348 347 348 355 353 358 361 355 352 351 348 347 346 345 344 345 344 342 344 345 346 348 348 348 349 351 352 351 348 347 348 347 349 349 349 351 349 348 348 348 350 351 350 350 348 346 346
342 342 347 354 356 355 356 364 362 354 354 353 349 348 348 347 345 344 342 341 343 344 347 348 346 346 348 348 351 350 348 348 349 348 349 350 351 352 352 349 347 349 350 349 348 348 346 346 346
343 349 343 359 357 356 357 364 358 354 354 355 352 350 349 348 345 343 343 341 341 343 347 348 347 346 349 351 350 351 352 351 351 350 349 351 351 351 350 349 349 350 349 348 347 348 346 346 345
346 347 341 354 356 355 354 360 361 357 355 356 353 351 350 346 344 346 345 343 340 343 345 347 348 347 350 351 351 350 351 352 352 351 350 352 350 349 351 351 351 349 348 348 348 348 347 347 346
341 343 343 351 352 346 345 354 362 361 359 356 353 352 350 344 344 347 347 345 342 342 343 347 348 348 349 350 349 350 351 352 352 352 352 352 352 352 353 350 349 350 348 350 350 350 349 345 347
340 340 337 338 337 335 340 342 358 361 357 358 356 353 350 345 347 348 348 347 344 342 341 345 348 349 348 348 349 350 352 352 351 350 353 352 352 351 352 350 348 349 349 352 352 351 346 345 346
340 340 336 338 335 341 346 351 352 355 355 354 353 354 351 347 347 350 349 347 346 341 344 345 348 349 350 349 351 354 354 354 354 353 353 352 353 352 353 349 351 352 351 348 352 350 349 345 347
338 339 335 333 333 346 345 363 359 355 358 357 356 355 354 352 348 348 349 348 347 344 343 346 349 349 350 352 351 352 350 349 350 351 351 354 354 353 354 354 353 354 350 350 352 349 348 349 342
334 335 336 334 334 332 337 344 356 357 358 359 355 356 355 352 351 350 349 348 347 347 345 344 349 351 350 352 352 352 352 349 350 349 353 353 354 353 352 353 354 354 352 353 351 352 350 344 344
332 332 333 334 334 335 334 340 346 349 351 349 348 349 354 354 353 351 349 348 348 347 347 347 349 352 352 353 354 353 351 351 350 351 352 351 352 353 355 354 355 354 352 353 352 353 353 351 349
331 331 334 338 335 334 333 337 347 340 337 344 349 348 346 354 353 353 352 349 348 347 347 348 349 353 353 352 353 354 354 354 352 351 349 350 351 351 355 356 355 352 350 353 353 351 351 352 350
331 330 331 337 335 333 331 340 336 335 340 345 348 349 348 349 353 353 350 350 349 348 348 349 349 352 353 352 352 353 354 352 352 350 347 350 350 351 352 355 353 353 353 353 353 350 349 350 350
330 332 328 329 332 332 332 335 333 337 342 345 349 349 352 350 349 353 351 350 349 349 349 350 351 353 353 353 353 354 354 353 350 348 351 350 349 351 354 355 351 352 353 353 355 351 353 353 352
327 328 329 328 333 334 332 339 338 341 344 345 347 348 350 352 350 352 353 352 350 349 349 350 351 352 353 352 352 353 353 354 353 351 351 350 348 351 352 356 356 353 354 354 355 352 354 353 350
324 327 327 328 329 332 336 334 334 342 341 343 344 343 345 347 352 352 353 352 351 350 350 350 351 352 353 352 351 351 352 352 353 352 351 351 351 352 353 356 355 353 355 356 356 353 353 352 352
320 325 327 330 331 330 331 332 334 339 339 340 343 339 338 340 345 341 342 349 352 350 350 350 350 350 351 352 352 352 352 352 351 352 350 350 351 351 354 354 354 354 353 355 356 354 350 354 354

GFSSGP_925_thetae_087.txt.gz
Theta_e
342 343 347 349 367 365 369 367 357 361 358 350 346 347 350 356 359 361 347 348 348 347 347 349 348 351 350 350 350 351 345 352 342 344 344 348 346 349 349 353 352 353 353 353 352 349 349 352 349
345 343 348 356 371 372 372 363 362 359 354 349 347 347 354 357 349 346 346 348 347 347 347 350 350 350 351 350 345 350 346 349 351 352 352 351 350 350 348 352 350 352 352 352 352 351 353 353 352
350 347 359 364 366 373 372 364 358 355 351 349 351 353 356 351 346 346 346 347 347 346 348 350 349 348 349 351 352 349 351 351 351 351 350 352 351 351 351 345 347 352 352 352 351 350 349 350 351
349 352 357 370 369 364 364 357 355 355 355 352 354 358 350 345 344 346 346 347 346 348 349 348 349 349 349 350 348 349 349 350 351 349 351 352 352 351 350 351 352 352 350 350 351 349 351 351 349
349 357 371 370 369 363 357 355 355 356 355 353 355 357 350 343 343 346 346 346 346 349 348 351 348 348 350 349 349 351 351 351 352 352 351 352 351 350 351 350 349 351 351 348 344 348 351 351 345
360 362 373 373 369 363 360 361 356 357 357 355 356 354 350 344 344 345 345 346 346 346 349 350 350 350 352 351 352 351 347 352 349 351 351 350 350 349 351 350 351 351 347 344 348 349 351 342 342
361 367 368 367 367 367 363 361 362 358 356 356 354 356 350 344 344 345 345 345 345 345 347 350 350 349 352 352 352 352 351 351 350 350 351 350 350 349 350 350 351 349 349 348 344 347 342 339 340
358 365 366 364 369 369 363 360 359 358 359 351 352 352 350 344 345 345 344 345 346 346 346 349 346 349 350 351 352 352 350 351 351 351 350 341 342 349 348 345 350 350 348 342 344 343 342 341 336
355 367 364 363 365 367 361 360 356 354 355 354 353 347 343 343 344 345 345 346 345 347 347 349 350 350 352 349 349 345 342 344 344 344 346 347 350 347 348 345 350 346 344 344 343 342 341 342 338
360 366 359 357 359 363 362 357 357 358 357 356 352 344 343 343 344 344 345 346 346 346 345 349 351 349 350 346 351 351 347 350 347 345 345 349 346 344 343 347 347 344 343 342 342 346 346 347 348
357 361 354 355 356 357 361 358 353 358 361 356 351 346 344 344 344 344 344 344 345 344 348 348 347 349 348 346 347 351 347 343 343 347 349 344 344 343 342 347 348 348 347 346 349 349 350 346 341
361 355 353 352 353 353 357 354 354 354 359 353 350 345 344 345 344 343 343 344 344 345 346 348 347 347 345 345 346 344 343 342 346 347 346 347 344 343 345 348 345 347 347 348 346 346 348 345 343
357 355 349 349 352 353 355 358 356 358 354 353 350 345 344 344 343 342 343 344 344 345 346 346 347 348 346 348 346 345 343 345 345 347 348 346 345 344 344 345 346 345 346 346 347 347 347 345 346
352 353 348 345 348 355 358 357 356 356 353 352 350 346 344 344 342 342 343 344 344 344 345 346 348 347 348 350 350 348 345 343 344 345 347 347 346 346 346 346 346 347 348 349 348 350 346 345 345
348 350 347 346 349 356 354 358 361 355 353 351 349 346 345 343 342 342 343 343 344 344 345 346 347 346 349 350 352 351 344 345 345 348 349 349 349 351 348 347 348 347 349 350 349 347 346 343 346
350 349 353 349 355 355 355 368 359 354 353 350 348 346 344 343 342 342 342 341 343 344 346 346 345 345 348 352 352 350 346 348 347 346 349 351 351 351 350 348 347 347 349 348 347 347 344 346 346
348 353 354 356 355 356 360 367 358 355 354 350 348 347 345 345 343 342 341 340 343 344 347 346 346 345 347 349 350 349 349 349 348 348 349 351 351 351 352 347 349 349 347 347 346 347 345 346 345
345 348 351 356 356 353 357 364 360 357 355 354 349 348 346 346 345 342 340 339 342 345 348 348 346 346 348 348 350 350 350 350 350 349 349 351 351 350 353 350 347 351 347 348 348 348 348 345 345
340 343 347 356 351 353 355 358 364 357 357 356 355 351 349 347 344 342 343 342 340 343 347 348 348 348 349 349 348 351 351 351 351 350 353 352 352 352 354 350 350 350 348 351 349 348 349 344 343
341 342 343 350 349 347 350 356 361 359 357 357 355 352 351 348 343 344 345 342 340 341 344 348 349 350 351 349 349 348 350 351 350 352 352 352 352 352 353 352 348 349 350 351 352 351 349 343 342
342 343 343 343 341 339 342 357 363 359 358 356 355 353 351 348 344 349 347 345 342 342 342 347 349 351 350 348 350 351 353 354 350 351 351 351 352 352 353 352 350 351 352 349 352 350 349 347 341
340 339 338 340 343 346 345 354 358 362 360 359 355 355 353 350 346 349 348 348 344 340 342 346 350 350 350 351 350 352 349 349 350 350 351 353 352 353 352 352 352 354 350 351 351 348 352 347 341
334 339 338 337 339 342 346 359 361 360 364 361 360 357 354 351 347 349 348 348 346 342 344 347 351 351 350 351 354 352 352 350 349 350 353 354 355 353 352 353 354 352 352 349 353 353 351 346 346
335 337 339 337 337 339 338 347 364 357 356 354 355 356 356 354 350 349 348 349 349 344 344 346 351 353 352 353 354 355 353 351 352 351 350 350 351 353 353 353 355 356 354 354 352 353 353 353 350
335 337 341 341 339 338 334 343 355 347 348 349 350 351 353 355 353 352 350 350 350 345 344 346 349 354 354 354 355 355 355 353 354 354 351 352 350 351 355 356 356 354 355 354 354 354 354 353 350
335 335 337 339 338 334 334 347 345 343 347 348 350 351 349 350 353 353 352 350 351 348 345 347 350 353 356 355 355 356 356 353 350 352 350 347 350 350 358 357 355 354 354 353 354 353 350 349 351
335 334 330 331 334 333 339 342 343 345 347 350 349 352 358 350 354 354 353 350 350 350 347 347 350 353 356 356 355 356 356 356 350 349 351 350 350 351 353 353 354 354 354 354 354 353 352 355 353
329 332 333 331 335 335 341 344 345 346 349 348 348 351 354 355 351 355 353 350 351 350 349 348 350 353 356 357 356 356 356 357 355 352 351 350 351 350 350 354 355 355 354 354 354 353 353 353 352
329 331 332 331 332 335 342 344 343 347 347 348 345 343 345 352 354 356 353 351 351 351 351 351 351 352 355 357 356 355 355 356 357 355 354 352 352 353 353 356 356 357 356 356 355 355 355 355 354
325 329 331 333 333 331 335 343 342 342 345 345 342 339 342 343 345 343 345 345 349 350 349 350 352 352 353 355 356 355 354 355 355 356 355 354 353 352 352 354 355 354 356 356 356 355 350 352 354

GFSSGP_925_thetae_093.txt.gz
Theta_e
337 334 344 347 360 361 370 366 358 356 355 351 351 352 354 352 357 361 349 349 349 349 350 350 349 346 341 340 353 347 346 344 346 341 348 352 352 349 350 352 352 352 352 353 352 350 351 350 350
339 344 347 355 366 371 369 362 359 357 353 346 350 351 355 357 350 349 349 350 350 349 349 344 340 347 350 349 349 350 352 351 350 350 348 351 349 351 352 352 352 352 351 353 353 352 351 351 347
347 350 351 362 367 371 369 364 359 355 354 348 351 349 352 354 348 348 349 349 347 347 343 344 343 348 350 349 349 351 349 351 350 350 352 352 350 351 353 352 352 351 352 353 351 347 349 347 345
351 352 355 364 370 367 365 359 353 354 348 347 349 353 350 348 347 347 348 346 346 345 339 345 345 351 352 352 348 350 350 349 351 351 352 352 351 351 352 352 352 352 351 352 351 344 344 344 343
351 355 366 357 361 363 362 360 356 357 349 348 348 353 352 348 347 347 349 349 351 347 342 347 350 350 351 351 352 351 351 350 349 352 353 352 352 352 352 351 351 348 350 346 350 340 343 345 344
356 358 362 365 369 363 361 360 357 352 348 347 350 351 352 347 347 348 350 350 348 348 349 351 349 350 352 352 350 351 350 351 352 351 352 351 351 351 352 351 351 349 343 349 344 338 337 343 343
357 362 367 368 371 365 361 358 362 350 347 347 347 350 347 348 348 349 349 349 350 349 348 348 350 352 352 351 351 348 349 350 352 352 350 352 351 352 352 350 350 348 351 351 345 336 335 339 340
356 361 369 369 371 369 361 360 356 360 355 344 345 350 349 347 347 348 349 350 350 348 346 348 349 349 349 350 351 346 348 351 352 351 350 351 351 352 348 345 351 350 345 345 351 341 338 337 341
353 364 368 368 366 369 360 357 356 353 357 348 345 345 345 346 347 346 348 348 350 350 350 349 350 350 346 344 350 343 349 343 341 341 342 346 345 348 345 342 345 349 346 343 338 333 336 339 341
361 364 366 362 361 364 359 357 357 359 360 358 346 345 343 346 346 345 345 349 349 350 349 350 350 348 345 349 341 340 344 347 346 345 347 349 348 348 342 344 346 348 348 341 336 338 339 341 342
360 365 359 362 360 357 358 358 356 360 360 349 346 344 343 345 344 345 346 347 349 349 351 350 349 348 349 347 347 347 347 347 346 348 347 348 346 341 342 344 342 344 345 341 341 337 343 345 345
350 357 358 361 358 356 357 358 360 357 356 348 343 342 343 345 343 342 345 348 350 350 351 351 350 349 349 348 349 349 348 345 347 348 346 339 343 342 345 345 341 340 343 336 345 344 345 345 345
360 358 355 358 357 357 354 357 359 357 354 354 343 343 341 345 345 342 348 348 347 349 351 349 349 351 348 348 348 348 349 345 345 345 346 347 345 339 341 341 334 337 340 339 339 344 347 347 340
349 350 355 356 356 356 355 356 354 354 351 353 344 342 340 340 345 345 348 347 346 348 350 345 350 348 346 349 346 346 346 345 346 346 344 348 346 342 344 342 343 344 340 336 340 345 345 343 342
346 350 355 357 357 355 353 359 359 356 353 345 344 342 340 340 344 344 347 349 347 348 348 346 347 348 348 347 351 348 345 346 348 349 345 344 346 347 348 345 343 344 345 345 344 344 346 345 341
351 358 362 359 357 356 356 367 359 354 356 347 345 343 342 341 343 344 345 348 346 347 347 344 348 348 347 352 351 348 348 346 345 349 347 349 347 349 349 348 347 346 348 347 347 346 347 346 343
350 358 360 364 357 357 360 365 358 354 354 351 345 343 341 341 342 343 343 346 346 346 346 344 343 349 349 351 348 345 348 348 346 345 348 349 350 349 348 346 348 350 345 345 345 346 346 346 346
341 351 354 359 359 353 359 361 358 355 353 350 345 343 341 341 340 343 343 345 346 344 346 344 344 347 346 352 350 349 347 350 348 350 350 349 351 347 346 349 350 346 347 346 347 346 346 344 343
337 345 353 354 350 355 361 360 359 356 352 348 346 342 341 340 339 341 344 347 345 344 346 344 344 350 345 351 348 350 350 349 349 348 349 351 350 347 346 348 346 346 345 346 350 350 348 349 343
334 338 358 354 353 354 363 362 358 356 352 348 347 343 343 341 340 340 343 347 348 345 345 349 344 345 345 348 349 350 350 351 351 349 349 351 351 350 349 349 348 349 350 351 351 349 348 346 342
330 331 353 354 354 356 355 359 361 357 352 352 350 346 343 343 342 340 339 346 348 347 345 350 345 346 349 346 351 350 350 350 350 352 352 352 351 351 350 349 349 348 347 340 352 347 345 345 343
325 331 342 353 354 357 352 362 351 356 357 354 350 350 347 344 343 340 339 344 348 348 347 350 347 344 349 353 350 348 347 348 345 350 351 350 350 352 351 348 347 347 346 348 350 350 350 349 350
325 342 347 348 347 357 357 360 361 355 359 356 351 352 348 346 345 342 343 342 347 348 348 348 351 348 345 350 352 349 345 348 350 351 352 351 351 352 352 351 350 348 347 348 350 350 348 346 350
326 334 341 345 345 347 354 361 362 360 360 359 356 353 350 348 346 345 345 343 346 348 349 349 352 351 346 346 353 351 350 347 349 350 351 352 351 352 353 351 351 347 348 349 348 352 349 345 348
328 332 335 346 345 345 338 357 358 354 350 352 351 348 352 349 347 346 347 347 345 346 350 350 351 353 350 347 350 350 349 348 350 350 349 351 352 352 351 352 351 352 347 351 350 352 352 347 346
327 329 332 348 340 337 338 360 354 349 346 351 355 353 350 349 346 346 347 347 346 344 349 351 350 352 351 353 348 348 349 351 350 349 347 350 350 351 351 352 352 352 351 352 352 352 350 351 345
332 331 328 334 333 334 350 349 346 345 345 351 354 349 350 352 355 350 346 347 347 344 348 351 351 350 351 356 351 350 352 347 352 351 351 351 351 352 353 351 351 353 352 352 354 352 353 348 349
334 330 330 330 338 342 355 355 357 355 355 354 353 351 348 350 353 352 351 350 348 349 349 353 354 354 350 351 355 354 352 347 350 352 354 351 350 350 352 351 353 354 354 352 352 351 352 351 351
331 329 330 329 332 341 354 356 353 353 351 351 349 346 344 345 346 350 346 345 347 349 348 348 347 349 353 354 354 355 353 354 350 350 351 354 352 350 345 348 352 350 353 354 353 353 352 352 350
328 330 329 331 334 341 350 355 348 348 346 345 346 342 341 342 341 342 344 344 344 345 347 349 345 346 347 351 354 356 357 356 353 351 355 352 351 352 352 349 343 350 350 354 354 352 350 352 349

GFSSGP_925_thetae_096.txt.gz
Theta_e
336 334 341 346 360 362 367 363 359 357 354 349 347 351 353 351 354 353 348 347 345 348 348 349 350 346 338 350 346 347 346 348 349 350 350 351 351 352 352 352 351 352 353 352 350 351 351 348 349
336 343 346 353 364 371 366 361 355 354 352 351 352 352 353 355 349 349 349 344 346 348 349 349 341 340 347 351 348 350 351 350 349 350 350 352 351 352 353 352 353 353 353 352 352 352 350 347 348
341 346 352 360 364 368 365 360 353 352 350 350 353 350 351 354 349 349 349 344 348 348 346 340 349 349 350 350 349 350 351 351 350 350 351 351 351 352 352 353 353 353 353 352 351 351 347 342 344
348 350 351 361 366 363 363 358 350 350 350 349 351 354 349 348 348 350 349 346 347 342 338 341 348 351 351 350 351 351 351 352 350 349 351 351 351 352 352 352 352 351 351 350 350 350 346 344 346
351 354 364 359 361 360 362 352 348 350 353 352 351 355 351 347 348 349 347 346 337 342 344 347 350 351 351 351 351 351 351 349 350 351 352 352 350 351 352 352 350 351 347 350 347 343 342 342 343
356 354 361 362 363 363 360 356 348 349 352 352 352 352 349 347 347 346 345 343 336 339 345 349 349 351 351 352 351 350 351 351 351 351 350 348 351 353 352 349 346 343 344 344 343 345 344 344 343
356 358 361 366 370 365 360 357 351 352 352 352 348 353 348 346 348 349 348 345 340 345 348 348 350 352 352 351 352 351 350 350 351 351 351 351 351 351 351 346 346 344 349 345 340 341 342 343 343
355 361 364 364 367 366 361 359 357 352 352 347 346 353 351 347 349 350 349 347 348 347 344 347 350 349 349 351 351 350 349 351 351 350 351 351 351 351 348 342 344 351 350 344 341 337 341 341 343
352 364 368 365 364 363 358 356 354 353 348 347 346 348 347 348 349 348 349 350 349 347 345 345 347 347 348 350 351 350 348 344 348 350 351 349 346 345 347 348 350 351 346 348 338 335 338 342 342
357 364 364 359 358 361 358 356 356 358 353 351 348 347 347 347 349 349 349 349 349 349 349 346 347 347 347 352 347 343 342 342 343 346 346 347 345 343 345 348 349 351 349 339 334 336 339 341 342
355 364 357 359 358 357 356 357 356 359 356 349 349 348 346 345 348 348 349 348 349 350 350 349 348 344 346 346 342 345 346 346 345 347 348 348 347 345 343 344 343 344 343 338 335 342 343 343 342
352 349 355 359 358 356 355 354 358 356 356 346 346 346 347 345 345 348 348 349 349 349 349 349 347 348 346 340 344 347 346 346 347 347 346 347 344 343 341 340 342 343 338 338 341 342 344 344 344
351 350 355 357 355 355 356 358 357 354 351 345 342 345 345 344 344 346 348 349 349 350 349 349 348 349 346 346 348 347 346 346 346 341 341 343 342 344 343 342 337 338 337 341 343 344 346 345 342
354 357 356 357 356 355 357 357 351 353 352 344 343 345 343 343 343 347 348 349 349 350 351 351 349 349 348 345 346 347 345 346 345 345 345 346 343 338 338 338 336 341 334 338 342 344 345 342 342
353 355 358 359 356 355 354 359 355 349 351 344 343 341 344 343 347 348 348 348 349 350 350 349 349 348 349 346 346 346 344 346 346 345 345 345 343 345 343 342 342 343 342 342 343 344 345 343 341
351 355 360 360 356 354 356 365 355 349 354 346 344 341 340 346 347 347 347 346 349 348 348 348 347 349 347 349 347 345 345 346 347 346 347 345 346 347 345 343 342 343 343 344 346 345 346 345 342
348 359 361 365 356 355 358 362 355 353 354 345 344 341 344 345 346 348 347 346 348 346 347 348 347 347 350 348 347 345 346 348 348 346 346 348 348 349 347 346 344 345 343 346 346 346 345 344 343
330 354 357 363 360 355 358 361 356 354 355 345 344 340 344 344 344 346 347 346 348 345 344 345 344 346 349 348 347 347 346 345 344 348 348 348 347 347 347 347 347 348 345 345 344 346 348 345 344
325 329 357 356 357 355 359 361 359 354 354 352 345 340 341 344 342 344 346 346 346 344 344 343 345 347 350 349 349 348 348 347 349 349 349 349 349 346 346 347 347 348 347 348 347 348 347 347 345
326 334 359 356 353 357 355 362 357 355 353 352 346 340 339 341 341 345 346 346 346 346 343 343 346 346 347 349 348 349 348 349 348 348 348 350 346 346 346 346 345 348 347 347 347 347 346 345 343
322 325 355 358 349 347 352 359 358 356 353 348 347 342 339 339 339 344 346 345 345 345 344 347 347 348 345 349 348 349 350 349 349 348 349 351 349 349 346 346 346 349 347 347 349 347 344 345 346
320 324 346 358 355 363 350 361 352 351 355 352 351 349 342 340 338 344 346 346 344 347 345 344 345 346 346 346 350 348 349 349 349 349 349 350 351 351 347 349 348 347 345 343 346 348 350 347 347
321 325 345 352 349 355 355 352 354 348 357 354 353 350 346 342 339 340 344 346 346 345 348 346 344 344 348 348 350 349 347 348 344 349 350 351 350 351 351 348 344 347 346 346 348 351 349 348 347
322 342 343 347 344 351 352 358 362 356 356 355 351 349 349 346 344 340 342 346 347 347 349 347 345 345 348 350 351 349 348 347 348 349 349 350 350 351 352 349 348 347 346 346 349 348 350 347 347
324 325 335 349 348 345 349 358 353 352 353 353 352 350 348 350 347 345 342 346 347 348 350 349 347 346 345 347 349 350 350 347 348 350 350 351 350 352 351 351 351 348 346 348 348 351 350 350 348
325 325 330 347 341 340 348 357 350 352 353 350 353 353 350 349 347 347 345 345 346 348 349 351 349 348 348 345 347 351 350 348 346 350 350 349 349 351 350 352 352 349 346 349 348 350 351 349 349
324 329 324 331 330 340 352 350 347 349 351 355 353 348 349 351 349 347 346 346 345 346 349 350 350 349 348 348 347 349 349 348 349 349 348 346 349 351 350 350 350 352 350 350 351 352 351 348 347
324 327 329 325 335 346 354 353 353 348 354 354 351 349 350 350 353 352 349 348 346 345 349 350 351 352 351 350 350 346 348 347 343 348 350 351 350 350 349 352 350 350 352 352 352 352 350 351 347
328 328 326 325 327 348 356 357 354 353 354 353 349 347 347 346 348 347 347 348 348 347 347 348 349 350 351 351 352 349 348 348 345 345 353 352 351 350 350 352 350 350 353 354 352 351 351 349 349
326 327 324 328 331 341 344 358 350 348 348 345 346 344 342 342 343 344 345 345 346 347 347 345 346 347 349 350 351 351 350 348 350 347 350 351 352 349 351 347 348 350 351 353 354 353 352 350 350

GFSSGP_925_thetae_099.txt.gz
Theta_e
342 336 343 346 359 362 363 362 358 355 348 346 343 348 351 350 353 347 346 346 344 345 347 348 350 351 349 347 346 347 346 348 345 348 350 351 351 351 352 352 351 351 348 350 351 349 350 350 350
337 343 347 353 363 367 364 358 358 353 349 346 349 350 352 355 350 348 347 345 344 346 349 350 347 347 351 348 348 349 349 348 347 348 351 351 351 352 352 352 352 352 349 351 351 350 349 349 350
339 346 351 360 364 366 365 357 356 353 349 350 352 349 352 355 348 348 347 345 346 348 349 344 344 351 351 349 351 351 351 349 349 350 351 352 351 351 352 352 352 352 352 351 351 348 348 346 348
349 349 351 361 365 361 360 355 351 352 350 350 350 353 349 347 348 348 346 346 347 349 343 350 350 351 351 349 349 350 351 350 350 351 351 351 352 352 353 353 352 351 350 351 350 349 348 347 348
350 354 363 364 362 359 358 352 349 352 353 352 349 353 350 348 349 347 347 346 347 343 346 349 349 351 350 349 351 351 351 347 348 349 349 349 352 352 352 352 352 351 350 350 350 348 347 344 346
356 352 360 364 360 363 355 350 351 354 352 351 351 351 349 349 348 348 346 346 337 339 341 350 349 350 349 351 350 349 350 350 348 347 350 346 352 352 349 352 352 351 350 346 345 343 341 343 345
357 355 361 362 365 361 357 351 353 354 351 351 347 351 348 347 347 346 344 338 340 341 346 350 348 350 349 349 347 349 350 351 351 351 351 351 352 348 345 351 352 352 351 346 345 342 342 343 343
356 359 362 357 364 364 360 357 354 352 352 345 345 352 352 345 346 346 343 343 343 347 350 347 349 351 348 349 350 350 350 350 350 349 351 351 350 350 351 346 351 351 349 347 342 342 341 343 341
352 363 365 363 365 360 356 355 354 352 348 346 347 346 346 348 349 349 348 348 349 350 348 349 349 348 348 348 350 350 350 348 350 350 350 348 344 344 346 347 351 350 348 341 338 340 340 342 343
352 361 363 358 357 359 357 353 356 353 350 350 348 348 349 349 349 349 348 349 350 349 350 349 348 346 346 347 347 343 346 348 347 348 346 345 344 345 346 351 352 350 337 334 336 338 341 341 342
356 363 356 356 354 355 356 355 356 351 354 349 351 351 348 348 348 348 348 347 347 346 349 347 346 347 347 344 344 343 343 343 346 346 347 346 344 343 342 344 346 341 338 336 338 341 341 342 341
354 350 356 357 354 356 356 355 359 353 352 347 348 348 348 348 348 348 346 347 347 347 347 348 347 345 345 341 344 345 345 345 346 347 346 345 343 341 341 342 343 338 337 338 340 342 344 344 343
350 353 356 357 357 354 354 357 357 353 352 347 346 346 347 347 347 348 347 347 348 349 348 347 346 345 338 342 346 346 346 346 347 346 344 341 342 341 340 341 342 340 337 340 342 344 343 341 342
352 355 352 358 356 354 355 355 354 354 351 347 347 346 346 345 347 347 348 348 348 349 347 347 347 346 344 345 345 345 345 346 344 341 342 340 342 341 341 340 335 337 335 339 342 344 343 340 342
355 358 357 359 356 356 353 356 355 351 348 348 347 347 345 344 345 346 347 348 348 349 347 347 348 348 345 344 344 345 346 345 345 343 344 345 344 338 338 340 343 340 340 342 343 344 345 341 343
356 354 361 361 356 355 354 362 352 350 349 346 346 346 345 342 344 347 348 348 349 349 349 349 349 348 348 346 345 345 345 346 346 345 346 344 343 345 343 343 342 341 343 344 343 344 345 342 343
339 354 358 363 356 356 356 359 351 350 352 345 345 345 344 346 346 347 347 348 349 348 350 349 349 348 346 347 345 344 345 347 346 346 345 345 345 346 345 343 342 343 343 345 345 345 344 344 343
329 351 358 362 360 357 358 359 350 351 350 348 343 342 343 348 346 346 346 348 349 348 348 348 347 347 348 347 345 345 346 348 348 348 345 346 346 347 345 344 346 345 344 344 344 346 347 345 343
325 328 359 358 359 357 359 359 353 352 352 346 342 343 346 346 347 347 346 348 347 347 348 347 348 350 347 348 347 345 346 346 347 349 348 348 347 346 346 345 346 347 346 347 346 346 346 346 345
326 343 359 355 353 356 358 360 356 354 352 347 345 342 344 345 345 346 345 347 345 347 347 347 346 349 347 346 347 347 347 346 347 348 348 348 348 346 344 346 346 347 346 347 347 347 346 344 342
322 325 357 359 353 351 355 358 360 356 354 353 346 339 343 343 344 346 345 346 345 344 346 345 345 348 348 348 348 348 347 348 348 348 347 347 347 346 344 346 344 346 346 346 346 347 344 345 346
321 324 341 355 350 355 348 359 353 354 354 354 349 341 343 342 344 345 344 344 345 343 344 344 345 344 347 348 347 348 348 347 347 348 347 349 349 349 346 347 347 346 346 343 346 346 349 348 347
321 325 345 350 352 347 350 352 352 347 351 354 350 348 338 341 344 345 344 343 344 344 343 343 346 346 345 346 348 348 348 348 347 347 348 349 350 350 349 348 347 347 345 346 347 348 349 348 349
323 341 344 342 345 352 348 351 357 352 352 354 352 350 344 340 343 345 344 344 344 346 344 345 347 346 345 345 347 348 348 345 347 346 348 348 350 349 350 349 345 346 347 346 346 347 346 347 347
321 338 347 350 350 348 345 354 349 351 349 352 352 350 346 342 342 342 344 345 344 347 346 345 346 345 347 347 347 350 347 347 347 348 348 348 349 350 351 350 349 349 345 347 346 348 345 347 348
319 328 337 346 345 345 348 354 351 350 348 349 349 350 351 347 347 343 343 345 345 346 349 346 345 345 347 349 349 348 348 348 347 348 349 348 349 349 350 348 349 350 349 346 348 348 348 345 348
323 324 323 332 328 341 350 348 348 352 354 352 351 351 351 349 349 347 344 345 345 346 348 348 346 345 345 345 348 348 348 349 348 347 349 350 349 348 350 350 350 349 348 347 350 348 350 350 347
321 322 327 323 333 343 352 353 351 356 358 352 349 349 349 350 351 349 346 344 344 346 348 350 348 347 346 347 345 346 349 348 348 348 348 348 347 348 350 350 350 350 350 350 350 351 352 350 349
328 326 322 322 330 339 350 352 352 346 352 351 350 347 347 347 350 349 349 347 345 346 348 349 350 348 348 348 349 348 347 348 348 346 346 350 350 350 350 350 351 351 350 350 351 352 351 350 349
325 325 323 325 333 338 345 352 350 350 347 346 344 345 343 344 345 344 346 347 346 346 347 347 347 347 348 349 350 351 350 348 348 348 345 348 351 350 350 350 350 351 351 351 352 352 351 351 350

GFSSGP_925_thetae_102.txt.gz
Theta_e
345 339 343 345 358 359 363 361 355 342 339 339 337 345 348 350 353 345 344 344 342 344 346 347 347 351 345 343 343 347 350 348 350 349 349 349 348 351 351 351 350 349 351 350 349 350 350 350 350
338 342 346 352 360 365 363 358 353 343 341 337 342 350 352 355 348 346 346 344 343 344 348 348 348 345 345 342 341 343 348 345 347 346 347 351 352 349 351 352 350 350 351 349 350 351 349 350 348
343 345 351 360 363 365 363 357 355 350 344 339 352 350 351 353 345 345 347 346 344 346 348 348 341 351 342 347 349 350 346 347 346 346 350 349 347 351 350 350 351 352 350 350 350 349 346 350 350
345 347 350 360 364 361 358 355 351 350 348 350 350 354 348 345 346 348 348 344 344 348 346 337 350 350 350 350 349 350 349 347 347 346 351 350 349 349 349 350 352 351 347 349 348 349 348 349 349
349 353 362 363 363 359 357 352 350 352 352 352 349 351 348 349 348 348 346 345 347 345 348 349 349 349 350 348 350 348 349 351 349 350 350 351 352 353 351 350 350 351 351 347 349 348 348 348 350
356 352 360 364 361 361 353 352 353 353 352 349 349 348 350 348 348 349 346 346 343 341 349 349 348 346 349 349 349 349 346 347 348 349 350 352 347 349 353 351 350 350 350 349 346 348 343 342 349
357 356 361 362 361 362 358 352 354 352 350 350 345 352 351 346 348 347 346 344 338 343 348 349 350 349 350 347 347 348 347 347 350 350 350 349 344 343 350 352 351 350 350 348 347 347 343 345 345
355 355 361 357 365 361 357 355 351 352 351 344 345 350 350 346 346 347 345 340 343 345 350 349 349 349 347 346 348 348 348 346 350 350 348 346 343 345 350 349 348 350 349 348 347 342 342 340 343
351 362 364 354 362 358 355 355 353 348 347 347 346 345 345 346 346 345 344 347 347 349 349 349 351 348 347 348 349 348 346 348 348 350 347 344 343 344 348 349 350 350 349 343 341 340 342 341 342
352 361 359 354 356 356 355 354 353 349 349 349 349 346 348 348 347 346 347 346 350 349 348 350 349 347 346 348 347 348 347 349 349 346 345 343 345 344 350 350 351 345 336 337 339 340 341 341 342
353 361 357 357 353 352 354 354 352 351 351 348 352 350 348 347 346 345 345 347 349 346 348 349 345 345 346 347 344 344 345 344 344 344 343 341 342 343 344 346 344 339 336 336 338 340 341 340 341
357 354 352 357 352 354 354 354 353 354 350 348 348 348 348 347 347 346 346 347 347 347 347 346 345 344 344 342 343 343 343 345 344 345 345 342 341 343 342 343 341 338 337 339 341 342 343 344 341
350 353 356 355 352 354 354 353 353 351 349 348 348 348 348 347 347 346 346 346 345 346 346 345 344 343 342 344 345 345 345 345 344 343 342 341 339 340 341 341 341 338 337 341 343 343 341 341 342
348 353 352 356 356 354 354 354 349 350 349 349 349 348 347 347 347 346 346 347 345 346 346 346 343 341 340 344 346 346 345 345 344 341 340 340 341 341 340 338 335 335 337 340 343 343 340 341 341
355 358 356 357 356 356 353 358 358 350 350 349 348 347 347 347 347 346 346 347 347 346 346 347 346 345 341 344 345 345 346 344 341 342 341 340 342 340 338 340 341 338 341 342 343 344 341 341 341
358 355 359 361 356 354 354 362 356 350 352 350 348 346 347 344 346 346 347 347 347 346 347 347 347 345 344 344 344 345 346 344 344 343 344 345 343 343 342 342 342 342 343 344 344 344 343 341 342
342 357 358 360 357 356 356 359 354 351 350 349 348 347 346 343 345 346 347 348 347 347 346 346 348 348 346 345 345 345 345 346 345 345 344 344 343 346 344 342 343 343 343 344 344 344 344 344 343
335 352 356 358 356 358 357 357 352 351 348 349 348 346 344 344 346 346 347 348 347 348 348 348 349 348 347 346 346 344 345 347 345 346 344 343 345 346 345 344 344 345 344 343 344 345 345 344 343
324 346 359 355 357 355 357 357 351 351 348 349 346 345 344 346 345 346 346 347 347 348 348 349 348 347 346 346 345 344 345 347 347 347 346 344 346 345 345 344 345 346 345 344 346 346 346 344 342
330 354 360 357 353 356 356 359 352 352 348 348 345 345 346 346 345 346 346 346 348 348 349 348 347 347 346 346 345 344 345 346 347 347 347 347 347 345 345 345 345 346 345 345 346 347 344 343 344
324 335 356 358 356 354 356 360 356 354 350 346 345 342 343 345 346 344 345 346 347 347 347 347 348 348 346 347 346 345 346 346 346 347 348 347 347 345 344 346 343 345 345 345 346 345 345 346 344
323 324 353 354 353 358 351 360 359 355 355 353 347 341 343 345 346 344 345 345 346 346 347 347 347 349 346 346 346 346 345 346 347 347 347 346 347 348 346 346 346 346 345 343 345 347 347 347 347
323 324 349 352 351 347 351 351 350 355 358 354 350 347 342 342 346 344 345 345 345 345 346 346 345 348 348 347 347 346 347 346 345 347 347 347 349 349 349 347 347 346 346 345 344 347 347 347 348
325 344 341 342 345 352 346 348 350 353 355 354 348 344 340 342 345 344 344 344 344 344 343 344 345 347 348 347 347 347 347 347 347 347 348 347 349 348 348 349 347 346 346 344 346 346 345 345 345
322 333 345 351 350 351 341 351 345 349 348 352 351 348 339 342 344 345 344 344 343 344 343 343 344 345 345 345 346 347 347 347 345 346 347 347 348 348 347 350 347 345 347 345 346 347 345 343 346
322 326 339 346 347 345 346 352 348 348 349 348 349 348 342 342 345 345 345 343 343 345 344 343 343 346 345 345 345 346 348 346 346 347 347 348 347 348 349 349 350 349 348 346 346 347 348 345 344
321 328 328 331 328 346 349 347 346 352 351 351 352 351 347 343 344 343 344 344 344 344 347 345 344 346 346 346 347 348 348 347 347 346 346 348 348 348 348 350 349 349 349 346 347 349 348 348 349
321 319 326 322 333 343 348 349 348 357 356 352 352 351 349 350 347 346 342 344 345 345 346 348 345 345 345 347 349 348 348 347 347 348 348 348 349 348 348 348 348 348 349 349 348 348 349 350 349
325 325 320 321 327 339 347 347 347 350 354 352 350 349 348 348 349 348 346 344 345 345 345 347 348 346 343 345 345 345 346 347 348 348 347 347 348 349 349 349 349 349 349 350 351 350 349 350 350
323 324 321 325 333 335 337 346 348 350 349 349 348 347 346 346 347 348 347 345 343 345 347 349 350 346 345 347 347 347 347 347 347 347 347 346 346 348 348 348 350 349 350 350 350 351 351 350 350

GFSSGP_925_thetae_105.txt.gz
Theta_e
342 343 345 346 362 362 365 363 351 341 338 337 335 340 344 351 352 344 344 346 345 346 349 349 347 348 342 342 348 348 349 350 348 347 350 349 350 351 351 352 352 351 348 351 351 351 350 350 350
341 344 348 353 364 367 365 359 346 338 337 337 347 347 351 356 347 345 345 346 346 348 349 350 348 342 340 339 342 347 348 346 349 347 349 349 348 349 352 351 351 351 351 351 351 349 348 346 346
344 346 353 362 364 367 365 358 342 339 340 342 353 351 352 351 344 345 346 347 347 349 349 351 344 344 341 346 348 339 345 349 347 347 350 349 347 346 349 351 351 351 351 351 349 348 349 350 349
346 350 352 362 364 360 359 356 343 344 340 350 351 354 348 345 344 347 348 348 348 349 349 344 349 349 350 348 346 350 340 343 344 348 347 348 349 346 351 352 352 349 347 349 349 349 350 349 349
350 355 363 361 361 359 354 351 346 345 345 352 350 351 348 348 349 348 348 348 349 347 343 350 349 349 348 350 348 348 348 345 345 349 346 345 347 349 350 352 351 350 350 350 349 349 350 351 350
357 353 361 363 361 359 353 351 350 352 352 349 349 348 350 348 348 348 348 348 347 346 350 351 349 349 346 348 346 349 348 349 349 348 346 345 351 352 351 351 351 350 349 349 348 347 349 350 349
356 356 361 361 361 361 356 352 354 353 352 350 344 349 350 347 348 348 348 348 344 351 350 351 350 350 349 349 347 345 349 350 347 343 345 345 345 348 351 351 351 350 348 349 348 347 346 346 342
354 356 361 360 362 363 357 353 350 350 351 344 343 350 351 347 347 348 347 344 346 348 351 352 351 351 350 350 346 350 348 349 346 344 343 347 345 345 346 347 349 350 349 349 342 342 340 343 343
351 362 360 358 361 358 355 353 351 346 347 345 347 344 344 346 347 347 344 344 346 350 350 351 350 350 348 350 350 350 349 350 350 346 343 344 349 349 349 347 350 351 349 343 341 341 341 344 346
352 361 359 354 356 356 355 352 349 350 350 351 349 346 345 346 346 344 340 344 346 350 349 351 350 349 349 349 347 348 349 349 349 347 344 347 348 347 349 350 345 339 342 340 339 341 341 343 347
350 360 357 355 353 353 354 353 347 351 353 350 350 348 346 346 345 339 341 341 345 349 349 350 349 350 349 346 348 348 348 348 347 343 346 348 348 350 349 347 339 336 340 342 341 340 341 342 344
356 355 354 354 353 352 354 350 353 353 349 346 346 346 346 345 340 339 340 343 347 348 349 349 349 349 346 342 346 346 345 345 346 346 342 344 346 346 347 343 338 337 338 340 341 346 343 343 342
353 353 354 354 352 353 350 352 352 352 348 347 347 346 345 343 344 343 342 345 346 346 348 348 349 346 342 346 346 347 347 346 346 346 341 344 345 342 344 341 338 337 339 341 343 342 343 342 343
348 352 353 356 354 353 352 351 348 350 348 348 347 346 346 348 348 346 345 346 346 346 347 347 348 346 344 346 345 347 347 346 346 343 342 340 342 341 340 337 337 337 340 342 343 342 343 342 345
351 356 357 356 355 355 351 353 355 351 349 351 349 349 348 347 347 345 345 346 346 347 347 347 347 347 343 345 346 346 347 345 344 339 340 341 340 338 339 340 340 340 341 343 344 343 341 345 345
356 355 361 359 355 353 354 362 355 349 352 352 351 350 350 349 347 346 346 346 346 347 348 348 346 347 343 344 345 346 346 344 342 343 343 343 342 340 340 343 343 342 343 343 344 346 345 345 346
351 356 359 363 357 356 356 362 351 349 352 351 351 350 350 350 348 348 347 346 347 348 349 349 349 348 346 345 345 345 345 346 344 344 344 343 343 344 342 343 343 343 343 344 348 346 347 349 347
353 355 357 358 357 358 359 360 354 349 348 352 351 350 351 350 349 348 348 348 347 348 349 350 350 350 346 345 345 345 345 346 344 345 344 343 345 345 344 343 344 345 344 347 348 345 345 347 346
342 344 358 361 356 357 359 360 356 349 350 352 351 350 350 349 347 348 348 348 348 348 349 349 350 349 348 347 349 348 348 349 345 345 344 344 346 345 344 346 347 345 348 345 345 347 348 347 346
350 357 359 355 353 356 356 358 357 355 353 351 351 351 349 348 348 348 348 348 348 349 350 351 350 348 347 349 346 347 348 347 346 346 345 347 346 346 345 345 347 346 348 344 346 345 347 348 346
331 342 357 357 354 354 353 359 356 354 350 349 346 348 348 348 348 349 348 348 348 348 350 351 348 348 346 347 346 344 345 346 347 346 347 347 348 345 345 345 344 346 348 349 345 346 345 350 349
333 329 353 353 353 356 350 359 358 355 354 352 349 345 347 348 348 348 348 348 348 348 349 350 349 347 347 346 348 345 348 346 345 345 347 346 347 347 344 345 344 345 345 344 347 347 348 350 352
328 329 352 353 354 355 356 357 356 356 358 353 350 348 345 347 347 348 348 348 348 348 348 349 350 349 348 346 348 348 348 345 344 347 346 347 346 347 348 346 346 346 345 345 344 346 347 350 352
340 345 349 350 353 357 354 356 357 361 359 356 350 349 346 345 347 347 347 348 348 348 348 348 349 348 348 346 346 346 346 346 349 349 349 347 349 346 348 348 347 347 347 344 346 347 346 347 347
335 343 348 350 354 346 345 356 350 353 351 354 352 350 347 345 347 348 348 348 347 347 347 347 349 349 349 348 348 347 346 346 347 348 350 351 351 351 347 347 347 345 346 346 345 346 345 347 351
332 335 340 347 348 346 349 356 351 349 348 349 351 349 348 346 345 348 347 347 347 347 347 347 348 349 349 349 348 347 347 347 346 345 347 351 351 349 347 347 346 347 349 345 346 350 352 346 349
324 326 330 338 341 347 354 351 347 352 354 350 351 351 348 345 346 347 347 347 346 345 347 347 347 348 349 348 349 346 346 347 348 346 347 348 347 349 349 349 349 348 349 349 345 351 348 350 349
324 325 328 333 345 346 354 355 355 358 354 352 353 352 348 345 347 347 346 347 346 345 347 347 347 346 346 348 349 346 347 347 347 347 346 347 348 349 349 348 348 348 349 349 347 349 347 348 352
325 326 327 331 334 341 349 353 349 354 355 357 355 352 350 347 348 348 347 347 345 345 346 348 349 348 344 345 349 348 346 349 347 348 347 347 348 347 348 348 348 348 348 349 350 350 348 349 354
326 327 329 329 337 342 346 350 351 351 353 351 352 352 352 349 348 349 348 347 347 346 345 348 348 348 346 344 344 348 347 345 347 348 347 347 344 346 348 348 348 348 351 351 350 353 353 350 352

GFSSGP_925_thetae_108.txt.gz
Theta_e
339 344 348 351 366 363 361 359 346 344 341 338 338 339 348 352 350 353 340 342 344 347 348 349 348 347 348 349 349 350 350 349 349 350 349 350 352 352 352 350 349 352 349 351 351 351 350 351 350
342 348 351 357 368 366 363 353 346 342 340 338 343 345 351 356 345 343 343 342 345 347 347 349 347 339 339 341 347 348 348 350 349 350 350 349 348 351 352 352 352 349 351 351 350 347 347 347 347
346 350 358 364 364 368 363 348 343 341 339 350 353 350 353 351 343 342 342 344 346 348 349 350 341 339 342 343 341 347 351 348 346 348 349 347 346 351 352 351 352 352 352 350 347 349 350 349 349
349 354 356 364 366 362 357 346 343 342 349 352 352 356 349 342 343 343 344 346 349 349 350 347 346 350 348 346 347 345 344 344 347 345 347 346 347 348 352 352 346 346 348 349 349 350 350 351 349
353 358 365 363 366 359 355 345 345 344 352 354 352 355 349 346 345 345 347 347 348 345 343 349 349 348 350 348 350 346 345 344 345 346 345 346 347 347 352 352 346 351 351 351 350 351 352 351 349
359 356 365 364 363 360 355 346 346 345 352 353 352 349 348 347 346 347 347 348 342 339 344 348 347 348 347 348 346 348 350 347 346 347 347 348 351 351 352 352 351 351 350 350 350 350 350 349 347
357 360 363 361 363 363 358 350 350 353 354 352 347 347 350 348 347 347 347 343 344 346 348 348 349 349 350 350 349 350 349 344 345 343 346 344 347 351 352 352 351 350 350 350 349 348 345 344 343
356 357 363 361 363 364 357 354 353 354 354 346 344 349 354 348 347 347 344 342 345 346 349 349 349 350 349 348 351 350 348 348 349 349 349 346 346 345 349 345 351 350 350 348 347 341 344 344 342
352 364 366 363 360 361 355 356 352 349 350 347 346 344 346 347 347 344 341 344 344 348 348 347 348 349 350 349 348 348 349 348 343 342 346 346 344 348 349 349 352 351 348 345 342 341 343 346 345
355 363 360 356 355 358 356 354 352 352 351 350 346 345 346 346 345 342 341 343 345 348 347 349 349 349 348 346 349 347 347 346 346 346 349 347 348 348 349 346 344 346 343 340 341 341 343 345 343
353 361 357 355 354 354 354 352 349 353 354 351 351 349 346 345 343 339 341 342 345 346 347 348 348 347 346 347 345 344 345 346 348 349 348 347 345 345 344 342 342 345 347 345 346 347 345 346 343
358 355 353 354 352 353 355 350 355 350 350 347 347 346 345 345 342 339 341 341 345 346 347 346 347 347 348 346 343 343 345 345 346 348 347 347 346 346 344 343 342 344 345 347 348 346 349 348 348
354 355 355 352 352 353 352 353 354 352 348 345 345 344 345 343 340 340 340 343 345 345 346 346 346 348 349 348 344 344 344 346 345 345 346 345 346 346 345 346 345 345 346 347 348 348 348 347 346
348 354 357 352 353 354 353 351 348 350 346 346 345 345 343 342 342 342 342 344 343 345 346 346 348 349 349 347 347 346 346 346 346 345 347 348 346 346 344 343 344 344 346 347 348 349 345 344 344
350 357 359 358 355 355 350 352 351 348 347 347 346 345 345 345 346 345 345 344 344 346 345 346 348 349 349 348 348 346 345 346 346 345 348 348 346 348 346 345 344 346 349 350 350 346 347 343 342
354 357 364 358 356 354 352 358 353 350 348 347 346 345 348 347 345 344 343 343 346 346 345 346 346 347 349 349 350 349 347 346 345 345 346 348 348 348 347 345 347 348 349 349 346 344 344 344 345
351 355 362 363 356 356 357 358 352 352 349 349 347 346 349 349 347 346 344 345 347 347 346 347 347 347 348 351 349 350 350 347 347 347 348 350 350 350 347 347 348 351 349 348 346 346 346 346 345
354 358 357 363 360 358 358 360 353 350 352 350 349 347 349 349 348 348 345 346 348 349 349 349 349 349 349 350 351 349 348 349 349 348 348 350 350 352 350 349 350 350 349 347 347 350 348 347 346
348 352 359 360 358 359 361 360 356 351 352 350 350 349 348 348 347 348 347 346 348 350 350 351 351 351 350 350 348 348 348 348 349 349 350 351 353 352 353 350 352 350 349 351 353 349 349 345 348
343 349 360 358 356 355 354 360 351 350 350 351 349 348 347 347 348 348 348 348 347 348 349 350 351 351 352 350 348 348 348 348 348 350 349 350 352 353 350 351 350 351 348 347 352 352 344 346 350
347 350 355 359 356 352 352 355 360 351 350 350 349 348 347 348 348 349 349 349 348 349 351 351 351 350 348 350 351 351 350 352 352 350 348 349 350 352 350 349 351 349 349 348 351 351 352 346 351
339 340 351 355 356 358 351 363 358 354 351 353 351 350 349 348 348 348 348 348 349 348 351 352 352 351 350 350 350 349 349 349 347 348 349 351 352 351 351 353 351 350 351 352 352 351 352 355 349
334 332 344 349 349 351 352 356 353 356 357 355 352 349 348 348 347 348 349 348 348 348 350 352 353 352 350 351 351 349 347 347 348 348 352 352 351 351 350 353 354 354 351 352 353 354 355 351 351
332 336 342 347 348 348 351 355 356 356 359 349 350 350 347 347 347 347 347 348 348 348 349 351 353 353 352 352 350 350 350 350 350 350 350 350 350 351 352 353 353 354 353 352 351 355 354 354 354
335 343 349 350 350 350 346 352 349 350 352 354 348 349 348 346 347 348 348 349 349 349 349 350 352 354 352 351 351 350 349 350 349 350 350 351 350 350 351 352 352 350 354 354 352 355 355 354 353
334 340 344 351 350 348 348 353 352 348 350 351 352 349 349 348 346 346 348 348 350 349 350 350 352 353 353 353 351 352 351 349 349 350 351 350 351 350 351 351 350 351 354 353 354 351 351 351 351
332 336 337 340 342 346 349 349 350 349 351 351 353 352 350 349 347 347 347 348 349 349 350 350 351 353 352 351 353 351 351 349 350 350 350 352 352 352 353 352 352 352 351 353 354 350 352 353 353
327 331 337 337 342 345 351 348 346 357 355 353 352 353 352 349 349 347 347 349 349 350 350 350 350 352 351 350 351 349 350 352 350 349 348 351 353 354 353 352 352 353 354 355 353 351 351 352 351
326 327 328 330 334 339 345 347 349 354 353 354 352 352 353 351 349 349 349 349 350 349 348 349 351 352 351 350 350 350 350 349 352 350 349 351 351 350 352 352 352 350 352 354 354 353 352 352 352
326 326 327 329 334 336 339 351 353 352 353 354 355 353 352 351 348 350 349 349 348 350 350 348 350 351 352 351 350 352 350 349 348 350 349 351 350 351 351 351 352 352 353 354 353 353 351 353 352

GFSSGP_925_thetae_111.txt.gz
Theta_e
339 344 348 351 367 368 359 353 347 345 344 341 340 344 351 352 351 354 342 344 346 347 348 350 350 351 351 349 347 348 349 352 350 352 353 353 353 352 348 352 348 352 352 351 351 351 351 352 351
346 346 351 357 370 364 356 348 346 344 341 340 344 347 351 351 344 344 344 345 346 346 347 350 344 345 347 351 351 351 352 352 350 351 349 351 351 353 352 351 352 352 352 348 348 348 347 350 350
346 350 360 368 367 368 355 348 346 341 342 347 349 352 349 346 343 342 343 345 346 348 350 349 343 342 343 349 351 352 352 351 351 352 350 346 352 348 352 352 352 352 347 350 351 350 350 348 350
349 355 359 369 366 362 349 346 344 345 350 350 352 354 344 343 342 341 343 347 347 350 349 344 344 351 349 349 350 352 349 351 352 351 348 345 352 353 351 348 343 344 349 351 351 351 351 349 349
351 360 369 368 362 356 346 345 345 353 353 353 351 348 346 343 342 343 347 348 348 347 347 348 350 348 347 351 349 350 348 352 347 347 351 350 353 353 346 343 348 352 352 351 352 351 351 348 348
361 358 368 369 366 356 346 345 345 353 354 354 352 348 349 343 343 345 347 347 340 342 347 348 348 347 347 349 351 348 348 352 352 348 348 346 344 351 349 348 351 351 351 351 351 350 348 347 347
360 365 365 362 365 363 348 346 346 353 353 352 346 351 346 344 345 346 347 339 340 347 346 347 349 349 351 351 352 352 351 350 346 347 347 347 352 352 352 351 351 351 351 350 350 349 347 346 340
358 361 364 361 366 366 354 349 350 352 353 348 345 350 350 347 345 346 340 344 348 348 349 349 349 350 349 349 351 350 347 350 349 349 349 351 351 349 345 345 351 351 350 349 348 344 343 343 340
353 367 368 364 364 364 355 357 354 351 351 349 347 346 347 345 345 342 342 343 347 346 348 347 349 348 348 348 347 347 348 348 346 346 341 348 348 348 351 347 352 350 349 347 342 344 345 343 338
356 365 362 358 357 360 356 356 356 355 352 351 348 347 345 345 343 342 343 343 345 346 348 348 346 348 347 346 349 347 347 348 344 345 346 349 349 348 346 347 347 343 340 341 343 342 345 348 350
353 362 358 358 355 355 355 356 353 354 354 350 351 349 346 344 342 341 342 343 344 347 345 348 348 346 345 344 346 347 347 345 346 349 348 346 346 346 340 342 346 349 350 348 347 347 345 343 339
357 355 357 356 354 356 354 353 354 353 351 348 348 347 345 344 341 341 342 343 343 344 346 344 345 347 343 342 343 344 344 345 348 349 347 346 343 344 342 342 346 347 346 347 345 342 345 343 343
355 356 355 353 352 354 353 355 354 352 348 347 347 345 345 343 340 341 341 343 343 344 344 345 346 348 346 343 342 345 344 346 347 346 345 347 346 344 345 346 345 345 346 345 345 345 345 344 344
353 355 356 353 352 353 354 352 350 349 347 348 346 345 344 342 340 341 342 344 343 344 345 344 348 349 348 345 345 344 346 345 345 344 346 348 344 346 345 346 345 345 345 347 346 349 344 343 341
351 359 358 354 354 355 349 352 353 347 346 347 345 344 342 341 342 342 343 343 344 345 344 347 349 345 346 345 346 346 343 345 344 347 349 349 347 349 345 345 345 346 347 350 345 345 344 341 340
354 359 365 358 356 355 351 358 352 348 347 347 345 343 342 344 344 343 343 341 345 345 345 346 344 345 345 347 349 347 345 345 345 346 348 349 350 349 350 346 346 347 348 345 343 344 341 341 341
355 359 365 363 356 356 356 358 351 350 346 346 345 344 345 347 345 344 342 343 346 346 346 347 345 346 347 348 349 347 347 345 346 345 347 350 350 351 348 345 349 349 344 344 343 343 345 341 342
355 360 359 364 359 357 358 357 353 351 348 345 345 344 347 347 346 343 343 344 346 346 347 346 346 348 348 349 346 346 348 346 345 347 350 351 350 351 351 349 348 352 347 343 350 352 344 345 344
347 352 359 357 359 356 357 358 349 353 353 348 346 347 348 347 345 344 344 344 345 347 348 348 348 350 350 349 347 346 346 347 347 350 350 351 351 352 353 350 350 353 348 349 347 347 347 346 343
339 360 360 359 357 352 355 360 353 352 354 351 349 347 348 347 345 345 344 344 344 347 348 350 350 351 351 348 347 347 346 346 348 349 350 352 351 353 352 353 351 351 348 350 352 352 345 344 347
340 356 361 363 356 353 352 358 355 350 353 352 347 346 345 347 347 346 347 345 345 346 348 349 351 352 353 351 350 351 352 351 350 351 349 351 352 352 353 352 353 352 354 348 352 348 351 349 347
341 350 355 358 358 362 352 362 354 354 353 352 351 347 346 347 346 346 348 348 346 347 347 351 350 352 351 355 351 350 347 349 349 349 348 352 351 351 351 352 352 353 350 351 350 349 351 352 347
340 338 360 354 352 355 355 359 356 351 351 351 352 349 347 347 347 347 347 348 348 347 347 349 350 352 351 352 352 352 350 349 349 348 352 351 353 353 351 353 353 354 353 353 355 353 356 351 352
336 338 345 349 348 355 353 354 359 359 355 351 351 351 347 348 346 347 348 348 348 346 346 348 350 352 353 353 353 352 349 352 350 351 352 350 351 351 352 352 354 355 355 354 353 355 354 357 354
335 341 357 360 356 356 351 353 352 353 349 350 351 351 349 348 346 347 349 347 347 346 345 347 351 353 352 352 351 352 353 352 352 353 351 349 347 349 354 354 354 353 355 355 353 355 355 354 355
337 341 355 358 356 355 347 352 357 346 348 349 348 348 349 348 348 347 347 348 347 347 346 346 351 353 353 351 351 352 352 350 351 351 350 348 350 348 353 352 354 353 354 354 355 353 353 351 352
334 340 343 348 343 350 353 349 354 350 350 352 351 349 348 350 347 347 347 348 347 348 347 348 352 353 352 351 351 352 352 351 352 352 354 352 352 349 352 350 351 353 354 354 355 352 352 356 354
328 333 338 342 346 349 355 355 348 355 354 353 353 350 349 349 349 348 345 345 350 347 349 349 351 352 352 350 351 351 350 351 351 352 352 352 351 356 354 352 352 353 354 354 354 352 353 352 352
327 329 333 335 338 343 349 355 351 355 353 353 352 353 351 350 350 349 345 347 348 349 349 350 351 353 353 351 351 350 348 348 350 351 351 353 353 355 355 354 353 354 353 353 354 355 353 354 352
326 327 328 331 336 335 335 349 343 351 352 352 352 351 352 351 349 348 346 349 351 353 354 354 352 353 354 353 352 352 352 349 347 349 351 351 353 354 354 354 355 353 354 353 355 353 352 352 353

GFSSGP_925_thetae_114.txt.gz
Theta_e
336 340 347 352 365 370 359 349 345 344 343 343 346 350 353 351 351 356 345 346 346 346 350 352 350 352 351 349 352 352 353 353 351 351 351 352 345 351 351 352 352 352 352 352 352 351 351 351 346
342 347 351 360 369 365 355 346 345 343 341 346 350 347 347 348 344 346 346 346 346 347 350 350 347 351 352 350 352 352 353 353 352 352 349 352 347 350 352 352 352 348 349 348 347 348 350 351 336
342 347 359 364 365 369 353 347 344 342 342 352 351 345 345 347 344 344 346 347 345 350 350 344 342 346 351 352 351 352 352 353 351 351 349 349 353 352 352 353 352 351 352 352 351 350 349 350 339
348 354 358 368 367 361 348 345 342 349 349 348 345 347 343 341 344 346 347 347 350 350 346 341 350 351 349 352 352 351 352 353 351 348 350 352 352 352 350 350 349 351 352 351 352 351 348 349 341
349 358 368 369 365 358 345 343 348 351 352 351 345 348 346 341 343 347 347 349 350 349 345 352 349 349 351 349 350 351 352 352 350 346 349 353 351 342 350 351 353 352 352 352 351 349 348 339 340
360 362 370 370 360 361 345 345 351 353 353 350 347 347 346 342 347 347 346 347 348 347 348 350 351 352 351 351 351 350 352 352 349 351 348 353 350 346 350 352 352 352 351 350 350 347 346 334 338
358 366 366 363 364 363 346 345 354 351 349 348 346 348 345 345 346 343 346 346 346 346 348 349 351 352 352 352 352 350 351 349 348 351 348 352 348 347 351 350 351 351 351 351 349 340 334 327 335
355 363 364 361 363 364 354 352 352 351 349 346 344 347 348 347 342 345 345 347 348 348 343 349 350 350 350 351 350 350 344 348 350 348 350 352 353 351 348 350 351 351 350 348 343 343 338 331 338
353 367 368 363 361 361 360 357 354 350 351 346 346 344 344 344 344 345 347 347 348 350 348 350 350 349 348 350 350 350 346 346 343 343 343 348 347 349 352 346 349 346 342 342 341 340 333 337 338
359 365 364 358 358 359 359 358 355 353 351 349 347 345 343 343 340 342 347 347 348 348 347 349 349 349 347 346 348 347 348 345 347 341 348 346 349 350 349 347 343 341 341 341 342 344 344 345 344
356 364 359 358 357 357 360 354 351 351 352 350 351 346 345 342 341 342 342 343 346 348 349 349 345 347 346 345 349 344 346 346 341 337 342 349 345 343 344 340 342 346 347 347 347 349 347 350 350
358 355 357 357 355 358 359 355 354 351 352 347 347 345 344 342 341 342 342 347 348 346 347 347 347 345 345 346 347 349 348 343 333 339 345 346 347 342 342 345 348 350 344 341 344 344 343 343 341
356 357 357 354 355 355 354 355 356 353 350 347 347 345 342 342 341 341 343 346 346 346 346 347 345 345 347 346 345 343 347 349 348 339 337 346 344 345 343 344 346 345 346 346 346 344 343 343 343
355 357 356 354 354 354 355 352 352 351 346 347 347 345 342 341 341 342 342 343 345 345 349 347 346 347 348 344 347 345 345 347 347 347 345 346 346 344 344 345 345 346 344 347 342 345 345 344 341
355 360 356 354 354 355 350 350 353 346 346 347 346 344 342 341 342 342 343 342 345 345 350 346 344 349 345 346 345 345 346 346 348 346 350 347 347 349 347 345 345 344 340 344 342 345 342 343 343
356 359 365 356 355 354 353 358 353 346 347 347 345 343 342 342 341 342 343 342 344 345 347 347 346 345 344 344 347 348 346 345 346 349 348 350 348 349 347 345 347 343 343 347 346 346 346 342 345
358 364 365 362 354 356 355 358 350 350 346 346 345 343 341 344 343 342 341 344 347 346 348 348 344 344 347 351 347 346 345 345 345 348 349 350 349 349 349 351 344 341 347 350 350 346 346 343 343
357 360 361 364 359 358 358 359 347 350 351 345 345 342 344 345 344 343 342 347 347 346 347 346 345 347 344 350 350 348 347 347 346 348 351 351 350 351 351 349 345 351 350 342 349 343 343 348 344
346 354 361 357 356 355 353 353 353 352 352 350 346 344 348 346 343 342 345 347 346 346 348 347 347 349 348 349 345 347 348 347 350 352 351 351 351 350 354 352 346 333 346 351 352 343 350 347 343
346 353 360 359 355 353 352 355 353 351 353 352 347 347 347 346 346 343 345 346 346 348 347 348 350 350 348 346 348 349 348 347 350 351 350 352 350 349 353 350 351 346 349 350 349 351 351 350 347
348 350 358 360 356 352 351 355 351 347 350 351 351 347 347 349 347 346 345 345 349 350 349 351 350 347 351 352 349 346 350 348 350 350 351 351 352 352 354 352 349 349 351 350 352 354 353 354 346
347 355 355 359 357 361 352 360 354 349 351 352 353 349 349 347 347 346 344 345 347 352 348 350 352 350 351 353 351 348 349 351 349 351 350 351 351 351 352 353 353 338 338 349 353 350 350 356 355
343 346 357 355 358 356 357 359 358 349 351 353 352 349 349 349 345 348 344 346 345 346 352 350 350 351 351 354 351 350 349 347 349 351 351 353 351 351 351 352 353 352 351 350 356 352 353 355 350
339 349 347 350 356 364 356 356 356 356 351 349 351 350 349 345 347 347 347 343 348 346 350 351 352 350 351 352 351 352 349 349 352 350 351 352 352 352 350 351 352 346 351 354 353 352 354 354 345
338 343 359 362 365 363 354 357 354 353 351 347 348 349 348 346 347 346 348 350 349 349 351 353 355 352 352 353 353 352 349 347 351 353 352 352 351 352 350 352 352 354 352 354 354 355 354 353 354
335 337 350 357 360 359 354 357 357 348 347 347 346 346 349 348 349 349 345 348 347 349 350 351 356 355 352 353 352 352 352 352 352 351 351 347 351 351 352 351 353 352 352 354 355 354 351 353 352
334 337 338 349 354 356 355 355 348 349 347 346 348 349 350 350 349 347 351 349 348 347 348 356 356 354 354 353 352 351 353 351 351 350 348 343 353 351 354 352 353 351 351 354 354 353 352 353 356
331 332 336 347 356 354 359 359 363 353 351 351 350 351 350 348 348 348 348 349 341 344 347 354 355 356 354 352 353 351 353 352 353 353 352 353 351 344 335 352 350 352 352 350 353 352 353 352 352
327 329 331 333 343 354 354 355 353 354 348 355 352 351 349 345 346 350 348 349 347 348 349 355 354 354 353 353 351 351 350 350 352 352 353 353 350 343 352 354 353 353 353 350 353 353 350 353 353
327 327 327 330 337 337 342 342 344 350 352 352 354 351 352 349 350 352 350 348 347 351 352 354 353 352 349 350 348 352 348 350 351 350 352 352 352 355 352 354 353 355 354 353 354 352 353 352 352

GFSSGP_925_thetae_117.txt.gz
Theta_e
335 337 345 350 362 359 358 348 342 351 351 347 348 348 348 350 351 354 347 348 347 348 350 348 345 350 350 350 350 349 351 352 351 350 344 349 352 352 352 352 352 352 352 352 352 351 349 350 349
336 342 348 358 366 365 353 345 347 353 348 344 345 345 347 350 346 347 346 348 343 352 349 350 350 349 350 350 348 350 352 352 351 351 347 352 352 350 351 349 351 349 348 348 350 351 347 348 347
335 342 355 359 364 363 350 344 351 353 347 346 347 345 347 350 346 346 346 346 351 350 342 344 348 350 350 350 350 351 351 351 351 352 351 352 352 352 353 352 352 352 350 352 348 351 349 350 346
342 352 350 365 364 363 345 342 343 349 345 344 344 347 344 346 348 349 349 350 349 342 337 339 345 351 351 352 351 351 352 351 351 350 352 352 352 353 352 351 352 352 352 352 348 348 339 343 344
342 357 360 363 363 360 343 350 351 351 347 345 344 347 351 347 347 349 350 350 346 341 350 350 349 349 352 351 352 352 352 352 350 352 353 351 351 350 352 352 352 352 352 352 348 336 337 342 343
358 357 364 365 358 356 352 353 353 350 347 346 345 346 350 347 346 344 349 348 345 350 348 351 350 349 350 351 352 351 352 350 347 353 353 347 352 353 351 352 352 352 349 346 333 331 335 341 343
357 361 365 358 362 360 355 351 352 348 347 347 343 349 348 347 348 349 349 347 347 348 347 348 350 351 352 350 352 351 350 346 346 350 351 347 348 352 351 349 350 350 350 345 330 326 330 339 342
358 359 361 361 361 359 358 352 353 348 348 343 342 346 351 343 346 346 346 347 348 349 350 347 346 346 349 350 352 351 349 345 345 346 353 353 353 353 351 348 349 346 348 344 337 329 337 338 340
353 360 366 361 359 359 356 357 351 348 346 344 343 346 346 344 346 348 349 347 344 349 349 349 349 350 345 345 350 349 344 343 344 345 345 348 348 349 348 342 344 347 349 342 336 331 337 338 338
359 359 362 358 352 359 359 356 353 352 350 346 344 346 342 347 346 346 349 349 345 343 349 348 348 346 345 345 346 345 341 341 342 343 345 346 349 350 341 340 342 342 342 344 343 337 338 339 339
356 362 359 359 352 354 358 356 348 352 353 345 345 344 344 345 345 346 346 347 348 346 348 347 347 347 345 343 345 346 345 344 341 337 334 343 347 343 339 340 342 345 346 346 345 346 345 347 350
358 357 357 359 356 356 358 357 353 352 349 346 343 342 340 338 345 346 348 348 348 347 348 347 346 346 348 346 343 345 342 335 336 338 338 343 345 342 339 343 347 347 340 340 344 345 341 342 343
357 359 357 356 355 354 354 357 356 355 348 345 343 342 339 338 340 344 346 348 348 347 348 347 345 346 345 349 346 346 339 336 339 340 336 344 344 344 343 346 344 343 345 344 343 345 345 346 345
356 359 356 355 355 353 353 356 353 350 347 346 344 341 339 338 343 347 347 346 346 347 346 344 345 347 348 347 347 346 344 340 336 340 344 346 345 347 348 343 344 338 345 346 342 344 343 341 343
356 361 356 355 355 356 350 356 353 348 348 347 344 340 341 338 343 345 346 346 347 348 345 344 347 346 346 345 346 345 346 346 343 345 347 347 347 343 345 347 346 348 346 346 343 345 346 343 341
360 357 363 357 355 353 354 357 353 347 348 346 345 342 341 341 343 342 344 347 348 346 344 343 347 344 346 345 344 345 347 348 349 348 350 347 345 347 349 342 346 348 348 349 348 347 347 344 342
354 361 361 357 354 354 354 356 352 349 347 345 343 341 341 341 342 342 343 348 346 345 345 347 345 344 344 346 347 346 345 346 348 346 345 343 343 348 351 350 349 340 347 346 348 344 345 345 344
357 361 358 361 356 355 355 354 349 349 351 344 342 341 340 342 341 342 346 345 344 347 348 347 342 347 344 347 347 346 345 347 348 348 347 347 346 351 350 350 345 342 345 344 349 345 347 348 344
350 358 360 358 355 354 356 352 349 347 351 352 345 340 342 342 342 342 347 345 344 347 348 344 346 346 348 348 349 347 346 348 346 349 350 349 350 351 351 350 342 344 347 350 344 348 350 351 349
348 357 359 356 353 353 353 352 349 350 349 352 352 344 344 343 340 347 346 345 344 347 346 347 346 345 345 347 347 347 348 349 350 351 351 350 351 348 350 349 340 343 346 351 351 349 352 351 345
350 354 357 359 355 351 350 353 353 350 347 348 349 349 345 345 343 346 346 345 346 350 349 348 347 348 347 349 348 348 348 348 350 351 350 350 349 352 352 351 344 344 347 350 351 353 353 353 352
355 354 355 358 356 361 351 360 354 350 350 347 349 350 344 344 343 343 345 347 348 348 348 349 347 348 351 350 347 348 348 348 349 349 350 349 351 351 351 352 350 347 345 348 350 353 353 352 352
354 351 353 351 353 356 354 359 355 351 351 349 348 350 349 344 342 342 345 348 348 348 349 349 348 346 348 347 349 346 348 349 351 350 351 351 351 350 349 352 351 343 345 349 352 353 352 349 346
350 354 351 352 356 360 355 358 358 354 350 348 347 348 349 346 345 344 345 348 351 349 350 349 349 350 351 350 350 349 349 349 351 351 350 349 350 351 349 351 347 346 349 350 353 353 351 347 336
346 348 354 358 362 364 355 358 357 350 346 345 346 347 349 347 343 345 345 346 350 351 352 350 350 349 350 349 350 350 349 348 351 351 349 350 349 350 349 352 350 346 349 351 353 354 353 353 351
347 346 352 356 361 361 351 362 355 345 344 342 344 343 347 347 345 345 342 348 348 352 352 353 350 348 349 348 352 349 347 345 350 351 351 350 349 348 352 350 351 353 352 351 354 351 351 352 353
336 334 330 350 350 355 356 352 348 345 349 342 344 346 347 346 345 346 348 346 350 348 349 353 352 350 350 350 353 351 351 352 352 352 350 347 349 350 352 350 349 350 352 351 352 352 351 349 353
329 329 339 346 356 356 359 352 353 350 349 348 344 346 347 348 347 346 348 347 348 348 347 354 351 352 349 349 352 350 351 351 351 349 348 349 351 351 350 352 353 350 351 352 352 352 352 353 351
324 324 325 334 343 353 353 357 350 349 351 351 349 344 345 348 345 345 348 347 347 348 347 353 354 352 351 352 351 351 348 350 351 352 351 352 350 349 337 350 351 350 353 350 353 350 350 350 350
325 325 323 323 326 339 345 346 347 346 350 349 350 348 344 347 345 342 346 348 345 344 349 356 355 352 352 353 351 350 350 351 351 351 352 353 352 344 348 350 353 353 352 353 352 354 349 352 351

GFSSGP_925_thetae_120.txt.gz
Theta_e
336 336 345 350 359 358 356 352 349 350 349 344 343 346 348 348 346 352 346 345 344 346 348 349 349 351 351 350 350 350 351 351 351 350 346 352 351 351 351 351 352 352 352 352 350 351 351 351 348
336 341 346 354 358 357 359 352 351 349 346 345 346 348 350 353 349 348 347 344 344 343 344 346 348 349 351 351 351 351 351 350 345 351 351 351 351 351 352 352 352 351 352 350 350 350 351 350 344
334 343 353 356 360 364 359 351 348 346 345 346 348 347 349 352 348 347 347 345 346 348 349 349 345 349 350 350 348 350 351 351 350 352 350 352 351 351 351 350 348 350 348 351 349 350 351 350 348
344 347 346 362 365 360 351 352 346 346 346 345 347 351 347 347 346 347 345 350 347 348 348 350 350 351 352 351 351 351 351 352 351 352 350 350 351 351 351 352 351 353 349 350 351 350 350 349 348
349 350 354 358 361 358 352 347 345 346 346 348 348 352 352 347 346 347 349 349 340 342 342 348 348 352 351 351 351 350 352 351 351 352 352 352 351 351 352 352 351 352 350 341 342 342 344 344 347
357 351 356 361 358 358 354 352 347 346 347 349 350 351 350 349 348 347 348 340 336 346 348 345 348 351 351 352 350 350 351 352 352 351 352 352 352 354 351 352 352 350 347 335 333 341 342 343 345
354 358 357 359 359 360 354 351 352 346 347 349 347 352 347 348 348 347 343 341 347 348 348 350 349 350 352 352 351 351 351 351 351 351 348 353 353 352 352 351 350 349 347 334 332 338 342 342 343
355 359 360 358 361 361 351 353 350 346 346 346 346 353 351 345 347 345 348 348 345 346 348 347 351 350 350 351 352 351 346 345 351 352 348 351 353 352 351 350 351 351 346 337 333 332 339 341 342
354 359 362 357 358 359 356 352 349 343 345 346 346 347 346 347 346 347 348 349 349 349 346 347 347 348 347 349 351 345 348 351 350 352 352 350 350 343 346 346 348 346 342 333 333 337 339 340 341
355 356 358 351 351 357 358 356 348 347 345 346 347 344 346 346 347 347 346 346 348 349 349 348 348 342 343 349 345 346 345 342 345 344 345 345 343 341 341 342 341 341 341 338 334 336 337 337 338
356 359 360 351 350 355 354 354 349 350 351 349 349 347 346 347 347 347 346 346 349 349 349 349 347 343 345 345 345 344 340 342 341 340 344 346 341 342 340 342 343 343 343 344 344 343 343 345 346
360 357 358 358 354 353 357 353 354 353 349 346 345 346 346 346 348 348 346 344 345 347 345 347 346 345 342 341 342 341 343 340 339 340 343 342 339 342 341 344 347 346 342 341 340 340 341 342 343
357 358 357 356 354 352 350 354 357 355 350 346 343 345 345 344 345 347 347 346 347 348 346 348 347 345 344 341 343 343 338 338 336 337 341 343 341 342 341 345 341 343 343 344 343 343 344 345 344
357 356 355 354 351 349 351 352 353 353 347 343 343 340 342 345 345 347 347 347 347 346 346 347 346 346 346 343 342 336 336 337 340 340 342 343 344 344 344 340 340 339 343 345 344 344 345 344 342
356 359 356 355 352 349 349 354 355 350 345 345 340 338 337 343 346 346 347 346 347 347 347 346 347 348 347 346 344 338 337 340 339 341 344 343 346 345 343 342 345 346 346 346 347 346 345 344 342
356 355 360 356 354 353 352 357 354 348 347 346 340 339 340 346 346 346 346 346 347 346 345 346 345 347 346 346 345 344 344 341 344 346 346 346 344 349 346 344 346 346 348 346 346 347 347 344 342
348 354 361 358 354 354 354 356 350 349 349 343 340 339 344 346 346 345 345 347 346 344 345 346 345 345 344 344 345 346 347 345 344 345 346 347 346 348 347 350 346 346 345 345 349 349 348 345 342
353 357 357 358 355 354 356 356 349 345 350 348 341 340 343 343 342 344 347 347 346 344 344 346 344 344 346 347 347 346 347 348 347 346 344 344 345 347 347 347 345 344 346 348 345 349 349 344 344
353 356 357 355 353 352 354 356 352 346 348 351 350 339 342 342 343 348 347 346 344 343 346 343 344 344 346 346 347 345 345 347 348 347 346 347 347 345 345 348 342 344 347 347 349 352 350 347 349
352 354 357 355 352 353 354 354 351 348 349 350 351 349 341 340 345 345 344 346 347 346 346 342 346 346 345 347 348 345 346 346 349 349 350 348 349 347 349 346 336 344 347 349 352 352 351 346 347
349 351 355 357 354 350 352 353 351 348 349 347 348 348 342 343 346 344 344 345 348 347 345 345 343 345 347 347 348 347 347 347 348 348 349 348 349 349 348 348 339 343 342 348 350 352 350 350 348
354 351 353 356 356 360 350 359 352 350 351 349 348 348 348 344 346 344 343 346 348 346 345 345 344 346 348 348 347 348 348 348 347 349 347 349 349 347 348 347 345 345 344 348 350 352 350 350 347
353 350 353 353 352 354 353 357 351 351 352 350 349 349 348 345 346 344 343 346 349 347 346 346 346 348 348 347 347 347 347 347 347 350 349 348 349 350 349 348 346 343 341 350 351 353 349 345 349
348 349 350 351 351 355 354 356 354 352 350 349 348 348 347 346 345 344 344 346 348 348 348 347 347 349 347 348 348 347 346 348 349 350 350 350 350 351 350 349 348 346 348 351 350 351 352 344 344
348 347 354 357 358 358 354 358 353 350 346 346 347 347 346 345 344 344 345 346 348 349 349 348 347 347 346 346 349 347 348 348 349 350 351 350 350 350 350 351 347 344 348 351 351 352 351 350 351
345 340 346 350 358 358 352 357 350 346 341 343 343 346 346 348 345 344 346 347 348 348 349 350 349 348 350 348 349 348 349 347 349 350 350 348 347 348 351 351 348 347 346 350 352 351 350 351 352
341 344 338 344 347 352 355 352 349 345 347 344 344 346 346 349 346 345 345 348 349 348 349 349 349 351 351 350 349 348 347 344 348 349 349 349 349 349 348 350 351 350 350 348 353 352 349 348 353
331 330 338 342 351 353 357 352 352 345 349 343 344 344 342 345 345 343 343 347 347 350 350 349 348 348 348 349 349 350 347 350 351 351 351 349 349 350 351 351 349 349 351 351 351 351 351 351 352
322 322 321 331 339 350 357 355 346 345 348 346 343 343 340 342 344 344 344 345 347 350 351 351 349 348 346 348 352 351 349 350 352 350 350 343 350 351 351 349 350 351 351 351 353 350 349 350 351
321 322 317 319 322 338 341 344 342 341 348 346 345 341 339 341 345 344 345 345 345 347 347 353 352 350 348 348 350 351 349 351 350 351 352 350 351 349 350 346 349 351 350 352 350 351 351 349 350

GFSSGP_925_thetae_123.txt.gz
Theta_e
343 342 345 349 355 354 355 352 347 348 347 343 343 346 348 349 345 344 343 342 341 343 345 348 347 350 350 350 350 350 349 351 351 346 350 349 350 351 351 352 352 351 351 352 350 351 350 350 351
338 342 346 352 354 360 359 350 350 348 345 343 346 347 351 354 349 345 344 345 341 344 347 348 347 349 350 350 350 351 351 351 349 351 351 351 351 351 352 351 351 352 351 351 351 351 350 348 349
341 346 350 354 360 357 360 350 348 346 344 346 349 347 350 352 347 345 345 343 345 347 348 349 347 349 350 348 348 350 349 350 350 350 351 351 351 352 350 349 350 351 351 350 352 350 350 349 349
348 343 347 357 361 358 353 348 347 347 347 347 349 352 347 347 346 347 343 344 341 342 345 348 349 350 351 349 348 351 351 351 350 351 351 351 352 351 353 351 353 349 351 351 352 346 345 348 349
344 348 354 358 360 357 349 346 346 347 349 348 348 353 352 345 346 344 346 346 346 349 349 348 348 351 351 348 350 351 350 351 350 351 352 351 351 351 351 352 352 350 350 351 350 349 347 348 348
353 349 355 361 358 357 351 346 346 349 350 351 352 352 352 346 345 348 347 346 348 347 349 348 348 351 351 351 349 351 351 351 349 351 351 351 352 351 352 351 352 350 348 347 344 344 344 347 344
356 354 358 358 359 357 353 347 350 350 349 350 347 354 350 347 347 348 348 345 341 341 344 347 351 350 351 351 348 351 351 349 351 351 350 351 350 351 352 351 348 348 346 343 341 342 342 344 343
355 355 359 358 359 359 352 352 348 348 350 345 346 353 353 347 346 346 340 342 348 349 347 343 347 351 350 350 352 351 351 351 351 351 348 353 352 351 351 349 351 350 346 333 337 340 341 342 343
351 359 362 358 359 357 355 353 346 345 349 346 347 347 346 346 345 346 348 349 349 351 347 347 350 349 351 349 350 350 347 350 349 348 351 349 350 350 347 347 347 346 339 334 334 337 340 341 342
354 355 359 353 353 358 357 352 347 349 348 350 348 345 346 345 346 347 347 348 350 350 348 350 346 349 348 350 347 344 343 344 346 348 346 345 346 345 346 348 343 340 336 334 336 338 339 338 338
354 358 355 350 349 354 356 351 345 349 350 349 350 348 346 346 346 346 346 347 347 347 348 347 346 347 347 347 345 343 342 344 344 343 343 343 343 341 340 341 341 342 343 343 342 341 342 344 345
358 358 355 352 349 353 354 352 353 351 349 346 347 346 346 346 346 346 345 347 348 348 348 348 343 345 344 344 342 340 341 340 339 343 345 342 341 340 342 344 345 343 342 341 341 341 341 342 343
354 358 357 354 350 352 352 355 355 352 350 345 346 346 346 346 346 345 345 346 347 347 348 347 345 343 341 341 340 340 339 341 340 341 343 340 338 339 341 344 343 342 342 344 344 343 344 344 342
355 356 354 351 352 351 352 350 353 353 351 347 347 347 346 346 346 346 344 345 347 347 348 346 344 342 341 342 342 341 339 339 335 339 342 341 340 341 342 342 340 340 343 346 345 344 345 345 341
353 357 354 354 351 351 347 350 353 351 350 348 348 346 345 344 346 346 345 346 347 346 347 347 345 346 344 340 341 336 335 337 337 341 342 343 344 344 342 342 344 345 345 346 346 345 345 347 341
354 352 359 355 353 350 353 356 352 350 349 346 347 345 344 345 347 347 346 346 347 346 346 346 346 346 345 343 337 335 336 340 337 343 344 345 345 344 344 344 345 346 345 345 346 347 346 342 343
346 352 360 358 351 350 354 358 350 348 346 346 342 340 343 347 346 347 346 346 346 346 346 347 348 346 346 345 343 342 338 342 344 344 343 345 346 344 345 345 342 345 344 347 347 351 343 342 342
348 358 358 358 350 347 351 355 350 347 350 344 341 342 343 346 345 346 346 346 346 345 346 346 345 346 345 345 344 345 345 343 344 345 346 347 347 345 345 346 345 345 347 345 349 350 346 343 343
349 355 358 354 349 349 351 353 351 348 349 351 350 343 346 346 344 345 345 346 346 345 346 346 345 344 344 345 346 345 346 347 346 347 346 346 344 342 344 346 343 344 347 348 350 349 344 344 348
350 357 357 354 351 352 353 354 351 350 348 349 349 346 345 345 343 345 346 346 345 344 346 344 343 345 346 347 346 346 346 347 348 349 349 346 346 344 346 347 338 345 347 349 351 349 347 345 348
348 353 354 356 353 351 353 352 351 349 348 348 346 346 342 344 345 346 346 346 344 344 345 342 343 343 345 345 346 345 346 346 348 349 347 348 347 346 346 347 337 344 346 347 348 350 349 349 344
348 350 352 353 356 360 351 358 352 350 350 349 347 347 341 345 346 345 345 345 344 345 345 342 344 344 346 347 347 346 345 346 345 345 347 349 348 348 348 348 341 343 346 347 350 349 348 347 346
349 348 352 352 352 354 353 357 350 349 350 350 347 348 345 345 345 344 344 345 346 345 345 342 345 346 347 346 346 346 347 346 346 345 348 349 348 348 344 347 345 344 343 349 351 350 343 348 347
347 346 348 349 349 349 354 354 354 352 349 348 347 347 347 345 344 343 343 346 346 346 344 345 344 345 345 347 347 347 347 347 346 347 348 347 348 349 350 348 348 343 345 349 350 349 346 345 349
343 344 348 350 354 350 351 357 353 348 347 347 348 346 347 345 345 343 342 346 347 345 346 346 346 346 346 347 347 346 347 346 346 347 348 349 349 350 350 350 350 346 348 350 351 349 348 347 350
345 338 345 348 353 355 351 359 347 342 344 343 344 344 347 346 345 343 342 345 347 347 347 347 348 348 348 347 348 347 346 346 347 348 349 348 349 349 349 349 350 347 345 350 351 352 350 348 351
344 342 335 345 345 349 353 351 344 343 344 342 342 345 347 347 344 343 343 344 347 348 347 347 347 347 348 347 345 347 347 347 347 348 349 349 347 347 347 349 350 349 349 349 351 352 349 350 352
336 335 339 341 350 352 353 352 349 345 344 345 344 347 347 346 346 344 344 345 345 347 348 348 347 346 346 346 346 347 348 348 347 348 349 348 348 348 349 348 349 350 350 350 350 350 351 349 352
322 323 323 330 338 346 352 348 342 342 345 345 345 346 346 346 346 343 343 346 346 346 347 348 348 348 347 348 349 349 348 347 345 349 349 350 348 348 349 349 350 349 349 349 351 351 350 350 351
323 324 317 318 321 334 341 337 342 339 345 342 342 344 345 345 344 343 343 345 346 347 348 348 349 348 348 348 349 348 349 348 350 351 350 349 347 349 350 350 350 349 349 350 350 352 350 348 349

GFSSGP_925_thetae_126.txt.gz
Theta_e
342 343 345 349 350 348 354 352 346 346 345 341 342 346 348 350 347 340 343 341 339 342 345 348 347 350 350 349 349 349 350 350 349 348 348 351 349 348 346 350 350 349 350 349 349 349 349 351 347
339 344 345 350 351 354 356 349 347 345 343 341 345 347 351 353 348 343 344 342 340 342 346 346 346 350 350 349 349 350 351 349 350 349 350 351 351 349 351 350 350 350 350 350 351 350 351 351 348
344 344 347 352 355 356 355 349 348 344 343 347 349 348 350 351 343 343 344 342 341 346 348 347 346 349 349 350 349 351 350 350 350 350 351 351 351 350 351 351 351 351 350 347 347 350 350 351 349
343 343 347 355 359 356 350 348 346 347 347 348 349 353 347 346 344 345 344 342 342 346 347 349 349 350 349 349 349 348 350 350 350 350 351 351 351 349 347 350 349 351 351 344 344 345 345 347 348
343 347 353 357 360 356 347 346 346 348 349 350 348 353 350 346 346 344 344 344 344 343 345 349 349 351 350 351 351 351 351 350 350 352 350 352 351 351 350 350 349 350 352 351 347 346 345 350 351
346 347 356 359 359 356 348 346 349 351 351 350 350 352 349 346 344 346 344 342 343 346 346 345 349 349 349 349 351 350 351 349 350 346 347 349 348 349 347 350 349 348 349 350 349 345 344 343 348
348 352 357 358 359 356 353 348 350 350 350 351 348 353 348 345 347 346 345 347 348 349 350 349 348 350 351 351 351 350 351 347 351 348 351 350 351 347 347 348 348 347 347 348 345 342 343 344 346
353 351 359 358 358 358 353 352 349 348 350 346 346 351 352 346 346 346 347 348 345 345 347 349 351 349 350 349 351 350 347 345 349 347 352 352 349 350 350 347 348 347 346 346 342 341 343 343 344
350 357 361 358 359 356 352 351 347 346 348 346 347 346 346 345 346 346 345 343 345 347 345 348 348 349 349 345 346 346 344 348 349 349 351 351 350 348 347 350 350 348 345 337 338 340 341 342 343
352 354 357 354 354 354 351 353 348 350 348 349 349 347 345 345 346 345 346 346 350 350 348 347 347 346 348 346 339 339 342 344 343 346 348 347 346 346 346 350 347 347 337 337 338 339 339 339 339
352 357 354 351 353 351 353 353 345 349 351 348 349 348 345 345 345 345 346 347 348 348 348 350 347 349 344 344 340 340 341 343 345 342 344 343 342 342 343 343 343 343 343 339 338 338 339 342 344
356 356 353 351 352 353 354 352 350 347 350 347 346 346 345 345 346 345 345 346 346 348 348 349 346 346 345 342 342 344 342 343 341 342 343 342 340 341 343 344 344 342 341 341 341 341 342 343 343
352 355 352 351 350 352 351 354 355 352 348 346 346 345 345 345 345 345 345 345 346 346 347 347 343 344 342 341 341 339 340 338 340 343 343 339 340 341 342 344 341 341 343 344 344 343 344 344 341
353 353 352 350 352 351 353 354 351 350 347 348 346 346 345 345 345 345 345 346 347 347 347 345 341 343 342 342 340 339 340 339 340 342 341 339 340 340 342 341 341 342 344 345 345 344 345 343 340
350 356 353 353 350 350 349 355 354 351 349 349 348 346 346 346 345 344 345 345 347 346 346 344 344 342 340 340 341 340 339 338 336 340 340 341 343 343 341 343 344 344 345 344 344 343 344 343 340
350 351 357 353 351 350 352 357 352 350 350 349 349 347 346 346 345 345 344 345 346 345 346 345 344 344 343 340 340 336 335 336 336 340 341 343 344 342 344 343 345 345 344 347 348 346 345 342 342
342 354 358 356 347 351 353 357 350 349 349 350 349 346 345 344 345 345 344 345 346 345 346 346 345 345 345 342 335 335 337 338 338 342 342 344 345 342 343 343 343 343 345 345 349 346 342 342 341
341 355 357 356 350 348 353 355 351 348 350 349 348 346 344 345 346 346 345 345 346 346 346 346 346 346 345 345 343 340 338 340 342 344 343 345 344 345 344 344 343 344 344 348 349 345 343 342 342
345 353 355 350 347 349 350 355 353 349 349 349 346 341 343 346 345 346 345 345 346 345 345 346 346 346 345 345 344 343 345 344 343 344 346 346 345 345 345 344 342 345 345 349 349 344 345 346 347
347 354 355 353 350 351 351 352 351 350 350 348 349 345 340 344 343 345 345 345 345 345 345 345 345 345 344 344 344 344 345 346 345 346 346 345 346 344 344 345 340 345 346 350 349 346 345 343 347
348 351 353 352 353 351 352 352 353 349 347 347 347 346 343 345 344 343 344 345 345 345 345 345 344 343 343 345 346 345 346 346 348 348 348 346 347 345 345 346 338 344 346 347 349 348 347 345 344
346 346 349 352 355 358 350 358 352 349 351 349 349 346 344 345 343 343 344 344 345 344 345 343 345 344 346 346 345 344 344 345 346 348 347 348 347 346 347 347 339 343 346 346 348 347 348 347 347
337 347 350 350 351 354 355 354 349 348 350 351 348 345 343 341 343 344 344 345 344 344 344 344 343 344 345 346 346 344 344 345 345 345 346 347 348 346 346 346 344 343 346 347 350 347 346 347 346
345 346 345 345 348 352 350 352 352 351 348 349 345 345 345 343 344 344 344 344 344 343 343 344 343 344 344 346 346 346 345 346 346 345 345 347 348 347 345 347 347 344 343 348 349 347 344 347 349
341 339 343 345 349 348 347 353 350 345 344 348 347 345 345 343 345 344 343 344 344 344 344 344 343 345 347 346 346 345 346 346 346 345 346 347 347 347 347 347 348 347 344 349 349 347 346 343 348
342 336 338 345 351 351 350 356 350 341 342 342 345 344 346 344 343 343 342 345 345 345 345 345 344 344 347 346 345 345 346 346 346 345 346 347 348 348 349 349 348 348 345 349 350 349 349 348 349
344 341 335 342 345 347 348 348 343 341 343 344 345 346 347 345 345 343 342 345 345 345 345 345 344 343 344 345 346 346 346 346 346 345 347 348 348 348 348 348 349 349 346 347 350 350 350 350 350
338 335 340 339 349 351 346 350 350 344 345 344 343 345 346 346 346 344 342 344 346 345 345 345 345 343 344 346 346 347 347 346 345 347 346 348 348 346 347 347 348 348 349 348 348 350 351 348 348
326 334 326 331 338 343 346 340 345 346 341 343 342 341 344 346 346 345 343 343 345 346 346 345 346 346 346 347 346 346 346 347 347 346 346 349 348 347 347 348 348 348 348 349 349 349 350 351 349
320 320 321 328 323 335 337 336 342 345 343 342 343 344 344 345 344 344 344 343 343 346 346 346 346 346 346 346 346 345 346 347 348 346 344 348 349 348 347 349 349 349 349 348 349 350 351 350 348